GFSNW_sfc_temp_000.txt.gz
Temp
55 55 55 55 54 54 55 55 48 61 61 51 44 45 54 55 59 60 57 55 53 50 50 48 48 48 51 55 53 47 49 40 32 43 51 53 49 45 43 29 33 31 29 37
55 55 55 54 54 53 52 52 52 61 60 38 35 52 55 56 57 56 55 53 54 54 49 42 49 50 55 55 52 48 48 36 29 37 44 48 45 48 45 41 32 30 23 31
55 55 55 54 54 54 53 51 41 49 52 50 50 50 50 51 57 56 57 55 56 52 48 50 45 49 54 54 53 52 50 42 36 30 37 41 39 45 46 39 24 33 36 39
54 54 54 53 54 54 55 50 46 50 39 45 49 51 52 51 50 56 57 53 52 49 40 42 41 47 49 52 51 50 47 36 39 41 44 44 44 43 43 40 39 31 37 39
54 53 51 51 53 53 54 49 48 50 47 52 50 44 50 51 53 53 51 49 50 50 43 44 40 45 44 45 48 44 46 33 35 37 43 41 38 42 42 41 42 40 41 41
54 51 50 52 53 55 52 52 52 50 43 44 39 40 50 52 54 52 56 53 49 41 48 51 51 51 50 49 45 39 40 32 29 34 35 34 32 36 39 42 44 41 33 40
54 51 50 52 52 53 53 52 50 41 36 34 42 52 53 52 52 49 54 53 45 53 56 52 49 46 45 43 45 47 33 30 30 28 32 26 41 47 47 42 44 45 43 43
53 50 51 53 52 52 53 53 51 41 34 38 45 49 50 51 50 48 51 53 55 53 45 36 32 32 35 37 46 43 43 34 30 27 29 35 40 45 40 36 39 44 42 44
53 52 53 53 52 52 54 54 52 46 37 39 52 48 49 39 37 41 47 54 54 47 35 30 22 23 31 34 40 43 38 33 28 30 26 26 36 45 49 47 32 45 45 43
52 52 52 53 52 53 53 53 56 50 39 48 52 44 43 49 41 41 40 46 42 45 35 31 31 28 37 29 26 27 27 30 25 20 23 28 41 47 48 28 34 42 45 45
51 52 52 52 52 53 54 54 56 52 43 47 53 55 50 48 43 36 44 43 39 36 33 32 30 33 31 29 36 33 32 26 28 27 27 27 46 47 37 41 42 46 47 45
51 51 51 51 51 52 53 51 55 55 48 49 53 55 56 56 54 47 44 44 43 39 34 33 29 32 33 28 31 40 34 37 32 33 33 43 46 48 48 48 48 45 44 47
50 50 50 51 51 52 52 51 52 49 39 45 47 50 55 60 57 57 42 38 49 45 45 36 35 33 35 33 33 35 41 46 35 37 43 46 48 52 53 49 45 47 46 45
50 50 50 50 50 51 52 50 52 49 42 34 43 53 53 59 58 56 54 53 52 51 45 36 34 34 41 35 39 37 42 42 39 39 44 46 48 49 48 49 48 47 47 46
49 49 50 50 51 51 51 50 51 52 47 37 38 47 54 57 58 56 55 52 49 40 38 34 35 36 37 35 35 35 43 43 37 37 47 45 47 48 49 46 44 43 42 43
49 49 50 50 50 51 50 45 48 51 53 40 35 45 45 50 52 51 50 50 47 46 40 35 39 44 40 34 34 43 47 50 52 46 50 48 47 47 46 45 44 46 47 48
49 49 50 50 49 51 47 45 48 52 52 36 36 36 40 44 47 45 45 47 45 45 42 37 38 39 43 33 36 47 49 49 51 52 48 42 44 42 46 47 48 48 48 48
48 49 50 50 49 49 45 47 49 51 46 39 35 35 36 45 36 34 39 36 39 42 41 38 36 38 35 34 45 45 47 49 48 47 46 45 45 47 47 48 47 44 42 42
48 49 49 47 45 41 43 48 48 46 44 36 33 33 33 43 38 36 35 37 33 38 33 35 37 33 34 38 41 43 44 43 44 45 43 44 43 44 45 45 43 40 38 38
48 47 43 35 39 48 47 44 38 37 36 37 33 36 34 42 34 33 33 33 32 31 33 37 33 36 44 47 48 48 44 44 43 38 36 38 38 38 39 38 38 36 35 35
45 37 35 42 47 43 38 33 34 34 32 33 33 34 34 40 34 33 33 32 32 27 27 32 24 29 35 43 42 43 43 43 43 43 42 40 39 38 36 34 34 31 30 30
45 43 45 43 41 35 33 31 32 32 29 32 32 34 37 35 40 33 32 29 29 25 29 28 26 28 38 39 39 40 40 42 42 41 41 40 39 38 34 33 32 30 28 29
46 39 35 37 33 30 27 26 29 28 32 34 34 33 34 34 34 32 28 27 25 24 27 27 24 34 38 39 40 41 42 39 36 40 40 39 38 35 29 29 28 25 28 31
33 31 27 29 25 27 26 28 30 33 33 33 33 32 31 30 23 28 25 25 22 19 22 18 26 32 36 37 38 38 38 33 31 35 35 32 30 30 25 34 33 31 32 32
29 29 22 24 29 30 32 33 33 33 34 33 31 29 28 22 19 19 18 17 23 23 18 21 26 33 34 35 36 34 31 30 30 34 30 29 28 27 29 30 33 29 31 31
28 27 21 27 28 29 31 32 32 34 32 28 28 23 19 18 18 15 13 14 15 18 19 24 28 33 33 33 32 33 32 32 33 34 32 32 29 31 31 31 33 30 32 32
24 20 29 25 27 22 31 28 33 36 32 21 20 16 20 21 12 12 22 17 19 22 25 27 30 33 33 33 32 30 32 33 33 33 32 32 32 25 30 30 30 28 31 31

GFSNW_sfc_temp_003.txt.gz
Temp
55 55 55 55 54 54 56 53 48 59 58 50 42 44 52 52 55 57 55 53 51 48 47 45 46 45 49 53 51 45 46 39 31 40 48 50 47 42 41 32 30 29 25 33
55 55 55 54 54 54 54 51 50 58 59 38 33 49 52 54 54 53 52 50 52 51 45 41 47 48 53 54 50 45 46 36 29 37 43 45 42 43 42 37 31 30 23 30
55 54 54 53 54 54 54 50 41 48 49 47 48 47 48 49 54 54 54 52 53 49 46 48 43 46 51 51 51 50 49 40 35 30 36 40 37 41 42 38 24 30 32 39
55 53 50 51 54 53 55 48 44 48 38 43 47 48 50 48 47 53 53 50 48 46 38 40 39 45 47 50 50 48 45 35 37 39 41 41 41 40 42 37 37 33 36 36
54 50 50 52 53 54 52 48 47 47 45 49 47 43 47 48 49 50 48 47 47 48 42 43 39 43 42 43 46 42 43 32 34 33 40 39 37 40 39 39 39 37 38 37
53 50 50 52 53 54 51 48 49 49 40 41 38 38 47 49 51 51 53 51 46 39 47 49 49 49 49 48 44 39 39 31 29 27 34 32 29 34 37 38 41 40 32 38
52 50 49 51 52 53 52 50 48 41 35 32 41 48 50 49 49 48 51 50 44 50 53 50 48 45 43 42 43 45 33 30 29 24 32 23 40 44 45 41 42 43 41 41
53 49 50 52 52 53 53 50 49 41 33 37 42 48 48 48 49 47 49 50 52 50 45 35 31 31 34 34 41 39 39 34 30 30 29 32 40 43 38 37 38 43 42 42
52 52 53 52 52 52 53 52 48 46 37 39 50 47 47 37 36 38 44 51 50 45 32 30 23 23 30 33 38 40 36 31 28 29 26 25 36 43 45 43 31 44 42 42
52 52 52 52 52 52 53 52 52 49 38 47 49 42 42 45 39 39 38 43 41 43 34 30 23 26 35 28 25 27 27 30 27 28 27 29 40 44 45 30 34 43 45 46
51 52 52 52 52 52 53 52 53 50 41 46 50 52 48 45 42 36 43 41 37 36 32 28 29 22 30 29 34 31 32 29 25 27 26 24 44 45 37 42 43 44 43 42
50 51 52 51 52 52 53 50 53 52 48 49 51 54 54 54 53 46 42 43 41 38 35 33 29 29 32 28 32 38 33 37 31 36 33 42 45 48 49 48 44 41 41 45
50 50 51 51 51 52 53 50 50 48 38 45 47 49 53 57 56 56 42 36 47 41 43 35 34 33 33 33 34 35 39 44 33 37 43 46 48 50 53 48 44 46 46 43
50 50 50 50 51 52 52 49 50 47 41 34 41 51 51 55 56 54 53 51 48 46 40 34 34 34 41 34 39 37 42 41 38 40 45 46 48 48 46 47 45 42 43 41
50 50 50 50 51 51 49 48 49 51 47 36 38 45 51 54 53 52 51 50 47 39 37 34 35 36 37 35 35 34 43 42 37 36 47 45 47 45 44 42 42 43 42 42
49 49 50 50 50 51 51 46 48 51 52 39 36 43 44 48 49 48 48 48 46 44 41 36 39 44 39 33 34 43 47 50 48 45 50 46 44 45 46 43 44 45 44 45
48 49 49 50 50 51 48 45 46 50 50 37 35 36 38 42 44 42 43 44 43 44 41 37 38 39 43 33 34 43 47 47 49 49 47 42 43 40 45 45 45 45 45 44
48 49 49 49 49 49 46 48 50 50 46 39 35 35 36 42 35 34 39 36 38 40 41 38 35 36 35 34 42 43 43 45 44 44 43 42 43 43 44 45 45 41 39 39
49 49 49 48 46 42 44 48 48 47 45 36 33 33 33 41 37 35 34 36 33 36 33 34 37 34 34 38 40 41 42 41 41 41 41 41 40 42 42 40 38 36 35 34
48 47 43 36 39 47 47 44 39 38 36 37 33 36 34 42 34 33 34 33 32 31 33 36 32 33 40 43 43 43 41 41 41 35 35 38 37 36 35 35 35 34 33 32
44 38 35 42 47 44 37 34 34 34 33 34 34 34 34 39 34 33 33 32 32 27 25 31 27 27 34 38 37 38 39 40 39 40 39 39 38 37 36 34 34 33 31 30
44 42 45 43 40 35 34 32 32 32 31 32 32 34 37 34 39 33 32 29 29 23 29 28 23 28 36 36 38 38 39 40 41 40 40 40 40 39 35 33 32 30 27 25
44 39 35 37 33 31 29 28 29 28 32 33 33 32 33 34 35 31 28 25 24 25 24 23 25 32 35 36 37 38 39 36 34 37 37 37 36 35 30 31 29 30 31 32
32 30 30 31 28 30 28 23 24 32 33 33 33 32 30 30 25 26 25 23 21 24 21 18 24 31 34 35 35 35 34 30 30 33 33 31 30 30 29 24 29 29 30 33
30 27 21 25 27 31 32 33 33 33 34 33 32 31 28 25 19 24 19 18 19 24 17 19 25 33 33 33 34 33 30 29 29 33 30 29 29 28 29 30 27 27 33 31
28 26 20 29 30 29 31 32 32 35 33 32 30 18 16 17 15 14 18 14 13 18 16 22 27 32 33 32 32 32 31 30 31 32 31 31 28 28 31 29 26 27 29 29
21 18 30 20 27 21 29 31 33 35 32 27 20 15 19 19 11 12 20 15 17 18 23 25 29 32 32 32 31 29 30 32 31 32 31 31 31 27 23 25 32 27 27 27

GFSNW_sfc_temp_006.txt.gz
Temp
54 55 54 54 54 54 56 51 47 57 56 49 39 42 48 51 52 55 53 51 49 46 45 43 43 43 47 51 49 44 44 37 31 39 45 46 43 40 39 27 29 28 25 29
54 54 53 52 53 54 54 50 50 56 57 38 32 47 50 52 52 51 50 48 50 49 44 39 45 46 49 50 48 43 44 35 28 36 41 44 40 41 40 34 31 29 22 30
54 53 50 51 53 53 52 50 42 47 48 45 47 45 45 47 53 51 50 49 50 47 44 45 41 43 48 50 48 48 48 38 35 28 35 37 35 39 39 37 30 30 32 37
53 50 50 52 53 52 54 47 43 46 38 42 45 46 48 46 46 51 51 48 48 45 38 39 38 43 46 48 48 45 44 35 36 38 40 39 39 38 38 34 36 33 38 35
52 50 49 51 53 53 51 47 46 45 43 47 46 41 45 46 47 49 46 46 46 46 41 42 38 42 41 42 44 40 41 32 32 32 36 36 33 37 37 37 37 36 37 36
51 50 49 50 52 54 50 46 47 49 38 40 38 38 46 48 49 49 50 49 45 39 46 48 47 48 47 44 41 39 38 30 29 26 32 31 28 35 35 36 39 38 33 41
52 49 49 52 52 52 51 48 47 41 34 32 39 46 48 47 47 47 49 48 42 48 51 49 46 44 41 40 41 43 32 29 28 25 32 24 39 43 44 39 41 43 40 40
53 50 51 52 52 53 51 48 48 41 33 36 41 46 46 46 47 45 47 48 48 49 44 34 31 31 32 32 38 37 37 32 29 30 29 32 40 43 37 36 36 41 38 41
52 52 52 52 52 52 53 50 47 45 37 39 48 45 45 37 35 37 41 47 47 45 31 30 23 23 30 32 35 37 36 30 27 29 26 25 36 41 43 41 30 40 43 45
51 52 52 52 52 52 53 50 50 48 38 44 47 41 42 43 38 38 36 42 40 41 30 29 23 26 33 28 24 24 27 30 32 32 28 30 39 42 45 31 33 43 43 46
51 51 52 52 52 52 53 50 51 49 40 44 49 50 46 44 41 36 41 40 36 36 33 29 30 20 29 29 34 30 30 25 22 27 26 23 42 42 36 41 43 46 45 42
50 51 51 51 51 52 53 50 51 50 46 47 48 50 51 51 51 44 39 42 39 37 33 33 29 27 28 30 30 35 31 35 33 36 32 41 47 46 49 48 44 42 39 41
50 50 51 51 52 52 52 49 48 46 38 44 46 47 52 55 54 53 42 35 45 40 41 33 32 28 31 32 32 31 39 42 36 37 41 43 47 50 47 44 43 42 41 40
50 50 50 50 51 51 52 49 47 46 40 34 41 48 49 53 53 51 52 50 46 43 38 34 33 34 41 34 39 36 39 41 38 37 44 45 45 42 42 42 43 42 43 43
50 51 50 50 51 50 50 48 49 50 46 36 37 45 48 50 50 49 48 48 45 40 37 34 35 35 36 34 35 35 41 39 34 38 45 43 44 44 44 43 42 43 42 40
49 49 50 50 50 51 49 44 47 49 51 39 34 42 41 45 48 47 45 46 44 42 40 35 39 44 39 33 33 43 46 47 50 45 49 47 44 44 45 43 41 43 40 40
48 49 49 50 50 52 48 44 46 49 47 36 35 35 36 41 43 41 42 43 41 41 40 37 37 38 42 33 35 44 45 46 47 48 46 39 40 40 44 45 43 42 41 40
48 48 48 49 49 49 47 47 49 50 44 39 35 35 34 41 35 34 39 35 38 41 40 37 35 37 35 34 40 41 44 46 44 41 41 40 42 44 43 41 39 37 36 36
48 48 49 48 46 42 44 48 48 47 44 37 33 34 33 41 36 35 33 36 33 37 33 34 36 33 34 37 37 37 39 38 38 39 39 40 39 37 38 37 36 34 33 33
48 47 43 36 39 47 48 45 40 39 37 37 33 36 34 41 33 33 34 33 33 32 33 36 32 33 40 39 38 37 37 38 39 35 36 37 34 34 35 35 35 34 32 32
43 38 35 42 47 43 38 34 34 34 33 34 34 34 34 39 34 33 33 32 32 24 25 31 28 27 33 35 35 36 37 38 38 37 37 38 37 36 34 33 34 32 31 30
44 43 44 42 40 35 34 32 32 32 30 32 32 34 36 34 39 33 32 30 29 24 28 27 20 27 33 34 34 35 36 36 36 37 37 37 36 35 33 32 32 31 30 25
43 39 35 37 33 31 29 25 29 29 32 33 33 32 33 34 35 31 30 25 22 25 22 20 23 31 33 33 34 36 36 34 32 35 34 34 33 32 28 30 30 28 28 30
34 31 31 29 28 30 30 30 25 27 33 33 33 31 31 29 29 28 21 23 23 23 16 16 22 31 33 33 33 33 34 29 28 32 32 29 28 28 28 25 26 24 26 29
31 29 25 27 27 29 32 32 33 33 34 33 32 30 28 26 23 25 20 21 19 21 17 18 25 32 32 33 34 33 29 27 27 32 28 26 26 26 28 29 27 25 24 25
29 26 21 27 29 28 31 32 32 34 33 32 29 21 22 19 18 16 19 16 15 17 15 21 26 32 32 33 31 31 31 30 31 31 29 29 25 26 29 29 27 26 25 25
23 20 29 19 21 23 25 32 32 35 32 27 25 17 18 19 11 14 18 14 17 18 21 24 28 32 32 32 31 28 29 30 30 30 29 29 29 25 23 24 30 28 27 24

GFSNW_sfc_temp_009.txt.gz
Temp
54 54 53 52 53 53 56 52 50 58 58 51 43 45 52 52 54 56 55 53 52 49 48 47 47 47 50 53 55 49 49 43 39 45 50 52 50 46 45 38 35 36 33 37
54 53 50 51 53 53 56 52 53 57 58 41 37 50 51 53 53 51 53 51 52 52 47 43 48 49 52 52 53 50 50 41 36 42 46 50 47 47 43 40 38 36 31 39
53 50 50 51 53 53 54 51 44 49 49 48 48 47 48 49 53 52 51 51 53 49 46 47 46 47 52 52 52 47 50 42 40 37 42 44 40 43 44 43 35 37 38 43
51 50 50 50 52 52 55 49 46 48 41 45 48 49 50 48 48 53 53 50 50 48 41 44 44 48 50 51 49 49 48 40 41 42 44 43 42 42 42 40 42 36 42 43
50 50 50 50 52 53 52 49 47 46 44 48 48 43 48 48 49 51 49 48 49 50 45 46 44 48 47 47 50 47 45 39 38 35 39 39 35 41 41 42 42 41 42 41
50 50 50 51 52 54 52 48 49 50 39 42 42 42 49 50 50 50 52 50 48 43 49 52 53 51 49 50 48 44 42 37 34 32 35 35 33 39 40 42 44 44 39 48
51 49 50 52 52 53 53 49 49 44 37 37 42 48 50 49 50 48 51 52 45 52 54 52 49 46 45 46 44 46 34 34 33 32 33 28 45 48 48 44 46 48 46 46
53 52 51 51 52 53 52 49 50 44 33 38 42 47 47 48 48 47 49 50 49 52 47 39 35 36 35 36 39 40 41 35 32 30 31 36 43 47 45 42 44 47 46 46
52 52 51 51 51 52 53 50 49 47 37 41 49 47 47 41 41 42 44 49 49 47 37 35 31 32 34 37 38 40 38 36 35 31 29 27 40 47 49 47 37 47 48 47
51 52 51 51 51 52 54 51 51 50 40 47 49 45 45 46 43 41 41 46 43 46 35 32 33 35 36 35 29 29 31 32 31 33 30 35 44 46 48 34 36 44 47 48
51 51 51 51 51 52 54 52 52 51 42 47 51 52 47 46 45 40 44 43 40 37 34 33 33 31 35 35 38 35 36 33 29 29 29 27 47 46 39 45 45 46 46 45
51 51 51 51 51 51 53 52 51 51 48 49 50 53 55 55 53 46 42 46 42 41 35 34 33 31 29 33 33 40 35 39 36 36 37 46 49 50 50 47 45 42 42 41
50 51 51 51 52 52 53 50 49 48 39 45 49 49 53 56 56 55 45 40 47 43 45 38 35 33 35 32 32 34 41 44 38 37 44 47 49 50 46 45 42 44 44 42
49 50 50 51 51 51 52 50 48 47 41 34 43 49 51 55 55 55 54 49 46 44 42 35 34 33 42 35 40 38 44 43 39 38 46 47 47 47 44 44 44 44 45 45
49 49 49 50 51 51 50 49 50 50 48 37 38 46 49 50 52 52 51 49 45 42 38 34 35 38 38 36 36 36 44 42 38 38 48 44 45 46 45 43 43 45 44 44
49 50 50 50 50 51 49 45 49 50 49 39 35 43 42 46 48 49 47 48 45 44 41 36 40 45 41 33 33 43 48 49 50 46 47 46 44 45 47 45 44 45 44 45
49 49 49 50 50 52 48 44 48 49 48 37 35 35 39 42 43 42 43 44 44 45 41 37 38 38 42 33 34 45 47 47 48 48 46 40 43 42 46 46 46 44 44 44
49 49 49 49 49 49 47 48 49 49 45 40 34 35 35 42 36 36 40 38 40 42 41 37 36 38 36 34 41 41 43 45 43 42 43 43 44 45 45 45 44 42 41 41
49 49 49 49 47 43 45 48 49 48 45 37 33 34 34 40 37 36 36 37 34 38 34 35 37 35 34 36 37 38 38 40 39 41 42 43 42 43 43 42 41 40 40 40
49 47 44 36 40 47 48 45 40 39 38 38 34 37 35 41 35 34 35 34 33 32 34 37 33 33 38 38 39 40 40 41 42 39 38 40 39 39 39 39 40 39 38 38
43 38 35 42 47 43 39 34 35 35 33 35 35 35 35 39 35 34 33 32 33 29 31 32 31 31 35 38 38 39 40 41 41 42 41 40 38 37 37 37 37 36 35 34
44 43 44 42 40 35 33 32 32 33 32 33 33 34 37 35 39 33 32 31 31 24 31 29 28 32 36 37 38 39 39 40 40 40 38 38 37 37 35 35 35 34 33 31
43 39 35 37 33 31 31 28 30 31 33 33 33 32 33 34 35 32 31 27 26 29 26 25 28 35 36 37 37 38 39 38 35 37 38 37 37 35 32 31 32 30 31 32
35 34 31 31 29 30 28 28 29 31 33 33 33 31 32 30 30 29 26 26 25 24 20 22 29 34 36 36 36 37 37 30 30 34 35 31 30 30 29 27 28 27 28 31
31 32 27 29 28 31 32 33 33 33 34 33 32 31 32 26 26 26 24 23 21 23 23 26 31 34 35 36 36 36 31 27 29 34 31 29 28 28 29 31 30 30 28 27
31 27 25 28 27 29 32 33 32 35 33 32 31 26 26 24 24 22 20 20 18 24 24 28 31 34 34 34 34 33 33 32 33 33 32 31 28 27 31 30 29 28 27 27
25 22 27 25 24 28 31 33 33 35 33 28 26 24 24 23 20 19 22 19 24 25 28 29 31 33 34 34 33 29 30 32 32 32 31 31 31 28 26 28 33 32 31 30

GFSNW_sfc_temp_012.txt.gz
Temp
54 53 51 52 53 54 63 68 64 69 69 66 64 61 62 56 62 65 63 63 61 58 57 55 55 54 57 61 61 56 57 54 49 52 57 59 58 54 54 46 40 45 41 45
53 50 51 51 53 54 72 70 68 71 69 55 53 59 59 61 62 60 61 59 61 61 56 51 56 56 58 60 61 57 58 51 46 49 53 57 54 55 54 50 46 41 36 47
51 50 50 51 53 53 71 70 57 66 69 64 63 59 58 57 62 59 62 59 62 59 56 58 54 54 57 58 59 48 55 53 49 46 50 53 49 52 54 51 41 44 46 50
50 50 50 51 53 53 70 67 60 60 55 58 63 62 61 58 56 61 62 59 60 58 51 53 52 56 56 57 52 57 57 47 50 52 54 54 51 50 52 50 50 42 47 50
50 50 50 52 52 53 67 64 62 62 59 60 62 54 59 59 57 60 57 58 59 60 54 56 52 56 56 55 57 56 55 47 45 43 49 51 47 52 53 52 52 51 51 50
50 50 50 52 52 56 69 63 63 68 48 56 58 57 60 59 61 58 63 62 59 53 59 63 61 60 59 58 55 51 50 46 41 37 44 44 37 47 51 52 53 52 45 54
50 50 52 52 52 56 69 65 67 59 50 56 59 59 61 59 59 57 59 63 55 58 63 62 61 58 55 55 53 55 41 43 39 36 37 31 49 58 56 52 54 57 57 54
52 52 52 51 52 53 66 63 66 58 38 56 55 59 58 59 59 58 59 57 57 64 60 51 40 45 39 42 48 49 51 43 35 32 36 44 49 52 50 48 48 54 52 54
52 52 51 51 52 53 64 61 61 62 43 52 61 58 60 56 55 55 52 56 59 60 51 45 36 41 43 45 45 45 46 44 41 35 30 30 47 53 55 54 43 53 50 48
52 52 51 51 52 53 66 61 59 66 53 59 60 58 58 60 58 55 54 54 51 57 43 38 39 43 46 43 37 35 35 35 34 36 32 41 53 54 55 36 40 52 47 46
52 52 52 52 51 52 63 60 60 64 54 58 59 60 58 58 61 53 54 54 51 46 37 37 40 36 45 43 48 43 43 37 34 35 31 30 54 54 41 50 52 46 45 44
51 52 52 52 52 52 57 64 60 60 62 59 59 60 62 63 66 61 55 56 55 55 45 40 38 34 34 39 39 50 42 48 45 44 45 57 59 56 58 54 50 43 45 50
50 51 52 52 52 52 57 63 60 62 51 57 60 59 61 65 64 67 57 54 58 55 57 48 41 35 45 34 39 41 52 54 45 44 52 55 56 59 56 50 44 48 50 50
50 50 51 51 52 52 55 61 59 59 50 37 53 58 58 61 63 64 64 60 56 56 55 39 37 37 52 39 49 47 53 52 48 47 52 54 57 52 50 46 46 46 52 51
49 49 49 51 51 52 58 59 59 60 59 44 50 55 55 59 60 61 62 61 57 50 42 36 38 48 45 42 42 42 55 52 42 38 51 47 49 48 48 45 48 50 49 50
49 49 50 51 51 52 62 57 60 60 62 48 42 54 52 55 58 58 58 59 55 53 48 42 48 54 50 34 36 49 56 58 57 48 48 50 49 48 51 50 50 50 51 52
49 49 50 51 50 59 57 55 55 54 61 44 41 43 49 50 52 52 55 53 54 51 48 42 47 50 47 37 35 50 52 49 50 52 50 46 48 47 50 50 52 52 53 53
49 49 49 49 49 50 54 55 51 55 52 47 38 38 42 50 42 39 46 43 46 45 45 40 42 42 41 36 46 46 48 46 46 47 51 51 50 51 51 53 52 49 50 50
49 49 49 50 48 45 48 48 51 54 54 42 36 35 35 47 41 40 41 45 37 45 36 37 41 37 36 42 40 42 44 46 45 49 50 50 48 49 50 49 49 47 46 46
49 49 45 36 42 48 49 47 46 43 43 42 37 46 39 47 38 37 39 38 37 35 37 42 33 35 38 41 43 45 46 47 49 44 43 45 45 46 46 45 46 45 45 43
44 39 36 43 47 46 41 35 36 36 34 36 36 36 36 43 38 37 37 34 35 32 37 35 34 36 40 44 45 47 48 49 48 48 48 47 46 45 44 43 43 41 40 40
44 43 45 43 40 35 34 32 32 33 34 34 34 35 38 36 41 37 34 34 34 31 40 32 31 42 44 45 45 46 48 47 47 47 46 46 45 45 42 41 41 39 37 34
45 40 33 35 32 32 32 30 32 33 35 35 35 33 36 36 38 33 35 32 32 38 29 32 40 43 44 45 46 46 47 45 42 45 46 45 44 42 38 36 36 34 36 37
37 33 31 33 31 33 34 35 36 36 36 36 35 33 35 33 32 33 31 32 34 28 27 30 39 43 45 45 45 45 44 37 37 41 41 38 35 35 34 33 33 32 33 34
34 35 30 32 32 34 34 35 36 35 37 37 34 34 38 32 30 32 30 27 27 31 31 38 41 43 43 42 42 43 40 34 36 41 38 34 34 34 34 36 35 35 33 32
36 33 30 32 32 32 33 34 33 36 34 35 37 32 31 29 31 27 28 28 28 33 36 40 43 41 40 41 41 41 41 39 39 39 39 37 34 33 36 35 34 33 32 32
32 30 32 32 33 34 34 36 35 37 34 32 34 29 29 30 28 27 31 29 34 37 39 42 41 40 41 42 40 36 37 38 39 40 39 38 36 34 33 33 38 36 36 32

GFSNW_sfc_temp_015.txt.gz
Temp
54 51 51 51 54 55 59 74 67 76 77 69 71 65 67 60 68 71 68 69 67 64 63 61 60 60 62 66 66 61 62 59 52 58 63 65 63 60 59 48 45 49 45 47
51 51 51 51 53 54 81 75 72 77 74 59 59 66 65 68 67 68 67 64 67 68 63 56 61 61 63 65 65 61 63 56 49 54 58 62 59 60 59 55 50 44 40 47
51 51 51 51 53 54 72 75 61 71 74 74 69 64 64 61 68 66 68 66 68 65 61 65 59 59 61 63 64 50 58 59 52 47 53 59 54 58 60 57 45 46 48 54
51 51 51 52 53 54 72 77 67 69 60 65 69 69 67 63 60 67 69 64 66 63 56 60 58 62 60 62 52 61 61 50 55 57 59 59 57 56 57 55 55 46 51 54
51 51 51 52 52 53 77 71 68 71 68 69 67 58 64 64 63 65 63 64 66 66 58 61 57 62 61 60 61 61 60 49 49 47 56 57 52 56 58 58 57 56 56 53
51 51 52 52 52 55 78 74 74 73 55 66 63 63 65 66 66 63 70 68 65 59 64 67 67 66 65 64 60 56 54 50 46 41 49 46 39 50 56 57 59 56 47 55
51 52 52 52 52 55 78 74 76 62 56 62 65 66 67 65 66 62 67 69 61 63 70 69 66 64 62 62 59 61 48 48 43 38 38 33 54 63 61 57 58 61 61 61
53 53 52 52 52 53 75 74 74 63 42 65 64 66 66 65 66 64 63 62 67 71 66 55 45 46 39 46 56 56 58 49 38 35 40 47 53 55 53 51 51 61 57 57
53 52 52 52 52 53 73 68 70 70 48 55 69 65 66 60 59 59 57 63 67 66 56 48 37 42 50 48 49 53 52 50 44 38 32 32 49 59 60 59 44 56 57 54
53 53 52 52 52 53 69 69 66 73 59 66 68 63 62 69 64 60 60 59 56 64 46 39 40 46 53 46 39 35 37 38 37 37 34 43 58 58 60 40 44 56 54 52
53 53 52 52 52 53 65 67 68 69 61 63 66 67 64 65 66 55 60 58 57 53 39 40 44 38 49 48 54 46 41 37 34 38 33 32 59 57 43 52 57 55 49 46
52 53 52 52 52 52 55 71 69 70 68 63 66 66 67 67 69 68 62 61 59 60 51 45 45 39 37 42 42 59 46 51 47 48 47 61 61 57 59 59 55 50 45 48
51 52 53 52 52 52 57 72 70 72 57 63 65 63 66 71 69 71 61 61 66 62 66 53 43 36 48 35 44 50 57 62 49 49 56 57 58 59 57 56 52 50 48 51
51 51 52 52 52 53 55 70 68 69 58 40 58 65 64 66 69 69 69 67 64 65 61 42 38 40 57 43 53 51 56 58 52 50 57 57 60 55 53 53 51 48 55 55
50 50 49 52 53 53 65 69 67 68 64 48 54 61 62 64 65 66 67 65 62 57 45 39 41 53 53 50 47 47 57 54 48 44 55 50 50 51 53 51 50 54 53 53
49 49 51 51 52 53 69 64 68 68 67 52 43 60 58 62 64 63 63 64 63 62 53 43 55 61 54 37 39 54 61 62 62 55 57 52 49 51 55 54 54 55 54 55
48 49 50 51 51 63 62 61 60 56 69 50 44 49 55 57 60 60 61 59 56 55 51 47 49 53 53 40 39 55 59 58 55 55 52 44 49 49 55 54 55 55 57 57
49 49 49 49 49 51 58 62 55 58 63 55 42 42 45 55 47 45 56 48 51 51 52 44 45 51 46 38 50 55 56 53 50 49 50 50 52 55 55 56 56 53 53 53
49 48 49 52 52 50 58 49 53 63 59 48 38 37 36 54 45 44 44 48 40 49 38 41 46 40 39 48 52 52 52 50 49 52 54 54 52 52 53 53 52 50 49 49
48 49 46 38 43 48 50 54 50 48 47 49 38 49 40 51 41 38 39 40 39 35 38 42 33 35 46 49 51 52 52 53 53 48 47 48 47 49 50 49 50 49 47 45
44 39 37 44 47 47 41 37 40 41 36 40 43 43 41 49 40 37 40 36 36 33 37 37 36 38 46 49 49 51 52 53 53 53 51 51 50 49 48 47 46 44 44 42
44 44 45 43 40 36 36 34 33 34 35 36 35 37 45 39 45 37 34 34 35 33 44 34 33 46 50 49 49 51 52 52 51 51 50 50 49 49 46 44 43 43 40 35
44 37 34 34 32 32 32 30 33 33 34 35 35 33 35 36 38 34 35 33 34 42 32 34 43 49 49 50 50 50 52 49 46 49 50 49 48 46 41 39 40 36 39 41
36 33 32 32 32 33 34 35 35 36 36 35 35 33 34 34 34 35 32 33 37 30 29 32 46 47 49 51 50 50 48 38 41 44 45 43 39 39 36 34 34 33 35 38
35 35 31 32 33 34 34 35 36 37 39 38 37 37 40 34 32 34 32 29 29 33 35 41 46 48 49 47 46 46 43 36 38 45 42 35 35 36 37 39 38 39 34 34
39 34 32 34 34 33 33 34 33 39 38 38 39 34 33 32 33 30 30 30 30 36 40 45 46 44 45 45 45 45 46 44 44 44 43 41 36 34 39 39 36 34 33 33
35 33 35 35 35 34 33 36 36 40 36 33 35 31 31 32 31 30 37 32 37 41 43 46 46 43 44 45 45 39 41 42 43 43 43 42 41 37 36 34 42 41 38 34

GFSNW_sfc_temp_018.txt.gz
Temp
52 51 51 52 53 55 60 73 63 75 77 65 68 64 68 61 69 72 70 72 69 66 65 63 62 61 62 68 68 61 63 59 49 58 65 67 64 60 59 44 44 46 43 45
51 51 52 52 53 54 73 70 69 76 75 58 60 67 68 71 69 70 69 66 69 70 65 57 63 61 65 66 64 58 62 56 47 52 58 64 59 62 60 56 48 41 37 44
51 51 52 53 53 54 68 72 61 69 71 73 67 64 64 63 71 68 71 68 70 66 62 66 60 58 62 65 63 52 58 59 53 45 53 59 54 58 61 57 42 43 45 50
51 51 51 53 53 54 69 73 66 70 59 64 68 69 68 64 61 70 71 66 67 65 57 61 59 62 60 63 54 61 62 51 55 56 58 59 57 56 57 55 55 45 50 53
51 51 52 53 53 52 70 68 68 71 69 70 68 59 65 65 67 66 65 64 67 67 59 62 58 63 62 60 62 61 62 48 48 46 58 56 51 54 55 57 57 56 55 53
51 52 53 52 53 56 75 75 76 72 58 67 64 63 66 67 67 66 72 70 66 57 63 66 66 66 66 65 61 57 55 49 44 40 47 45 38 49 56 56 58 56 46 55
52 53 52 52 52 54 72 74 76 63 57 64 65 68 70 68 66 64 70 71 60 65 71 68 66 64 63 64 61 63 48 47 41 37 37 32 54 62 60 56 58 60 59 58
54 53 52 52 52 54 74 75 72 63 41 64 67 67 68 68 67 66 63 65 69 71 67 53 45 44 40 48 58 58 59 47 37 34 38 45 52 56 52 50 49 59 56 56
53 53 52 52 52 54 72 67 69 69 50 58 70 67 67 61 60 59 58 66 70 68 54 45 38 41 50 45 48 56 55 51 43 36 32 31 49 59 61 59 41 57 55 52
53 53 52 52 52 53 66 67 67 70 60 67 67 65 63 68 62 58 59 59 57 65 45 37 42 45 55 44 39 35 36 39 36 36 34 41 56 60 60 40 42 53 54 52
54 53 52 52 52 53 61 67 69 67 60 65 68 70 67 67 66 54 61 57 57 52 38 40 44 38 46 48 54 42 38 36 33 38 34 32 60 58 43 51 54 54 52 50
54 55 52 52 52 53 54 69 71 71 66 62 68 67 68 67 67 67 62 61 59 58 49 46 46 36 37 40 42 60 45 49 45 45 43 58 62 57 58 56 54 49 51 50
52 54 54 52 52 53 55 70 69 71 59 62 63 62 67 70 69 71 59 60 67 63 64 50 43 34 45 35 43 49 58 63 49 49 55 58 60 59 56 55 52 53 51 52
51 52 55 53 53 53 54 69 68 68 56 38 57 67 65 68 70 70 69 67 65 64 58 41 37 36 56 43 49 49 54 58 53 50 57 58 59 56 54 53 52 51 53 55
50 50 49 52 54 53 64 69 68 69 62 45 54 64 65 67 67 68 67 65 62 56 44 37 39 51 51 48 47 45 56 53 46 44 56 53 52 53 53 49 48 52 54 53
48 49 50 52 53 52 67 62 67 68 68 51 42 61 60 64 65 65 64 64 62 61 51 42 52 61 52 37 38 53 60 61 62 54 57 53 52 52 53 52 54 55 54 55
48 48 50 51 52 62 59 57 57 54 64 49 42 48 56 58 63 60 61 60 55 57 53 48 48 52 54 38 38 54 59 61 59 57 54 49 50 49 55 55 56 54 56 55
48 49 49 50 48 51 58 59 56 56 62 55 42 42 46 57 48 45 55 47 52 50 51 46 45 51 43 38 50 56 59 59 54 53 54 52 51 52 54 56 55 52 51 50
49 49 49 54 56 55 58 50 52 64 58 48 37 37 36 55 45 43 45 48 39 49 39 40 46 39 37 46 51 54 56 52 51 53 54 53 52 53 53 52 51 48 47 48
48 50 46 38 43 49 51 57 53 51 52 50 38 50 41 51 40 38 39 40 39 35 39 42 35 36 49 55 54 56 55 55 54 48 47 49 48 49 49 49 49 48 45 44
45 40 37 44 47 49 44 41 42 42 38 42 43 45 41 49 39 37 40 35 36 34 38 37 36 35 45 52 52 53 55 54 54 54 53 52 50 48 47 46 43 41 41 39
44 43 45 43 40 36 37 34 35 36 39 38 35 38 45 41 49 40 36 34 34 32 41 34 33 44 51 50 49 51 52 53 52 52 51 50 50 49 44 42 41 40 37 33
43 38 35 36 32 31 31 30 32 33 33 34 34 33 36 37 40 34 33 32 32 38 33 32 40 47 49 50 51 51 52 45 45 49 50 49 47 44 39 37 38 34 36 38
36 33 32 32 32 33 33 33 33 34 34 34 34 33 34 33 33 32 32 33 35 31 29 31 43 47 49 50 50 49 46 36 40 41 42 40 37 36 35 33 33 31 33 35
36 35 31 32 33 34 33 33 34 35 37 35 34 34 36 33 32 33 32 30 29 31 32 36 42 44 47 44 46 44 40 34 35 42 39 33 34 34 36 36 36 36 32 32
39 35 33 34 33 32 32 32 33 37 36 37 37 33 32 32 33 31 31 30 29 33 37 41 43 41 41 41 42 42 43 41 40 40 40 38 34 33 37 38 35 33 33 33
34 33 37 35 34 33 33 35 36 40 36 32 34 31 29 33 31 30 34 31 35 39 42 42 41 41 41 43 42 37 39 40 40 40 40 40 39 36 34 34 38 38 36 33

GFSNW_sfc_temp_021.txt.gz
Temp
51 51 51 51 53 55 58 57 50 63 64 52 51 49 61 58 64 67 65 63 63 59 59 56 56 53 56 62 60 54 54 49 36 50 57 60 56 52 51 32 36 32 30 35
51 51 51 53 53 54 58 55 56 64 62 42 41 58 63 65 63 63 62 61 63 63 56 50 54 54 59 60 56 50 53 46 33 42 50 56 52 56 55 46 36 34 25 32
51 51 51 53 53 55 58 56 47 54 55 57 55 58 57 58 65 63 65 63 63 59 56 59 52 52 57 58 56 51 53 51 42 34 44 49 45 51 53 46 30 33 34 42
50 51 51 53 53 55 61 57 53 55 44 50 54 58 59 57 56 62 63 59 60 57 47 52 50 53 54 56 53 54 52 42 46 48 51 52 49 49 49 47 45 35 40 45
50 51 53 52 52 53 58 56 56 57 54 58 55 52 57 57 60 60 58 56 60 59 51 52 49 54 53 51 54 52 52 36 38 37 49 48 43 47 48 49 49 47 47 45
50 53 53 52 52 54 58 60 62 57 50 53 49 51 57 59 59 59 63 59 53 47 54 55 55 55 55 55 52 48 45 36 32 31 40 37 30 41 48 49 51 48 38 45
53 53 52 52 52 53 59 59 58 49 43 49 54 61 61 59 60 56 58 58 51 57 60 56 53 52 53 56 53 54 40 36 32 26 29 22 45 54 52 49 50 51 50 48
53 53 52 52 52 53 60 59 58 48 36 52 57 59 59 58 56 54 55 58 59 60 55 40 38 35 36 43 52 50 50 35 27 26 27 36 46 51 47 43 42 50 47 47
52 52 52 52 52 54 60 56 58 53 42 45 62 57 57 48 47 48 52 59 59 57 38 33 30 29 38 37 43 47 46 39 31 28 21 19 39 52 55 52 31 48 48 44
52 52 52 52 52 53 58 57 59 57 46 55 57 52 52 56 51 45 50 50 49 52 34 33 31 32 45 34 32 28 32 33 26 23 20 31 47 54 55 32 34 46 47 44
53 52 52 52 52 53 57 56 59 57 48 53 58 58 55 56 51 41 49 45 44 36 36 33 32 29 34 36 42 34 30 28 25 30 29 24 52 52 39 43 47 47 45 43
55 53 52 52 52 53 54 56 61 61 54 52 57 58 59 58 57 53 52 49 49 45 38 34 35 33 35 34 30 47 35 38 33 35 33 47 52 49 49 50 46 44 44 47
53 54 52 52 52 53 54 57 57 57 48 51 53 52 58 62 60 61 49 48 56 52 50 40 40 31 37 29 32 36 47 51 37 40 47 50 49 49 49 48 46 47 49 48
52 52 50 51 52 52 54 56 57 54 48 36 47 61 56 63 62 63 60 57 56 52 45 38 36 32 45 33 39 36 44 49 46 40 47 49 49 49 49 47 48 49 51 51
49 48 49 51 52 52 57 57 57 57 52 39 40 56 58 61 60 59 60 56 52 45 38 35 34 35 39 33 35 34 48 45 37 34 47 46 44 47 49 47 48 49 48 48
48 49 50 51 51 51 56 51 55 55 56 44 37 51 53 57 58 57 55 55 52 48 41 35 41 51 41 34 33 46 53 54 53 46 48 47 47 48 49 47 49 50 49 49
48 49 51 51 50 53 50 49 51 50 53 40 37 40 47 52 53 48 50 50 47 47 42 38 36 39 45 34 32 46 51 54 50 50 48 44 46 43 50 52 51 50 49 47
48 50 50 50 48 49 51 51 52 51 51 44 38 38 37 51 37 38 45 38 43 46 41 39 36 39 36 34 43 49 53 53 49 48 48 46 47 49 50 51 48 45 43 42
49 49 51 52 50 46 49 50 49 54 50 38 34 33 32 45 40 38 38 42 34 41 35 36 40 35 35 41 44 48 50 47 46 49 48 48 47 48 47 45 43 41 39 39
49 50 47 40 43 48 49 51 43 41 40 41 36 38 36 42 36 35 35 34 34 33 35 39 33 35 41 45 48 49 48 50 50 45 44 45 43 43 43 42 41 40 38 37
45 40 36 43 48 47 41 37 37 38 35 39 38 37 37 41 34 34 35 33 33 32 31 34 32 32 38 45 46 48 49 50 50 49 48 47 45 42 41 38 36 35 34 34
43 43 45 43 40 36 36 34 34 34 34 35 35 36 40 37 43 35 34 34 33 30 37 33 30 34 42 44 46 48 48 48 48 48 47 45 44 42 38 36 35 34 32 28
43 39 35 37 32 32 32 30 31 32 33 34 34 33 34 36 37 33 33 32 31 34 31 27 30 42 43 44 45 43 43 40 40 43 43 42 41 38 35 32 34 28 32 33
35 33 31 32 30 31 31 32 32 33 33 33 33 32 33 33 33 32 31 31 32 29 25 22 34 41 44 43 42 41 38 34 36 37 37 35 33 32 29 29 27 24 28 31
34 34 30 30 31 32 32 32 33 33 35 34 33 33 34 32 31 31 30 28 27 28 28 31 34 38 39 38 39 36 34 29 32 36 34 29 29 29 32 32 31 32 27 28
35 34 31 32 32 32 32 32 32 35 34 34 34 32 32 30 30 29 29 28 26 30 32 34 35 36 36 37 37 36 36 35 35 35 35 34 29 27 33 32 30 27 29 28
33 31 34 33 33 32 32 33 33 37 34 32 32 29 27 30 28 27 31 29 30 33 33 33 36 36 36 36 37 34 36 36 35 35 35 34 34 29 29 30 34 32 32 29

GFSNW_sfc_temp_024.txt.gz
Temp
50 51 51 52 53 54 57 53 48 60 61 50 45 46 57 58 61 64 62 59 58 56 55 52 50 50 52 57 55 50 51 45 35 46 55 56 52 49 46 31 36 30 28 33
51 51 50 53 54 54 55 52 52 60 59 40 37 52 59 61 59 59 59 57 59 58 53 47 50 50 55 56 54 49 50 43 32 40 47 52 49 51 49 42 34 34 24 32
51 50 51 53 53 55 56 52 44 51 52 51 51 51 53 54 60 59 61 59 60 56 52 53 48 49 55 55 54 50 52 46 40 34 40 46 43 47 47 42 29 32 32 40
50 50 52 53 53 54 56 52 49 52 43 47 50 54 56 54 53 59 60 57 57 54 45 48 46 50 51 55 52 52 49 40 43 45 47 47 45 44 44 43 41 34 38 40
50 51 52 52 52 54 56 54 53 51 48 54 52 49 53 54 56 57 54 53 55 54 48 50 46 50 48 48 50 48 48 36 37 37 44 43 40 44 44 44 45 45 43 39
51 53 52 52 52 54 59 59 58 55 46 48 47 48 54 55 57 57 58 55 49 45 50 51 50 51 52 52 50 45 42 35 31 30 36 36 30 40 45 45 45 45 38 42
53 52 52 51 52 54 60 59 56 48 41 47 50 56 57 55 55 52 55 54 49 54 57 53 52 50 50 51 49 50 38 33 29 25 27 21 42 49 50 46 46 45 44 44
52 52 51 51 52 52 56 57 56 47 35 47 53 55 52 52 52 51 51 53 55 56 51 38 38 34 37 40 46 45 45 32 27 23 26 34 42 47 45 43 41 46 44 44
51 51 51 51 52 53 55 54 55 50 41 43 55 51 53 46 44 45 49 56 56 50 35 32 29 29 35 35 40 45 42 36 29 28 20 19 37 48 52 49 32 47 45 42
51 52 51 52 52 53 56 54 56 54 45 51 53 49 50 51 46 43 46 48 47 48 29 32 26 31 42 32 31 28 30 27 25 17 17 29 42 50 51 32 35 45 45 42
51 51 51 52 52 52 57 54 56 56 45 50 54 54 52 51 47 40 47 45 42 37 32 28 33 25 33 33 39 34 31 28 24 24 18 24 47 48 39 42 44 45 43 43
51 51 51 51 52 52 55 54 57 57 52 51 55 55 55 55 56 50 47 47 45 42 36 35 36 27 34 31 30 43 35 36 32 35 34 45 48 47 48 47 44 43 43 45
52 50 50 51 52 52 56 54 54 53 45 48 51 51 57 60 57 58 48 44 52 48 46 38 33 29 34 30 32 35 44 47 35 38 45 46 48 46 47 46 44 46 48 48
50 48 48 50 51 52 56 54 53 50 44 35 45 58 54 61 59 60 57 54 51 47 43 36 34 30 41 31 37 34 41 46 43 37 44 44 46 45 45 45 46 48 51 50
49 49 50 50 51 52 55 53 52 53 50 39 39 52 56 58 58 57 56 53 49 42 37 34 34 32 36 33 32 32 45 44 37 34 46 45 43 45 46 44 47 50 48 44
49 50 51 50 50 52 54 48 53 52 52 42 36 46 49 53 56 53 53 51 48 45 39 35 38 46 38 34 35 42 48 52 50 45 48 47 45 46 48 48 48 48 44 43
49 50 50 48 49 51 50 47 50 50 50 39 36 35 45 49 49 45 47 47 45 45 38 36 38 37 42 34 33 44 49 51 48 48 47 42 43 43 49 50 48 46 44 42
49 50 50 49 49 51 49 49 49 49 47 41 34 33 36 48 36 37 41 37 41 42 41 39 36 37 35 34 41 46 50 50 46 46 46 45 46 49 48 47 45 41 39 38
50 50 51 50 48 45 48 48 47 51 48 36 33 32 33 43 39 37 36 39 34 39 35 35 37 34 34 39 42 45 46 45 44 45 46 47 48 47 45 43 41 39 38 37
50 48 45 40 43 48 48 47 42 39 41 39 33 38 34 41 34 34 34 34 33 33 35 39 33 35 39 41 44 46 46 47 47 43 42 42 41 41 41 40 41 39 38 36
46 41 37 43 48 45 39 37 36 37 35 38 36 36 36 39 34 34 34 33 33 32 30 31 29 31 36 43 43 45 48 48 47 48 45 45 43 40 38 37 36 35 34 34
45 44 45 43 40 37 36 34 34 34 34 34 35 35 39 36 40 34 34 32 32 29 34 32 30 34 39 41 42 44 46 46 45 45 43 43 42 41 38 36 35 34 33 27
43 39 35 38 33 32 33 32 31 32 33 34 34 34 34 36 37 33 33 32 31 34 32 30 31 41 42 41 42 41 43 40 40 42 42 40 39 38 35 33 34 28 32 32
36 34 31 32 30 30 30 31 32 32 33 33 33 32 33 32 33 32 31 32 32 29 25 22 34 38 40 41 40 40 37 34 36 36 38 36 33 32 29 26 26 23 28 31
34 32 29 28 31 32 32 32 33 33 34 33 33 32 34 32 30 31 29 28 26 28 27 31 33 36 37 36 37 36 34 30 33 35 34 28 27 28 31 31 30 31 27 26
34 33 30 31 32 32 32 32 32 35 33 33 33 31 31 29 30 28 27 27 25 28 31 33 34 36 36 36 36 35 36 36 36 35 35 33 27 25 32 32 29 27 25 27
35 31 33 32 32 31 32 33 33 36 34 31 31 26 25 29 26 27 30 27 30 32 32 33 35 35 35 36 36 33 35 35 34 34 34 34 33 28 27 28 34 32 32 28

GFSNW_sfc_temp_027.txt.gz
Temp
51 51 51 51 54 54 56 52 47 58 58 48 42 45 53 56 58 62 59 57 55 52 51 48 48 48 50 54 53 48 48 43 34 44 52 53 49 45 43 30 34 28 27 32
51 51 51 52 54 56 54 50 50 58 57 39 36 49 56 57 56 57 56 54 55 55 49 45 48 48 52 53 51 48 49 41 32 39 46 50 45 47 43 39 33 32 24 31
51 50 50 53 53 54 55 50 43 49 50 48 49 48 51 52 58 57 57 56 57 53 49 50 46 47 52 52 51 50 51 43 39 34 39 43 40 44 43 41 29 31 31 36
50 50 51 53 53 53 56 50 46 49 42 45 48 51 52 51 50 56 57 54 54 51 44 45 43 47 49 52 51 49 47 39 40 41 43 43 43 43 42 40 39 34 37 38
50 50 53 52 53 53 54 50 48 48 46 50 50 46 50 52 53 54 52 52 51 51 48 49 45 48 46 46 48 45 45 35 37 36 41 40 38 43 41 41 41 41 40 38
50 53 51 51 53 56 53 52 53 52 43 45 45 45 52 54 55 52 54 53 48 44 48 49 48 48 50 50 47 42 40 34 32 29 34 35 30 39 42 43 44 43 34 41
53 52 51 51 53 54 57 54 52 46 38 43 48 53 54 53 53 51 52 53 48 52 53 51 51 48 47 48 46 47 36 31 26 24 26 21 41 45 46 44 44 43 41 41
52 51 51 51 52 53 59 55 53 46 34 45 50 51 49 50 50 48 49 51 52 53 48 38 39 34 37 39 43 42 43 31 26 22 25 34 41 45 43 41 40 44 42 42
51 50 51 51 52 53 57 53 52 50 43 45 53 49 50 44 42 44 47 53 52 48 34 32 29 30 36 34 38 42 39 34 29 26 19 19 37 45 49 47 32 45 43 41
51 51 51 51 51 54 56 54 54 53 44 48 50 47 48 48 44 42 45 47 45 46 28 25 27 31 39 32 30 28 29 25 23 16 17 29 41 47 49 33 35 43 44 43
51 50 50 51 51 53 56 53 54 54 45 48 52 52 50 48 46 41 46 44 41 34 32 28 28 23 32 32 37 33 31 29 27 26 19 26 46 45 38 42 41 44 43 42
50 50 50 51 51 53 55 54 55 54 50 50 53 53 53 52 54 47 45 47 43 42 33 30 31 26 33 29 28 39 32 36 32 34 34 44 46 44 46 45 44 43 43 43
47 48 49 51 52 53 55 53 52 50 44 48 50 49 55 58 55 56 46 42 49 45 43 38 32 28 32 30 31 33 41 44 34 37 44 44 45 46 45 45 44 44 45 46
48 48 50 51 52 53 54 51 50 48 42 35 44 55 53 58 57 56 55 51 47 44 40 35 33 28 38 30 36 33 40 42 40 36 42 43 46 46 45 44 45 46 47 47
49 50 50 51 52 53 54 51 50 51 49 37 37 50 54 54 55 54 53 51 47 41 36 33 34 32 35 34 31 33 43 42 35 35 45 44 44 45 45 43 44 46 46 44
50 50 48 49 51 53 53 48 52 51 49 41 36 45 47 50 52 51 50 49 46 43 39 34 37 43 37 34 35 42 46 48 48 44 46 45 43 43 45 45 47 47 44 44
49 49 48 50 51 50 49 46 48 48 48 39 36 35 43 46 46 43 45 45 43 43 39 35 36 35 40 34 33 44 46 48 48 47 45 40 42 42 46 47 45 45 44 43
50 50 49 49 50 50 48 48 48 48 45 40 33 32 36 45 37 37 41 37 41 40 39 38 37 36 34 33 40 43 46 46 45 44 44 44 45 46 45 45 43 41 39 38
51 50 50 50 47 46 48 48 47 48 46 35 33 32 32 41 38 36 35 39 34 39 34 35 36 34 34 39 41 43 43 43 44 43 43 44 44 43 43 42 40 38 37 37
49 48 44 36 43 49 48 46 40 38 40 37 33 36 33 40 34 34 33 34 33 33 33 39 33 34 38 40 42 43 44 45 44 40 39 39 39 39 39 39 40 40 37 36
44 38 37 44 48 44 39 36 35 37 36 38 36 35 36 39 34 33 32 33 33 31 29 33 31 31 35 39 39 41 42 43 43 43 43 41 38 35 36 36 36 36 35 35
44 42 44 40 38 35 34 32 34 34 34 34 35 35 39 36 37 34 34 30 32 28 34 32 30 32 36 37 38 40 41 41 39 40 38 38 39 40 37 36 35 35 33 27
44 40 36 38 34 33 34 32 32 32 33 34 34 34 33 36 37 33 33 32 30 33 32 30 31 35 38 38 39 38 39 38 38 39 40 39 39 37 35 33 34 29 32 33
36 34 31 32 30 30 30 31 32 32 33 33 33 32 33 32 33 32 31 32 31 29 26 22 32 35 37 38 37 38 35 32 35 35 36 35 32 32 29 27 27 25 28 31
33 33 28 28 30 31 32 32 33 33 34 33 33 33 34 32 31 31 29 27 25 26 22 29 32 33 35 35 35 34 34 30 33 35 33 29 27 28 30 30 29 30 24 24
34 32 30 31 31 31 32 32 32 35 33 33 33 31 30 28 29 24 22 23 20 23 30 33 34 33 33 34 35 35 35 34 34 34 34 33 28 26 32 31 29 25 24 25
33 31 33 32 32 31 32 33 33 36 33 31 30 24 25 29 27 26 30 26 30 32 32 32 35 35 34 35 35 33 34 35 35 34 34 34 32 26 27 28 34 32 31 26

GFSNW_sfc_temp_033.txt.gz
Temp
55 55 53 52 52 53 53 50 47 56 56 49 45 46 51 54 57 59 58 58 55 53 52 50 50 50 54 54 57 54 53 48 43 49 55 56 55 51 49 41 39 36 37 44
54 53 52 52 52 54 51 49 50 56 56 41 39 49 54 57 56 56 57 55 56 55 50 47 50 50 54 54 55 52 52 46 41 45 51 54 52 50 46 43 41 38 36 44
54 52 51 51 52 55 55 50 45 50 50 48 49 49 51 53 56 56 57 54 55 52 50 50 47 49 53 54 54 49 52 46 45 42 46 48 46 46 47 47 39 40 41 46
52 51 51 51 52 54 54 50 47 50 43 46 48 53 52 52 51 57 57 54 54 51 46 47 45 50 51 53 50 51 52 45 45 44 44 46 47 46 45 46 45 43 46 44
51 51 51 51 52 53 52 48 47 46 45 48 50 47 50 52 53 54 53 52 52 54 49 51 46 50 50 50 51 49 48 42 43 41 42 42 43 46 46 45 45 45 45 45
51 50 50 52 53 55 52 51 52 51 41 45 45 46 49 52 53 52 53 54 51 48 51 52 50 50 50 51 49 44 44 40 39 36 37 39 36 43 46 45 46 49 43 52
50 50 50 52 54 55 55 53 52 45 38 43 46 50 53 52 54 51 51 53 51 51 54 53 54 50 48 48 45 47 40 37 34 34 32 31 47 49 49 47 49 49 48 49
49 50 51 51 53 54 55 53 53 46 34 43 47 49 48 49 49 48 49 50 51 53 51 43 42 39 40 41 43 43 44 37 30 33 33 39 48 45 45 44 48 51 50 49
51 50 50 51 52 53 55 53 52 50 41 42 51 48 49 45 44 46 46 51 52 49 39 38 35 36 41 40 41 43 41 39 39 30 32 31 43 49 51 52 41 51 50 46
50 50 50 51 53 53 56 53 53 53 45 49 51 48 48 48 46 43 46 48 48 49 36 34 36 38 41 38 34 32 34 32 33 26 33 37 46 50 52 40 44 47 49 48
50 50 51 52 53 53 57 52 54 54 45 49 52 53 48 48 48 44 47 47 45 39 37 36 36 35 38 39 41 36 37 33 31 27 29 32 48 50 44 50 49 49 49 48
49 50 51 52 54 54 55 53 54 53 50 49 53 54 54 54 55 48 46 50 46 46 39 35 33 33 33 34 36 41 37 41 38 39 40 48 50 50 51 50 50 51 48 49
49 50 51 53 54 54 55 54 52 52 46 49 51 50 55 56 54 55 48 44 50 46 45 38 36 35 36 34 36 38 42 44 40 41 48 46 48 51 50 51 51 52 51 51
50 50 51 52 52 53 55 53 50 50 45 37 46 53 51 54 55 56 54 49 46 45 43 36 34 35 39 35 40 39 43 43 42 41 46 46 49 49 52 51 50 50 50 50
51 51 51 52 52 53 54 51 50 49 52 39 41 49 51 52 53 52 52 51 48 44 39 35 37 36 37 36 36 36 44 44 40 40 48 49 50 52 51 48 49 49 48 45
49 51 52 51 51 52 52 51 51 49 49 44 37 45 45 48 50 49 48 48 46 45 42 35 39 41 40 34 36 44 47 48 48 48 50 50 50 49 49 49 48 46 45 45
50 51 51 52 51 52 49 47 48 47 47 41 36 37 43 44 46 43 44 46 44 45 40 36 38 40 41 35 36 41 44 46 47 49 48 47 47 46 47 45 44 44 43 42
49 50 50 50 50 49 49 48 48 48 45 41 35 34 37 44 39 38 42 40 43 42 40 39 36 38 37 35 38 40 42 43 46 45 46 45 44 44 43 44 42 38 36 35
49 49 49 50 47 45 47 48 48 48 47 36 32 34 34 44 38 37 38 40 36 40 36 37 39 34 32 32 34 35 36 37 39 41 42 42 40 39 39 38 36 33 32 32
50 49 46 39 44 48 48 46 42 40 38 40 33 37 35 42 36 35 35 36 35 36 35 39 34 33 35 35 36 37 37 38 42 40 35 36 34 34 34 34 34 34 34 35
45 41 39 45 47 46 39 35 36 36 34 37 36 37 36 40 36 34 34 34 34 33 35 35 32 30 33 36 36 38 38 38 38 38 36 36 35 34 34 34 34 36 37 36
45 44 45 43 41 37 36 33 34 33 32 34 35 35 39 36 38 36 35 32 33 29 36 33 29 30 35 36 36 37 38 38 37 38 37 37 37 38 37 37 36 36 35 32
45 41 37 39 34 32 29 30 32 32 33 34 34 34 34 36 37 34 34 32 31 35 32 30 30 33 36 36 38 38 38 37 37 37 38 38 37 37 36 34 35 32 34 35
35 34 30 29 32 31 31 32 33 32 33 33 34 33 34 33 33 32 32 32 33 30 28 26 31 34 34 37 36 37 35 30 34 36 36 34 33 33 31 30 30 29 32 32
33 34 28 28 30 32 32 32 33 33 34 33 34 34 35 32 32 31 31 28 25 26 25 30 31 32 35 34 36 35 34 29 33 36 34 29 28 30 32 32 32 31 28 28
34 32 30 31 31 32 32 32 32 35 33 33 34 32 31 29 30 26 26 26 23 27 31 32 32 32 34 34 35 36 36 35 35 34 34 32 29 28 32 31 30 28 28 26
32 30 33 32 32 32 32 32 32 35 33 31 30 27 26 29 26 26 29 26 29 32 33 34 34 34 34 35 35 33 34 34 33 33 32 30 30 28 28 27 29 29 29 27

GFSNW_sfc_temp_036.txt.gz
Temp
52 51 54 54 53 53 55 62 55 64 68 57 60 58 63 59 66 66 67 69 66 63 63 60 61 60 63 65 67 63 63 61 53 58 62 64 63 61 61 51 47 49 48 54
50 51 52 53 52 54 62 60 60 59 62 52 53 61 62 65 65 65 65 64 67 66 62 57 60 61 60 61 64 63 63 58 50 52 58 61 59 61 61 56 54 48 43 54
50 51 52 52 52 54 68 64 52 56 60 65 62 59 60 61 65 65 66 63 65 62 60 60 57 58 59 60 62 49 59 59 56 50 56 60 55 57 59 59 49 52 52 59
51 51 53 52 52 54 63 65 59 64 52 56 62 64 63 61 60 65 67 63 66 63 56 57 56 59 58 59 52 59 62 55 56 55 55 55 56 57 57 56 58 50 58 58
51 52 52 52 52 54 62 61 60 61 62 62 60 56 60 63 61 64 63 63 64 64 60 63 57 60 60 60 59 60 58 53 52 49 52 52 51 57 58 59 59 58 60 58
51 52 52 51 52 53 66 64 64 67 50 59 58 60 61 64 64 59 63 67 63 60 60 62 65 63 64 64 60 56 56 52 49 46 47 48 40 52 58 59 60 59 54 62
52 51 51 51 51 53 73 69 68 62 51 57 60 61 63 64 64 61 60 65 63 58 65 66 65 62 61 60 56 59 51 51 46 43 39 35 57 59 59 59 61 65 63 65
51 51 51 51 52 53 68 67 67 61 42 59 59 61 60 60 61 58 59 58 61 65 62 57 51 50 46 50 53 54 56 51 39 38 43 51 58 56 54 53 57 64 63 65
50 50 51 51 52 54 66 63 65 67 52 52 65 60 62 58 58 56 53 58 62 61 56 51 45 44 51 47 49 52 52 52 49 40 37 36 53 56 59 59 50 61 61 60
49 50 51 51 52 53 65 62 62 69 57 60 63 61 59 63 61 57 55 55 55 58 50 44 46 48 51 47 42 37 42 42 39 40 38 48 58 58 59 45 51 61 60 61
50 50 50 51 53 53 64 60 63 68 57 58 60 61 60 60 64 56 56 57 55 53 47 47 48 44 49 49 52 47 46 42 38 39 36 36 58 56 50 58 61 60 60 61
50 50 50 51 53 53 58 61 62 67 63 58 62 60 62 61 63 63 60 61 59 61 53 48 45 40 38 46 46 51 46 52 51 51 52 58 60 61 63 61 59 61 60 62
49 50 51 52 54 53 59 62 61 65 58 59 63 59 62 64 62 64 61 58 61 59 59 54 49 38 50 38 47 49 53 53 50 49 58 59 60 63 64 64 61 62 63 62
49 50 51 52 53 53 58 64 59 61 57 42 54 63 58 61 64 64 63 61 58 58 60 49 42 42 51 47 51 51 54 53 52 51 58 60 61 61 60 60 61 60 61 59
50 51 52 53 53 53 59 59 58 60 61 45 52 58 58 61 63 62 63 62 61 59 51 42 46 49 48 46 48 48 55 52 49 49 54 54 57 60 59 57 58 58 57 53
51 52 52 52 53 52 67 62 57 59 62 55 44 55 54 58 60 58 57 59 59 61 54 43 51 49 51 39 46 48 51 53 54 52 56 56 56 57 56 54 54 54 53 52
51 51 51 51 52 58 61 59 54 51 58 52 42 47 53 53 56 52 55 56 55 57 48 41 44 46 53 40 46 45 49 52 52 54 54 53 51 49 51 51 50 47 46 44
51 51 51 51 51 54 57 56 50 52 60 58 43 42 48 52 45 43 48 47 54 47 43 43 42 43 44 40 41 44 47 49 50 49 52 50 51 50 48 46 41 37 37 36
49 49 50 58 55 55 56 48 49 58 59 49 38 41 39 49 42 42 45 50 40 46 40 41 47 38 35 35 37 39 40 41 42 47 48 45 43 41 40 38 36 34 34 36
50 56 53 46 50 48 51 58 54 51 49 47 36 43 38 48 42 39 40 41 39 38 39 42 38 32 38 37 37 38 40 45 45 41 36 37 36 36 36 36 38 41 42 43
54 50 45 53 50 57 51 43 44 46 39 42 40 44 40 45 40 37 40 37 38 35 40 39 35 31 34 37 38 42 42 43 44 44 43 43 41 39 37 38 40 41 41 41
51 51 51 52 50 47 38 35 38 39 37 38 38 39 43 40 48 40 39 34 36 32 42 36 32 34 35 37 37 39 41 41 42 44 43 43 43 43 42 41 41 41 39 35
54 50 41 47 39 36 36 33 35 34 35 36 36 36 40 41 45 36 37 33 34 42 34 34 34 35 35 38 40 42 43 42 43 43 43 43 42 41 39 38 39 35 40 40
40 37 34 35 34 35 34 36 36 34 34 36 38 36 37 37 36 34 34 33 35 31 30 30 33 35 36 41 42 42 40 35 40 41 41 38 38 37 35 33 33 33 35 36
38 39 31 31 32 33 33 33 34 34 35 36 36 36 39 34 33 34 34 31 31 33 32 34 35 36 39 40 41 41 39 34 39 42 37 33 33 36 36 36 36 34 31 31
36 35 32 33 33 32 33 33 32 35 35 36 36 34 34 32 34 32 31 31 31 32 34 34 33 37 35 36 39 40 40 40 40 39 38 35 32 32 34 34 32 30 30 29
33 33 34 34 33 32 32 33 33 35 34 33 36 32 30 34 32 30 35 32 35 34 34 35 39 37 36 34 36 35 38 38 38 36 33 32 33 33 32 31 33 32 32 30

GFSNW_sfc_temp_039.txt.gz
Temp
53 53 53 52 53 54 55 61 54 69 70 56 58 57 65 66 71 73 71 71 70 67 68 65 66 65 70 75 74 67 71 66 57 62 69 71 70 66 65 52 52 54 51 55
52 52 52 50 53 54 64 57 59 62 68 51 54 64 66 71 69 69 69 68 72 73 67 61 66 68 66 69 70 68 69 62 53 56 63 67 63 67 67 65 59 52 46 55
52 52 51 51 52 54 64 61 50 51 61 66 61 60 63 63 72 71 72 71 73 68 66 70 64 65 64 66 70 53 62 64 59 52 59 66 59 63 66 63 51 53 56 61
52 51 51 51 52 55 57 59 61 61 52 59 56 65 65 63 62 71 72 69 69 67 61 64 63 67 63 64 54 64 66 58 62 64 64 63 63 63 64 61 61 54 60 62
51 51 51 50 51 54 52 55 65 67 62 63 58 59 63 64 67 68 65 66 70 71 65 65 62 66 65 63 65 65 67 57 59 54 62 61 58 62 64 64 64 64 65 64
51 51 50 50 51 52 53 63 74 70 59 61 60 62 64 66 69 65 72 72 70 67 68 71 72 73 73 71 65 63 62 58 53 48 55 55 43 56 61 64 67 65 57 66
51 50 50 49 52 52 65 68 69 65 55 62 62 66 68 67 68 65 68 74 70 66 74 73 71 70 68 67 64 68 59 57 52 46 41 34 61 67 65 62 66 70 69 70
50 50 50 50 51 52 55 61 70 67 46 64 65 66 66 68 68 67 66 64 70 73 71 61 54 53 51 57 61 62 64 57 45 40 46 55 60 64 60 58 60 68 66 68
49 49 50 50 51 52 53 57 71 73 58 61 70 66 68 63 62 61 58 68 70 67 64 56 50 48 55 52 54 60 59 59 52 45 37 34 56 62 65 64 51 66 66 66
49 50 51 51 51 52 55 62 67 74 65 71 72 65 64 71 68 64 59 60 60 65 54 45 50 51 59 50 46 39 46 45 43 45 41 50 63 64 64 48 51 64 66 66
50 50 50 50 51 52 53 65 70 74 65 65 68 72 70 69 71 59 63 61 60 59 50 50 53 48 54 54 59 51 48 45 40 46 37 37 65 63 53 60 66 66 66 66
49 50 50 50 51 52 53 63 71 75 69 63 67 66 67 67 69 71 65 67 64 66 60 54 53 43 41 52 48 60 51 57 54 55 54 63 66 65 68 67 64 65 65 66
49 50 50 51 51 53 54 69 72 72 63 63 65 63 66 70 69 71 66 66 71 67 69 61 56 41 56 40 52 55 60 61 55 54 62 64 66 67 68 67 64 66 66 65
49 49 50 50 52 53 54 69 71 71 63 46 56 68 63 68 70 70 70 69 67 67 68 55 45 44 60 53 57 57 59 60 57 56 62 63 66 64 63 62 64 64 66 64
50 50 50 51 53 54 60 65 65 69 69 50 54 63 64 68 69 68 69 68 66 64 56 45 50 58 55 54 55 54 62 58 53 52 57 56 59 61 60 60 59 59 60 59
49 50 51 52 53 55 63 61 64 67 73 58 48 61 60 65 67 66 66 68 68 69 57 51 59 57 58 43 50 55 56 57 57 55 59 59 58 57 58 54 54 56 55 54
50 51 52 53 52 63 63 61 60 56 70 56 47 49 58 60 64 60 64 65 62 65 57 47 55 56 59 43 49 51 52 55 57 57 58 53 54 52 53 50 47 46 42 40
51 52 51 51 51 53 61 58 50 58 66 64 45 43 49 59 51 47 58 55 61 53 48 49 46 50 48 46 48 50 51 55 52 54 56 54 54 51 47 48 46 40 37 37
51 51 50 61 62 61 60 48 53 62 62 53 38 40 38 56 49 50 50 58 42 53 42 45 49 42 40 43 44 46 46 45 47 49 49 47 45 46 45 44 44 41 39 42
50 62 65 53 53 49 52 59 59 59 55 52 39 50 43 54 46 42 44 43 42 40 43 49 41 39 44 43 43 44 45 48 47 42 41 42 41 42 43 45 46 46 46 46
63 55 50 57 51 62 55 47 50 53 42 45 44 49 44 51 42 38 44 39 42 36 42 41 37 36 39 40 43 45 48 50 50 50 48 47 46 44 43 43 43 44 43 41
52 55 57 60 57 50 40 37 39 42 39 40 40 42 46 43 53 44 44 37 39 34 47 38 35 36 37 39 41 43 47 48 48 49 47 47 46 46 45 44 43 41 42 36
60 55 42 49 40 37 35 33 35 35 37 38 39 37 42 44 48 39 40 35 36 45 35 36 36 36 37 40 43 46 48 47 46 46 46 46 43 42 41 40 39 38 41 41
48 40 34 35 35 35 35 36 36 35 36 38 40 37 40 40 37 37 34 34 39 32 31 32 35 35 37 44 45 46 43 38 44 44 43 40 40 38 35 34 34 33 35 36
37 40 33 32 33 34 33 34 35 35 37 40 39 39 43 36 35 37 34 32 32 36 34 36 35 38 42 42 44 43 40 36 42 43 37 34 36 39 38 37 37 35 31 31
38 35 32 33 33 32 33 33 33 36 37 41 44 38 37 34 35 33 34 34 34 33 35 36 37 39 41 43 43 44 44 43 42 41 39 35 33 34 37 36 34 32 31 29
36 33 34 34 33 32 32 33 33 36 36 34 37 35 32 37 34 32 36 33 34 34 35 37 38 36 40 41 40 37 41 41 40 38 38 37 37 35 35 34 35 35 35 32

GFSNW_sfc_temp_042.txt.gz
Temp
52 54 54 53 54 54 52 53 47 67 67 51 55 52 60 62 68 74 71 71 69 66 67 64 64 64 69 76 74 65 70 64 54 60 71 73 69 64 64 48 49 52 47 50
51 53 54 53 53 53 51 50 54 63 64 47 50 57 60 65 66 68 68 67 70 72 67 61 66 68 69 72 72 67 70 61 49 55 64 68 63 66 66 64 59 50 41 50
49 53 53 52 53 54 53 52 47 50 56 63 56 54 58 59 70 70 72 70 72 69 65 69 64 66 66 69 70 55 63 63 57 49 57 64 59 62 66 63 47 49 50 57
49 53 53 52 52 53 52 52 54 54 44 52 58 60 61 59 61 70 72 68 68 66 60 64 63 68 63 66 56 65 66 56 61 63 65 65 62 62 64 61 61 51 56 59
50 52 52 52 51 52 49 50 53 60 60 58 57 55 59 61 66 67 64 65 68 69 63 65 62 67 64 62 64 64 67 56 58 55 62 62 58 61 63 63 63 63 63 61
51 51 51 51 51 50 48 56 63 61 54 57 55 57 60 62 68 70 72 70 68 65 69 73 72 74 72 71 64 61 62 56 51 45 55 53 42 54 59 62 65 64 55 64
51 51 51 50 51 50 48 60 60 53 53 58 58 61 63 62 68 62 71 72 68 69 76 74 72 71 69 69 67 69 60 56 50 43 40 35 57 68 66 61 64 67 67 67
51 51 50 50 50 50 48 52 53 54 45 61 61 61 63 66 67 57 68 67 72 74 70 59 52 51 49 56 64 63 66 55 43 38 43 52 58 63 61 58 58 65 64 65
50 50 50 50 50 50 50 48 50 52 53 57 67 64 67 63 58 54 60 68 73 71 62 54 48 45 54 52 54 63 61 60 48 43 37 33 55 62 67 65 48 64 64 63
50 50 50 49 49 50 48 49 52 50 53 68 68 64 64 66 53 49 59 59 60 66 51 42 49 49 61 49 46 38 44 44 40 41 39 47 63 65 65 46 48 63 63 63
49 49 49 49 50 51 49 50 54 51 55 69 72 72 70 65 51 47 61 59 61 58 49 50 51 45 54 54 58 48 44 43 38 44 35 34 66 63 52 58 63 63 63 63
49 49 49 49 50 50 51 49 56 57 56 62 66 66 68 69 65 64 63 65 63 63 58 53 53 41 41 48 46 63 49 56 50 50 49 62 67 64 67 65 63 62 62 63
49 49 49 50 50 50 51 52 56 63 62 60 63 62 67 70 65 69 62 67 72 68 70 59 54 40 54 39 50 54 61 63 55 55 62 64 66 67 64 63 61 63 64 64
49 49 50 50 50 51 51 50 56 63 62 45 56 70 64 70 72 72 72 71 70 68 66 55 43 42 62 51 57 55 59 61 58 57 61 63 62 60 59 61 61 60 62 59
49 49 49 49 50 51 52 54 62 63 64 48 52 64 67 70 70 69 70 69 67 63 54 42 50 58 54 54 55 53 62 58 50 49 57 56 53 57 59 56 55 56 56 52
49 49 49 50 50 51 54 52 65 65 72 57 45 59 62 67 70 68 67 68 68 67 55 52 58 60 56 42 48 57 59 60 59 56 59 58 55 55 54 50 50 49 48 46
49 49 50 50 52 58 54 53 54 51 66 55 44 46 57 64 64 62 64 67 63 64 56 50 54 55 57 42 47 54 56 58 58 58 57 51 55 48 49 47 45 45 45 44
49 50 51 50 50 51 53 55 53 52 66 60 43 39 48 59 51 48 58 56 59 54 49 50 48 50 50 45 51 53 54 55 54 54 56 52 51 50 48 48 46 43 41 41
50 51 51 59 58 56 56 49 51 63 59 49 38 40 38 57 49 48 50 56 41 50 42 45 49 43 41 49 49 48 49 49 49 50 50 49 47 46 46 45 44 41 40 43
52 60 60 47 55 50 52 59 56 54 54 51 41 49 42 51 45 42 44 43 42 40 41 48 41 38 45 46 47 48 49 50 49 43 42 43 42 43 44 44 44 43 42 43
63 56 49 56 51 59 54 47 46 46 41 45 46 49 44 51 42 38 43 39 42 37 42 40 38 37 40 44 46 48 50 49 49 49 48 47 45 43 42 42 43 41 40 37
56 56 57 58 56 47 39 36 40 42 38 40 40 43 46 45 54 43 43 36 40 35 46 37 35 36 41 43 45 48 49 48 47 48 46 46 46 46 44 42 40 38 36 33
61 52 42 49 40 36 36 32 35 34 36 38 40 37 42 44 47 39 39 34 36 46 35 36 36 36 40 42 44 46 47 47 46 45 45 44 41 40 39 36 36 36 37 35
46 39 34 36 33 34 34 35 34 34 35 38 39 37 39 39 36 37 34 35 39 32 32 34 33 35 40 43 45 44 42 38 42 43 41 37 36 34 33 31 32 30 32 33
38 39 32 32 32 33 33 34 35 35 38 39 40 40 42 36 35 37 34 32 31 34 34 34 34 37 41 43 42 40 38 36 39 39 35 33 34 36 35 34 34 32 27 27
36 34 32 33 33 32 33 33 33 36 38 41 44 38 35 33 35 33 33 33 33 32 34 35 36 38 39 40 40 40 42 41 39 37 35 34 33 33 35 34 33 28 28 25
34 32 32 33 32 32 32 33 33 36 37 34 38 34 32 37 34 32 34 31 32 34 34 36 37 36 39 40 39 38 39 40 38 38 37 36 36 34 34 33 33 34 34 26

GFSNW_sfc_temp_045.txt.gz
Temp
52 52 54 54 54 54 52 50 42 57 61 44 45 42 50 54 59 64 61 63 60 58 58 58 56 56 61 67 67 59 58 49 41 49 59 64 62 56 52 35 41 40 33 38
51 52 53 53 53 54 49 46 49 57 58 39 40 48 51 55 57 59 60 60 62 61 57 54 57 58 61 63 63 58 58 49 37 45 53 59 55 58 58 54 44 40 30 38
50 51 52 52 54 54 51 47 41 48 51 53 48 45 48 50 60 59 62 62 63 58 56 59 56 54 61 62 60 53 59 55 47 38 47 53 50 55 57 52 34 39 40 47
50 51 50 52 54 54 50 47 47 52 42 44 49 51 51 50 51 60 62 60 60 57 51 55 54 56 57 61 55 58 57 48 51 53 56 56 55 54 55 55 51 41 47 50
50 50 50 49 53 53 46 44 46 51 48 51 48 49 49 51 56 58 57 57 60 59 55 56 54 57 56 54 55 55 57 46 48 45 55 54 48 53 53 54 54 52 52 51
50 50 49 49 53 52 45 49 52 53 47 48 46 47 52 54 58 60 64 61 58 56 59 61 59 63 61 60 54 51 51 47 39 36 46 46 35 47 51 53 54 52 44 51
49 49 48 50 52 52 48 51 52 48 43 47 48 52 55 55 57 56 63 63 58 61 65 62 60 58 59 59 57 59 49 46 37 32 33 26 48 58 59 54 54 54 55 55
49 48 50 52 52 53 49 49 48 48 36 51 52 53 55 58 60 57 60 59 63 63 61 47 44 41 42 48 56 54 55 42 34 31 30 42 50 54 52 50 47 54 52 54
48 48 50 51 51 51 49 48 48 44 44 47 58 54 57 53 51 48 50 59 58 60 52 42 37 34 44 43 49 53 52 47 36 31 28 24 43 55 59 57 37 54 54 52
48 49 50 50 50 51 49 45 49 44 43 51 59 54 54 56 49 45 48 51 52 54 35 36 33 36 52 38 37 35 33 34 31 26 25 35 54 58 58 37 38 52 54 53
49 50 50 50 50 50 48 46 50 46 45 49 56 63 54 52 49 42 48 49 49 46 40 38 34 34 40 41 47 40 37 33 27 32 31 30 58 55 44 47 52 52 53 52
49 49 49 50 50 50 50 45 51 53 47 48 55 60 59 62 57 53 50 52 51 53 45 41 38 37 35 38 33 51 37 42 37 40 37 50 55 51 53 53 51 52 51 52
49 49 49 50 50 50 49 47 50 50 46 45 48 54 58 63 59 61 50 51 58 57 56 46 41 36 39 32 35 41 50 55 44 45 51 53 52 54 55 54 52 53 52 51
49 49 49 49 49 50 50 47 50 50 46 35 49 62 58 63 63 61 61 60 60 58 52 41 37 36 49 36 44 42 47 51 49 46 49 49 50 51 52 52 52 49 47 46
48 49 49 49 50 50 50 50 51 52 46 43 47 57 62 63 61 60 62 59 56 49 43 36 39 45 42 41 41 37 50 48 38 36 47 46 45 48 50 47 46 48 43 41
48 49 49 50 50 50 50 46 52 54 53 48 40 53 54 61 60 60 59 58 56 51 44 39 46 51 42 34 31 48 50 51 51 47 50 47 45 45 45 42 42 42 41 40
47 48 49 49 49 51 48 49 52 51 51 46 39 41 53 55 54 50 53 54 50 50 45 40 43 44 44 35 33 47 51 51 51 52 49 43 45 40 43 42 42 42 41 40
48 49 49 49 49 50 49 55 51 50 54 48 38 37 43 54 44 40 48 46 46 45 44 43 36 40 35 33 44 48 50 50 48 47 48 45 45 43 42 43 41 38 36 37
49 49 49 49 50 49 52 49 51 53 52 39 35 36 36 50 44 43 44 44 38 45 36 40 40 36 35 42 43 44 47 45 44 45 45 44 42 42 41 40 38 36 35 38
49 52 50 41 49 50 52 54 47 45 44 42 36 42 37 46 38 36 37 36 36 34 36 42 35 33 40 41 43 45 45 47 44 39 38 40 40 41 41 40 40 40 38 36
50 47 43 49 50 52 44 36 36 38 34 37 39 41 39 46 36 35 36 34 33 30 33 33 32 32 38 43 44 44 48 47 46 46 45 44 41 40 38 37 36 34 32 30
52 51 52 50 47 41 35 33 35 33 33 36 36 38 42 39 45 35 36 34 31 28 39 34 29 33 38 41 41 45 45 45 45 45 43 43 43 41 38 36 34 31 30 28
52 46 38 43 36 32 30 26 33 33 34 36 35 34 36 38 39 35 35 34 28 35 34 32 31 37 39 41 43 43 44 43 42 40 39 37 36 35 34 32 33 31 29 29
39 35 33 33 32 31 30 32 33 33 33 35 36 34 34 34 34 33 33 33 35 32 29 27 32 36 39 42 42 42 39 37 37 36 34 32 31 30 30 28 27 27 28 27
34 34 29 29 31 32 32 33 33 33 36 36 36 35 36 33 33 33 32 30 29 28 27 31 34 37 40 39 38 36 34 34 34 35 33 31 31 30 29 29 29 27 22 20
34 32 31 32 32 32 32 32 32 35 34 35 34 33 33 32 32 32 31 27 25 29 31 34 37 37 36 37 37 38 37 34 33 33 33 32 30 29 29 29 27 20 20 16
32 30 32 32 32 31 31 32 33 36 34 33 33 31 30 33 31 28 31 28 30 32 33 35 36 35 34 33 36 35 35 34 33 33 32 31 32 29 29 27 29 28 27 16

GFSNW_sfc_temp_048.txt.gz
Temp
52 52 51 53 54 54 51 46 40 53 59 43 43 43 49 52 55 59 56 57 55 54 54 52 52 53 58 61 60 54 55 47 39 49 59 59 54 49 50 35 39 37 31 38
52 52 52 51 54 54 48 43 46 53 56 38 37 46 50 52 53 55 55 55 57 59 53 50 54 54 59 58 59 54 55 45 36 43 52 55 50 53 54 48 41 37 30 37
51 51 52 51 53 54 50 45 39 45 49 49 45 43 44 45 55 54 56 54 56 54 53 56 53 54 57 57 58 53 57 49 43 36 45 50 46 53 53 48 33 37 38 45
51 51 51 51 53 53 48 43 43 46 40 43 45 47 46 45 45 55 57 54 54 51 49 51 50 52 55 56 55 55 54 46 49 50 52 52 51 51 51 48 47 40 45 46
50 51 51 51 52 52 45 40 42 46 44 48 45 46 44 46 49 52 53 51 54 54 52 53 51 54 52 52 53 53 54 45 46 44 50 51 46 49 48 50 50 49 48 46
51 50 50 49 52 51 43 48 48 48 46 46 43 43 46 48 52 54 58 57 55 52 55 59 58 60 58 57 53 49 49 44 37 36 42 43 34 45 49 49 49 51 42 48
49 49 49 49 51 50 47 50 46 45 40 45 44 47 49 50 52 50 57 60 55 58 60 58 56 55 56 55 52 54 45 42 35 30 32 25 46 54 53 48 49 50 51 50
49 49 49 49 50 48 47 48 47 44 37 47 48 48 49 53 55 53 56 58 61 61 55 46 43 38 42 46 52 51 52 39 33 30 30 39 47 52 50 46 43 49 49 50
47 48 49 49 50 48 48 49 48 44 41 44 53 49 51 48 48 48 51 56 56 56 45 38 36 33 41 41 45 50 47 43 36 29 28 25 42 51 55 53 35 51 50 49
48 49 49 48 49 48 49 47 49 45 40 46 52 49 48 54 47 45 47 51 49 50 34 34 33 34 47 36 36 36 33 33 30 24 26 33 47 55 55 38 38 50 50 49
48 49 48 49 48 50 50 44 49 45 41 46 50 51 51 55 52 44 46 47 46 41 36 37 35 31 39 38 44 39 38 32 27 29 25 30 52 52 45 45 48 49 49 49
48 48 48 50 51 51 49 42 49 50 44 45 50 51 53 52 60 49 47 49 48 48 43 39 37 36 33 36 33 46 38 41 36 38 36 47 49 49 50 50 49 48 47 49
47 47 49 49 50 51 48 43 46 47 43 45 47 48 56 59 59 58 47 47 54 51 51 45 41 37 37 33 33 40 46 50 42 42 45 46 48 49 50 49 45 46 47 47
48 49 49 49 50 50 49 43 47 47 46 36 43 57 54 59 58 58 58 57 55 53 49 41 38 36 46 34 43 41 46 49 44 40 44 47 46 46 46 45 44 43 43 43
49 49 49 49 49 50 47 46 48 50 47 39 41 53 58 58 59 58 59 58 52 45 40 36 39 42 42 38 39 36 47 46 38 35 46 43 42 43 46 43 42 42 40 38
48 48 49 49 49 49 46 41 48 50 51 43 36 51 52 55 56 56 55 55 51 49 45 39 45 49 41 34 31 45 47 48 48 43 46 43 41 42 43 40 40 40 39 38
48 48 49 49 49 46 44 42 48 51 51 43 37 40 50 53 52 49 51 52 47 49 44 40 42 43 42 33 33 44 46 47 46 45 44 39 41 37 40 40 39 40 38 38
47 48 48 48 49 49 46 50 51 51 47 46 37 38 42 51 43 43 48 44 45 44 43 40 34 39 33 33 42 45 45 45 45 43 44 42 41 40 39 40 39 36 34 34
48 48 48 48 47 45 46 50 49 50 48 40 34 36 36 47 42 41 41 42 37 43 36 37 39 34 31 39 42 42 44 42 40 41 41 40 38 38 38 37 36 34 32 33
47 47 46 39 45 50 51 49 45 44 43 41 35 40 37 43 36 36 37 36 35 34 36 41 33 33 38 39 40 42 43 43 42 36 34 36 36 37 36 36 36 35 33 31
47 46 42 49 49 48 44 37 35 37 33 35 39 40 39 44 36 34 34 34 31 31 35 34 33 32 37 41 43 45 46 45 44 42 42 42 41 38 36 34 33 31 30 30
50 49 49 48 45 38 36 33 33 34 32 36 36 37 41 38 42 35 35 33 30 29 38 34 29 34 39 42 42 44 45 44 43 43 42 41 40 38 35 33 30 29 30 28
49 44 38 42 34 32 25 25 31 32 33 35 34 34 36 38 40 34 34 28 28 34 32 26 31 36 38 40 42 41 42 40 39 38 38 37 36 35 32 29 29 29 29 27
38 33 31 31 30 30 30 31 32 33 33 34 34 34 35 33 34 33 33 33 34 26 26 26 32 36 39 40 40 38 36 34 34 34 33 32 31 29 30 29 28 27 27 26
32 34 28 28 31 32 32 33 33 33 35 34 34 34 35 33 33 32 32 30 29 26 26 31 34 37 38 36 36 34 33 32 32 32 30 29 29 29 29 29 29 27 24 21
32 31 31 32 32 31 32 32 32 35 33 34 34 32 32 31 32 31 29 26 28 29 31 34 37 36 35 35 35 34 33 33 32 32 31 30 29 28 29 28 26 22 21 19
31 29 32 32 31 31 31 32 33 35 34 33 31 31 29 32 30 28 30 27 29 31 33 34 35 34 33 33 33 33 33 33 32 32 31 30 31 29 28 26 27 28 25 19

GFSNW_sfc_temp_051.txt.gz
Temp
53 51 53 52 53 53 51 42 36 51 56 43 43 40 47 51 54 55 53 52 51 50 50 49 49 50 55 59 56 52 52 45 38 47 54 55 51 49 47 34 37 34 30 37
52 51 52 53 52 53 47 40 43 53 54 38 39 44 47 50 52 51 51 51 52 53 49 46 50 52 57 57 56 52 52 43 35 42 48 50 47 50 50 45 38 35 29 37
51 50 52 53 52 53 49 42 35 44 48 50 45 42 43 44 54 50 52 51 52 50 49 52 50 51 56 56 56 52 54 46 43 37 44 48 45 49 49 46 32 36 36 43
51 50 52 53 52 52 47 42 38 44 38 41 45 47 44 43 45 50 53 48 49 48 44 48 48 50 52 54 51 53 52 44 45 47 49 50 50 48 47 46 45 39 43 43
50 50 51 52 51 50 43 39 38 42 40 45 45 45 43 43 47 48 47 48 51 52 47 50 47 51 50 51 51 51 51 42 43 39 46 48 45 49 49 48 47 46 45 45
50 50 51 51 51 49 42 45 46 42 43 42 40 43 44 45 49 50 53 52 51 49 51 55 56 57 55 55 51 47 47 42 38 36 41 41 34 43 48 48 48 48 41 48
49 49 50 51 52 50 46 46 45 41 34 41 42 45 48 46 48 46 52 55 49 54 58 56 54 52 52 52 50 51 43 40 34 30 32 25 45 50 51 47 45 46 47 47
49 49 50 50 51 51 45 46 45 43 31 43 44 45 46 48 50 48 50 54 58 58 55 47 43 38 41 44 48 48 48 38 32 30 29 38 44 47 46 45 42 47 45 46
49 49 50 50 50 51 46 45 46 44 40 42 50 46 47 43 43 44 49 55 56 55 44 37 37 35 40 39 43 47 45 41 36 28 27 25 41 49 53 50 35 49 48 47
49 49 49 49 50 51 47 46 48 45 39 46 50 45 44 49 46 42 44 50 49 51 35 33 32 34 45 36 36 35 33 32 32 25 27 34 45 51 52 38 39 48 48 47
48 48 48 49 49 49 46 44 49 45 40 43 48 47 46 50 49 42 44 46 45 41 37 35 32 29 38 37 42 39 38 32 27 28 25 30 49 49 43 45 45 47 47 47
48 48 48 49 49 48 48 43 49 49 42 43 49 49 50 48 48 48 45 46 46 46 41 37 35 33 30 36 33 44 38 41 37 39 36 45 46 48 46 47 48 46 47 46
48 48 48 48 49 49 47 45 47 46 41 41 43 45 52 54 52 54 46 45 51 48 48 41 39 35 37 32 33 38 44 47 39 40 43 43 44 45 45 46 45 45 47 45
48 48 48 48 49 49 49 46 47 46 45 36 42 55 54 56 55 54 55 55 51 50 46 38 36 34 44 33 41 41 46 47 40 38 41 44 44 42 42 41 42 41 42 42
47 47 47 48 49 49 47 47 47 48 42 38 41 50 54 55 54 55 55 54 49 44 39 35 37 41 41 39 40 37 46 44 39 36 45 43 41 42 43 41 39 40 39 38
45 48 49 49 48 48 46 40 45 48 49 43 35 47 48 52 53 52 51 52 48 46 42 38 43 46 42 36 37 47 46 48 49 46 49 42 41 40 41 39 39 39 38 38
48 48 49 49 48 44 40 40 45 50 50 43 36 37 46 52 49 47 48 48 45 46 42 37 40 41 41 29 33 43 44 44 43 43 43 38 39 35 39 38 38 38 37 36
48 48 48 48 49 47 41 47 49 50 45 45 35 36 39 50 43 42 46 43 44 45 41 39 35 39 31 34 39 42 43 43 42 41 42 40 38 38 37 38 37 35 33 33
48 48 48 46 44 38 44 49 50 50 44 36 34 34 34 46 42 41 40 44 36 43 37 38 41 34 34 36 39 41 42 41 37 38 38 38 36 36 36 36 34 32 30 31
48 47 43 38 41 49 49 47 43 43 43 43 35 40 37 44 36 36 35 36 35 34 37 41 35 34 39 38 41 41 40 39 39 34 32 34 34 34 34 34 36 34 31 30
44 41 39 47 49 47 41 35 35 36 33 36 38 39 39 43 36 35 35 33 33 33 35 36 33 32 36 40 41 42 42 42 41 41 40 39 38 36 34 32 32 31 31 30
46 47 49 48 45 38 34 32 33 33 32 35 36 37 40 38 41 34 34 33 30 31 37 34 31 33 39 40 40 42 43 42 42 43 41 40 39 37 34 32 30 30 30 27
48 43 37 39 34 32 29 29 30 30 33 35 34 34 34 37 38 32 30 26 27 34 33 32 30 35 39 40 41 40 42 41 40 39 38 36 34 34 32 29 29 29 28 28
37 35 30 31 29 29 30 31 32 32 32 33 34 33 34 33 33 32 26 32 33 22 21 24 32 36 38 38 38 37 35 34 34 34 33 32 30 29 29 29 28 27 27 26
33 34 27 29 31 32 32 32 33 33 34 34 34 34 33 33 32 31 31 30 28 23 23 30 34 36 36 35 34 33 32 32 32 32 30 29 29 29 28 29 29 26 23 21
33 31 30 32 32 31 32 32 32 35 33 32 32 29 27 31 30 30 27 22 22 28 31 33 35 34 34 33 33 33 32 32 30 30 30 30 28 28 28 27 25 23 21 19
31 29 32 31 31 30 31 32 32 35 34 32 30 30 29 32 29 27 29 26 29 31 32 34 34 33 32 32 32 31 31 30 30 30 30 30 29 27 26 25 25 26 23 19

GFSNW_sfc_temp_057.txt.gz
Temp
52 52 53 53 52 53 50 43 34 47 53 39 41 39 46 49 52 55 52 52 50 49 49 47 48 49 55 58 57 54 56 50 43 51 56 58 56 54 52 44 42 40 39 44
52 52 52 52 52 52 46 39 40 48 50 33 37 45 46 50 49 51 50 49 52 53 50 46 49 50 56 54 56 54 54 47 42 46 52 54 53 53 51 48 44 41 38 46
52 51 52 52 52 53 47 39 33 40 43 47 42 41 42 43 52 50 52 50 51 51 50 51 49 50 55 54 57 51 56 48 47 44 49 52 47 49 51 51 42 44 44 50
51 51 51 52 52 52 46 39 36 42 34 37 40 44 44 43 43 50 51 48 48 48 46 47 47 52 53 54 51 54 56 48 48 50 51 51 52 51 49 49 51 46 51 47
51 50 50 51 52 52 42 36 36 40 41 42 39 42 41 43 46 47 46 46 48 50 46 48 45 50 52 51 52 51 53 47 46 46 48 50 48 51 50 50 50 50 50 49
51 50 50 50 51 50 41 43 42 44 42 40 37 39 43 44 48 49 51 50 48 46 50 53 55 55 55 55 54 49 48 44 42 41 45 46 39 47 49 50 52 53 46 55
50 50 49 50 52 50 45 45 42 39 34 39 38 42 46 45 46 44 50 51 48 52 58 57 55 53 52 51 50 53 46 44 40 37 37 33 52 53 54 52 53 54 52 54
50 49 49 50 51 52 46 46 43 41 31 41 42 42 44 47 49 47 48 52 54 56 55 46 43 41 43 45 49 48 50 42 36 35 38 43 49 51 51 50 54 54 54 53
49 49 49 50 51 51 48 45 45 42 39 38 46 43 44 41 42 42 46 53 55 54 43 39 36 36 42 42 44 48 44 44 42 35 35 33 47 54 55 57 45 55 54 50
49 49 49 50 51 50 48 43 46 43 40 42 46 42 42 48 43 40 43 48 48 52 37 35 35 37 46 40 37 37 38 37 38 33 37 41 49 53 55 44 50 53 54 53
48 49 50 50 50 50 48 44 46 44 41 42 46 44 44 47 47 39 43 44 44 40 36 36 37 34 40 42 44 41 41 37 35 35 34 37 52 52 48 54 52 53 52 52
48 49 49 50 51 50 49 42 47 47 42 42 47 48 48 49 55 48 45 46 44 45 40 38 38 35 34 41 40 45 40 45 42 44 45 53 54 56 55 53 55 51 53 52
49 49 50 49 50 50 49 43 44 44 41 41 43 44 51 50 49 52 44 45 50 47 49 43 42 37 40 35 38 43 45 48 45 47 49 50 51 51 50 52 53 52 52 50
48 48 48 49 49 50 48 42 45 43 42 34 40 51 48 53 52 51 53 52 51 50 48 40 37 38 45 40 47 44 48 48 45 44 48 48 51 50 50 48 48 46 47 47
47 47 48 49 50 49 45 43 44 45 40 34 39 47 49 52 51 50 51 51 50 46 42 37 39 43 42 40 42 41 49 47 44 44 52 52 54 52 48 46 46 46 43 41
47 48 48 49 49 47 42 37 44 46 47 38 33 45 47 50 50 51 49 50 49 48 45 40 44 47 45 37 40 50 52 51 53 53 52 44 43 43 46 44 43 43 43 42
47 48 48 48 48 44 38 36 43 47 45 39 33 36 44 47 50 49 49 51 49 48 45 40 44 44 46 36 41 50 49 50 47 46 46 42 43 43 42 41 41 41 41 41
47 47 47 48 48 47 41 45 48 48 43 43 32 33 39 48 43 42 47 44 45 44 43 39 41 41 38 36 44 44 44 44 43 44 43 45 41 40 38 39 39 36 35 35
46 47 47 44 42 35 40 48 48 47 44 35 34 32 34 45 41 41 41 42 36 43 37 39 42 37 37 43 43 43 42 43 40 39 39 39 39 37 37 37 37 35 34 35
48 45 40 35 40 47 47 45 40 41 41 41 35 38 35 43 38 37 37 37 36 34 38 41 36 38 41 41 43 44 41 40 39 35 33 34 34 35 35 36 37 36 35 35
43 39 36 41 47 43 39 35 34 35 33 37 38 36 37 43 39 35 35 34 34 33 37 37 36 35 41 42 41 42 42 41 42 42 40 40 37 35 34 34 35 35 35 33
43 43 45 43 41 35 32 32 33 34 32 35 35 37 40 38 42 38 35 33 33 32 37 33 33 36 38 40 39 40 41 41 40 41 39 38 37 36 34 33 32 31 30 28
44 42 36 37 33 29 30 28 31 32 33 35 35 34 36 37 38 34 33 31 31 35 32 32 32 36 37 38 38 38 39 38 37 35 34 34 33 34 32 29 29 29 27 27
35 32 29 30 28 29 29 32 32 32 33 33 34 33 34 33 33 33 32 32 32 31 30 28 32 33 35 37 37 36 33 33 32 32 32 30 30 29 29 28 28 26 26 27
32 32 28 29 32 32 32 32 33 33 34 33 34 34 35 32 32 32 32 31 27 27 26 30 32 34 34 33 33 32 31 30 30 29 28 27 27 26 26 27 28 27 25 24
32 28 26 29 29 27 29 29 30 33 32 33 34 32 32 31 31 30 27 28 24 27 30 32 32 32 32 31 31 31 30 29 28 28 28 27 26 25 26 26 25 24 24 23
30 27 28 26 27 26 27 28 29 33 33 31 32 26 25 31 28 25 28 25 27 29 30 31 31 30 30 30 30 29 29 28 28 27 27 26 28 27 26 24 25 25 23 21

GFSNW_sfc_temp_060.txt.gz
Temp
53 53 53 53 53 53 51 43 34 55 55 36 39 39 51 54 57 61 57 56 54 54 56 55 57 58 63 70 69 61 67 62 54 58 64 66 67 63 62 52 49 52 50 52
52 52 52 52 52 53 49 39 39 52 54 31 34 46 49 55 55 57 55 53 56 58 55 52 58 60 67 67 68 64 65 58 50 53 58 62 61 63 64 61 57 52 46 54
53 53 52 52 52 53 51 39 33 39 42 52 42 42 46 47 57 57 58 55 57 54 53 58 55 57 59 63 68 56 63 62 56 49 56 63 57 60 63 60 51 54 55 58
52 52 52 51 51 52 48 40 40 42 32 39 46 47 48 46 47 55 57 54 54 53 49 52 53 57 58 60 55 64 65 56 59 62 64 64 62 62 62 59 60 54 59 61
52 52 52 51 51 51 43 37 46 47 46 46 45 45 44 47 50 52 51 52 54 54 50 53 50 55 58 58 59 61 63 56 59 55 62 61 58 62 63 63 63 61 62 61
52 52 51 50 50 50 41 43 57 52 46 44 41 45 44 49 53 55 57 55 52 50 54 58 60 60 60 60 58 58 58 57 53 49 56 55 44 56 61 62 63 63 58 66
52 52 51 50 50 50 52 46 54 46 42 43 41 46 48 49 52 50 55 58 53 57 62 62 61 59 59 60 60 62 55 56 54 48 43 36 59 64 68 63 66 68 68 68
51 51 51 50 50 50 50 49 50 49 40 48 46 45 47 52 54 52 54 56 61 62 57 50 47 48 50 54 58 58 60 55 46 41 45 55 56 58 59 59 62 70 68 71
51 51 50 49 50 50 48 49 56 52 46 45 53 44 48 47 49 50 54 61 62 59 50 48 42 41 49 48 49 54 55 55 52 44 42 37 57 67 69 67 53 72 70 69
50 51 50 49 49 51 48 50 55 52 46 54 54 46 46 54 52 48 52 53 54 58 46 40 42 43 54 46 44 39 44 45 43 45 43 53 63 64 66 50 56 71 71 70
50 49 49 49 49 50 50 48 55 53 49 52 51 55 51 54 53 46 53 51 51 48 43 44 45 42 50 50 55 48 47 44 41 46 40 39 61 61 58 67 66 70 68 68
49 49 48 48 49 50 50 44 52 56 52 47 51 51 56 61 61 56 55 55 54 54 49 48 50 42 43 51 44 56 47 53 51 51 54 63 64 70 71 68 71 66 68 67
48 48 48 49 50 50 49 48 51 50 48 49 49 45 54 57 59 67 54 57 60 56 62 53 51 43 53 42 47 52 54 54 50 52 64 62 63 68 64 66 66 66 67 65
48 48 48 49 48 48 51 50 52 52 46 40 45 56 48 58 59 59 61 62 61 60 57 52 44 44 57 51 55 54 61 56 56 58 63 58 60 64 68 63 61 61 64 63
48 48 48 49 48 49 48 50 51 54 47 38 45 53 56 54 57 57 59 59 59 56 50 41 43 55 52 51 50 51 59 58 51 53 66 62 69 66 68 63 61 61 60 58
47 48 48 48 48 50 48 39 51 54 53 45 36 50 52 55 52 53 57 58 57 57 55 49 56 59 55 45 48 60 65 65 66 64 67 67 56 55 61 61 61 60 58 59
47 47 47 48 49 50 46 44 50 52 54 45 39 40 51 54 53 52 52 55 55 55 53 52 54 54 52 46 45 59 64 66 67 63 58 57 55 60 54 55 57 53 57 56
48 48 48 48 49 50 48 51 50 53 49 43 35 37 40 52 47 44 54 50 49 49 50 52 51 55 50 43 56 61 64 64 58 58 58 57 56 54 52 53 51 49 49 49
48 48 48 49 48 44 47 47 49 54 48 38 34 33 34 45 44 44 43 45 38 45 39 47 49 48 42 53 57 58 59 57 61 57 53 52 51 51 49 48 48 48 44 45
48 49 43 36 45 46 48 43 39 40 45 42 35 41 33 42 40 39 40 43 41 36 38 46 37 45 56 60 58 59 58 58 53 48 45 47 47 47 47 47 48 47 45 44
44 40 40 46 47 43 41 35 33 37 34 42 41 39 38 46 42 39 43 36 36 35 37 39 38 39 48 47 53 54 53 52 52 52 51 51 50 47 44 43 44 43 42 40
44 45 50 45 40 39 33 33 36 37 37 42 39 41 47 43 50 46 40 36 36 35 38 34 35 37 39 42 45 47 48 48 47 48 46 46 45 45 43 40 39 37 34 31
46 46 40 39 35 29 30 27 33 34 37 38 37 37 43 44 47 37 37 34 33 36 34 34 32 35 37 39 39 38 40 39 37 36 37 36 35 35 34 31 31 30 30 30
37 34 31 32 30 31 31 34 36 34 36 37 38 36 39 37 37 36 34 35 35 32 32 29 33 34 35 35 35 34 32 32 32 31 31 30 30 29 29 29 29 28 28 28
32 32 27 30 32 32 31 33 34 34 35 36 35 36 41 34 34 35 34 32 30 30 28 31 32 33 33 32 32 31 30 29 29 29 28 28 29 28 28 28 28 28 27 26
32 28 25 28 28 27 28 29 30 33 33 35 35 33 34 32 34 31 28 30 25 28 30 32 33 31 31 30 30 29 29 29 29 30 30 29 27 27 27 27 27 26 26 25
30 26 27 26 26 25 27 29 28 32 32 32 33 28 27 33 29 26 29 25 28 30 31 32 32 30 30 30 30 29 30 29 29 28 28 28 29 30 29 26 27 27 26 25

GFSNW_sfc_temp_066.txt.gz
Temp
53 53 53 53 53 53 50 44 35 54 58 37 39 35 44 51 55 61 58 60 61 60 61 59 58 57 62 70 66 61 66 61 53 60 70 72 69 63 63 51 50 53 47 51
52 53 53 53 52 52 47 39 39 52 54 32 33 43 46 50 52 57 58 55 62 64 59 55 59 61 67 67 64 59 64 57 50 52 62 67 63 66 66 64 61 52 42 51
52 52 52 52 52 52 48 39 32 41 43 49 43 41 43 44 53 55 59 58 61 59 55 62 56 59 62 63 65 59 61 62 57 48 54 62 58 63 65 62 49 52 54 57
51 52 52 52 52 52 47 39 37 44 34 37 44 46 48 45 45 54 58 55 55 55 52 55 56 61 60 62 60 62 64 55 60 62 64 64 63 62 63 60 61 53 58 60
52 52 51 52 52 52 44 33 45 49 48 42 42 43 44 47 49 52 50 51 56 53 53 57 55 60 58 55 61 59 62 55 58 55 63 63 60 64 64 64 64 63 64 63
51 51 51 50 51 51 43 42 54 49 43 42 37 41 45 48 53 55 58 57 56 51 52 53 61 59 61 60 58 57 57 53 52 46 59 59 48 59 64 65 67 66 58 66
51 51 50 50 50 50 46 45 54 45 41 41 42 45 48 49 52 51 57 59 56 61 65 59 57 60 59 59 59 60 54 55 52 44 43 37 58 70 69 64 67 70 70 72
50 50 50 50 50 50 45 51 52 46 39 48 46 47 49 51 55 53 55 60 65 60 53 45 47 46 48 53 58 57 59 53 43 41 43 52 59 64 64 61 61 71 69 72
50 49 50 50 50 51 47 49 56 53 44 44 52 48 51 47 49 51 55 62 65 59 50 39 40 37 46 47 48 58 58 57 48 44 40 36 54 67 72 70 51 70 72 70
50 49 50 50 51 51 46 47 54 51 44 51 51 47 47 55 53 50 54 54 54 60 44 36 40 42 53 42 40 38 43 46 43 42 41 49 63 67 70 50 52 70 73 72
49 49 50 50 51 50 47 47 53 50 45 49 51 54 52 55 55 47 54 51 46 49 43 42 44 42 48 48 53 47 43 42 41 43 39 38 67 66 56 62 67 72 72 71
49 49 50 50 51 50 50 45 51 54 48 47 55 53 57 63 64 58 56 52 48 55 49 49 51 44 45 49 40 57 42 51 48 51 50 64 63 64 66 69 68 68 70 72
48 49 50 51 50 50 50 47 49 50 45 45 48 49 60 65 65 68 53 57 55 56 62 55 54 46 53 41 47 51 56 57 48 46 61 65 66 66 68 69 68 73 73 73
49 50 50 50 50 50 50 47 51 53 46 38 44 60 57 63 64 64 62 57 59 54 61 53 50 45 58 48 54 52 58 58 54 51 59 60 64 65 66 67 69 71 72 70
49 50 50 49 50 49 49 50 52 55 47 39 43 56 60 61 60 58 58 56 54 49 46 48 47 55 55 56 57 51 62 59 52 51 62 60 62 64 66 65 67 70 69 67
48 49 48 48 49 48 46 40 48 52 50 43 38 53 53 56 57 56 53 53 52 51 49 48 55 62 56 45 47 59 63 65 66 61 66 65 67 67 66 63 65 69 67 68
48 48 49 49 49 48 45 44 50 52 55 50 43 44 53 55 54 53 53 52 47 48 46 49 53 55 55 46 44 59 64 67 68 69 66 63 66 62 63 63 65 64 68 67
47 48 48 49 49 49 48 52 53 53 55 53 40 40 45 54 47 45 54 48 49 50 49 53 51 55 53 45 56 60 63 64 64 65 66 65 65 66 63 63 63 60 61 62
48 48 48 49 47 46 49 50 52 59 52 43 37 38 36 52 49 49 48 51 42 52 45 47 49 48 43 51 56 57 58 59 58 62 65 63 62 61 61 60 58 56 56 57
49 51 49 39 46 48 49 51 48 49 50 49 39 48 39 46 41 42 40 42 41 39 45 52 43 44 53 46 51 52 54 56 57 55 54 55 56 57 57 56 56 57 55 54
50 43 38 48 48 49 46 38 40 42 37 44 45 46 42 45 36 34 37 33 36 34 42 41 40 40 36 39 42 44 48 51 54 55 56 55 55 54 52 44 39 38 38 36
46 48 51 48 45 39 34 34 39 39 37 44 43 43 44 38 43 38 38 34 35 33 43 37 32 32 35 35 36 36 40 42 41 44 43 43 42 41 38 36 33 32 31 30
54 51 40 41 37 30 31 28 33 35 41 42 40 36 40 40 42 35 35 33 33 38 34 29 29 32 34 33 33 32 33 34 33 32 33 33 32 32 30 28 28 28 27 27
41 35 30 31 30 30 29 29 30 33 34 36 42 38 38 37 34 33 32 33 32 33 31 27 30 31 32 32 31 31 29 29 29 29 29 29 29 28 29 29 28 28 26 27
33 35 27 28 31 32 31 32 32 32 32 34 38 36 37 33 32 32 33 32 28 28 26 29 31 32 32 31 31 31 30 30 29 30 29 28 29 28 27 28 28 27 25 25
34 30 27 29 30 28 29 29 29 32 30 32 36 33 33 32 33 30 26 27 21 25 28 30 31 30 31 30 31 30 30 30 30 29 29 28 28 27 27 28 27 27 27 26
30 27 29 27 27 25 28 29 29 31 29 32 36 28 27 35 30 24 26 23 25 27 28 29 30 30 30 30 30 30 30 29 29 29 29 28 28 29 28 25 25 26 26 25

GFSNW_sfc_temp_069.txt.gz
Temp
53 53 53 53 53 53 50 44 34 50 54 36 37 33 39 45 47 52 49 51 49 47 48 47 52 52 56 64 61 56 59 52 44 50 62 68 63 56 54 40 43 44 36 40
52 52 52 53 53 53 48 40 39 49 50 31 32 40 40 43 44 46 47 47 51 54 49 43 52 55 61 62 59 53 56 47 38 45 56 63 58 58 60 56 50 42 32 40
52 52 52 52 53 53 48 38 32 39 42 43 37 36 37 38 46 46 49 48 50 49 47 51 49 50 58 58 60 56 57 52 47 40 46 56 51 57 59 54 38 42 41 49
52 52 52 52 52 52 48 37 35 39 33 34 38 40 41 37 38 46 49 46 45 45 43 44 46 49 51 58 54 56 54 45 50 51 57 58 57 56 57 55 54 44 49 52
51 52 52 52 52 52 45 32 36 41 38 41 37 39 37 39 41 45 41 41 45 49 45 46 42 45 49 46 58 53 54 45 50 48 56 58 54 57 58 58 56 54 57 54
51 51 51 51 51 51 45 40 45 44 40 39 34 35 38 40 45 47 51 47 46 45 47 51 50 49 51 50 50 50 50 48 45 40 51 52 40 52 53 58 59 57 49 56
50 51 50 51 51 50 43 41 45 39 34 36 37 40 41 41 45 42 50 51 47 52 59 53 52 51 49 52 51 54 48 49 44 38 40 34 50 62 62 58 61 61 59 60
50 50 50 51 51 51 46 43 45 40 33 41 40 41 41 44 46 45 48 52 56 55 52 45 41 39 41 45 52 51 53 47 36 37 38 46 52 58 57 55 54 61 59 61
50 50 50 50 51 51 47 44 46 44 38 39 47 41 44 39 40 41 45 54 56 52 43 38 32 31 39 41 45 53 53 49 40 35 34 33 47 58 64 62 43 61 61 60
49 50 50 50 50 50 47 43 46 44 39 44 49 43 42 48 44 41 44 46 46 50 35 34 30 30 44 37 36 36 35 37 34 32 33 41 56 61 63 43 42 61 62 61
50 50 50 50 50 50 47 44 47 44 42 44 49 51 47 48 47 39 43 43 42 37 36 35 32 28 40 40 44 40 37 35 34 34 34 33 60 59 51 53 59 61 58 60
49 50 50 50 49 50 48 41 49 50 44 44 50 50 51 49 49 48 47 45 43 41 38 40 38 33 32 40 30 48 37 43 40 43 40 54 58 56 60 62 61 60 59 59
49 48 49 49 50 49 48 45 47 47 43 41 42 43 53 58 55 55 45 45 48 46 49 43 41 36 39 32 37 42 49 53 44 46 51 50 52 55 60 63 61 64 62 61
49 49 49 49 49 49 50 46 47 47 43 34 40 53 49 58 57 56 54 51 50 50 47 42 38 33 47 36 43 42 48 52 48 46 52 53 55 54 60 61 61 62 62 64
49 49 49 49 50 51 49 48 48 49 43 34 40 49 50 51 54 52 53 50 47 41 40 38 38 43 42 42 43 41 51 48 43 41 53 51 54 59 61 61 62 60 60 60
48 49 49 49 50 51 46 40 46 49 49 41 33 47 48 50 51 51 49 47 46 43 40 37 43 49 45 30 34 51 56 57 57 53 59 59 58 59 60 58 57 59 58 60
49 49 49 49 49 48 43 39 44 50 48 40 34 35 46 50 49 45 45 46 43 43 44 41 43 45 44 31 33 51 55 58 59 59 58 55 56 52 56 57 58 57 58 58
49 48 48 48 49 49 45 48 50 50 45 44 31 33 38 49 39 37 44 40 41 42 41 41 41 44 40 33 47 50 52 54 54 54 56 56 58 57 55 56 55 53 52 52
48 48 49 47 45 40 45 51 50 50 46 35 31 29 28 44 41 40 39 41 30 42 36 39 41 39 35 38 40 41 43 46 49 52 52 53 53 54 52 52 52 49 47 47
48 48 43 36 41 49 49 47 41 41 41 41 32 37 32 40 37 32 33 32 32 32 35 42 35 33 37 37 39 41 41 43 44 45 45 47 47 45 41 39 41 41 38 34
45 39 37 44 48 45 40 32 33 36 31 37 36 37 33 39 34 33 34 33 32 27 32 36 33 29 33 35 36 38 40 41 40 41 41 40 42 39 36 33 32 32 30 28
44 44 46 44 41 37 32 30 32 32 31 35 32 33 36 32 39 34 34 32 32 27 35 31 27 29 32 33 33 33 35 36 36 36 35 35 34 33 31 29 28 28 28 27
47 44 36 37 32 29 26 26 25 27 31 34 32 33 32 34 37 31 33 30 31 35 31 25 26 29 31 31 31 30 31 32 31 31 31 30 29 29 29 26 26 26 25 25
36 32 23 25 23 25 24 26 27 30 31 30 32 29 32 34 31 32 31 32 32 28 24 21 26 28 29 29 30 29 28 28 28 28 28 27 27 26 26 26 26 25 24 24
26 27 22 22 28 28 29 30 30 30 31 30 34 34 35 32 32 32 31 29 22 21 20 25 27 29 29 29 29 29 28 28 27 27 26 25 25 25 24 25 25 25 24 23
27 24 20 23 20 17 25 26 27 31 29 30 32 32 31 30 27 25 22 22 17 19 23 26 28 27 28 28 28 28 28 27 26 26 25 25 24 24 24 25 25 24 24 23
27 22 23 22 22 22 24 27 27 30 28 29 30 23 25 30 23 20 23 18 20 23 23 24 25 27 27 27 27 26 26 26 26 26 26 25 26 26 25 23 24 25 24 22

GFSNW_sfc_temp_075.txt.gz
Temp
51 51 52 52 52 52 50 44 35 48 50 34 34 31 36 43 42 46 43 42 40 39 41 40 39 40 45 53 50 47 51 44 39 45 54 57 55 50 49 37 36 37 33 37
51 51 51 52 52 52 47 40 38 47 48 30 31 38 37 40 40 41 41 40 41 44 40 36 41 45 49 54 50 47 49 41 34 40 48 53 49 51 52 48 43 36 31 38
51 51 51 51 52 52 47 34 31 38 41 38 37 34 33 33 42 40 42 41 42 39 37 42 39 43 49 51 52 51 50 43 43 37 41 49 45 49 53 50 37 38 40 47
50 51 51 51 51 51 47 35 33 37 31 34 38 39 38 33 33 41 42 38 37 35 32 38 38 45 47 50 51 48 50 41 43 48 52 51 49 49 50 46 49 44 47 48
50 51 51 51 51 51 43 31 34 39 35 39 36 37 34 35 37 40 36 36 39 38 34 35 36 42 45 44 48 44 48 41 44 43 49 52 48 50 48 47 49 49 49 48
51 51 51 51 50 50 42 42 41 41 39 36 33 34 37 36 40 41 43 41 38 36 39 43 45 46 47 47 45 43 42 39 38 35 45 45 35 43 50 48 49 48 43 50
50 50 50 51 51 49 46 44 42 36 32 34 34 39 39 39 39 37 43 43 39 44 49 47 46 45 47 47 46 48 40 40 36 33 38 27 42 53 54 50 52 55 54 56
50 50 50 50 50 51 45 45 42 38 32 36 37 38 38 41 42 39 41 45 47 48 43 36 34 33 35 39 45 46 46 41 34 31 32 39 43 49 50 47 47 55 54 57
49 49 49 50 50 50 46 45 46 42 36 34 42 38 41 35 35 37 40 48 48 46 36 32 27 25 32 33 38 46 43 43 37 32 29 24 40 54 59 55 38 56 57 55
49 49 49 49 50 50 46 44 47 41 35 39 43 37 37 42 39 33 39 41 40 44 31 28 27 28 37 31 31 33 33 32 32 32 31 36 48 54 58 39 39 56 58 60
49 49 49 49 49 50 47 44 47 39 35 37 45 47 41 41 41 33 39 40 37 34 30 31 28 24 33 33 38 35 35 32 27 31 29 30 52 51 46 49 53 56 54 57
49 49 49 49 49 50 49 41 45 46 40 40 44 49 53 52 51 46 44 41 39 38 34 32 30 27 25 32 28 42 33 39 35 40 36 50 51 52 53 54 54 54 53 54
49 48 49 49 49 50 49 42 44 43 39 38 39 42 51 57 54 54 40 40 46 42 41 36 34 31 33 26 29 35 41 46 40 41 48 49 52 52 53 54 55 56 55 55
48 48 49 49 49 50 49 42 45 43 39 33 38 50 47 53 55 53 50 49 48 47 43 36 31 30 39 31 37 35 41 45 44 43 47 50 51 52 54 54 56 56 57 56
49 49 48 49 49 49 47 45 46 44 40 32 36 46 48 48 50 50 50 49 45 41 37 34 32 36 38 36 37 34 41 40 38 40 49 49 50 54 55 53 55 57 55 56
48 48 49 49 49 48 45 39 44 46 45 36 33 44 44 46 47 46 45 45 43 41 38 34 38 43 39 27 31 41 43 44 43 42 47 50 52 54 54 54 54 55 53 53
48 49 49 49 48 47 40 37 42 49 45 34 33 36 43 45 44 42 43 45 42 43 39 36 37 38 39 31 28 40 41 42 42 45 43 49 49 50 52 53 51 49 46 45
48 48 48 48 49 48 44 46 48 47 41 39 32 33 38 44 37 36 41 38 39 41 39 36 38 38 38 33 35 38 39 40 42 40 41 44 48 49 48 49 48 42 39 37
48 48 48 44 43 40 43 48 48 47 42 31 30 29 31 40 36 38 37 36 28 35 32 34 35 34 30 30 32 33 34 35 36 38 42 43 41 40 40 42 41 36 33 32
47 45 39 33 41 47 46 43 39 39 38 36 29 34 34 37 35 33 33 31 28 27 32 36 33 29 31 31 34 33 33 34 36 34 34 33 36 32 32 32 33 32 31 29
41 38 34 42 46 42 37 31 31 32 30 32 31 33 32 37 32 32 31 27 31 24 29 31 30 24 27 31 32 32 32 33 33 35 34 33 32 31 29 28 28 28 28 27
42 41 42 40 35 30 27 22 28 30 29 33 32 32 33 33 38 34 33 31 31 23 33 28 21 24 28 29 29 29 30 30 29 30 30 30 30 29 28 27 26 25 25 24
42 37 32 31 25 18 22 19 26 25 29 29 32 32 29 32 36 32 32 30 29 32 24 19 21 24 28 28 28 27 27 27 27 26 26 27 26 27 26 23 24 24 22 23
29 25 16 17 14 19 20 22 23 28 28 28 30 32 32 33 32 31 30 29 27 20 16 16 22 25 26 26 26 25 23 24 24 23 23 23 23 22 23 23 23 22 20 21
23 23 14 17 21 21 23 26 27 28 29 29 32 32 32 30 27 24 24 17 13 16 14 20 23 25 25 24 24 23 23 23 23 23 22 22 22 22 21 22 22 22 21 20
23 21 17 18 16 18 20 22 23 27 27 30 31 30 24 18 18 16 14 15 12 14 18 22 24 23 23 23 24 24 24 23 23 23 22 22 21 21 21 22 21 20 19 18
20 16 15 10 12 13 18 22 21 26 25 22 25 18 17 25 18 15 18 10 15 18 19 21 22 21 21 21 22 22 23 23 23 23 23 22 22 22 21 19 20 20 20 18

GFSNW_sfc_temp_078.txt.gz
Temp
51 51 51 51 51 52 49 43 34 48 49 36 34 31 36 43 40 43 40 40 38 36 37 36 37 37 44 49 48 42 47 41 35 42 51 53 52 47 48 37 35 34 33 40
51 51 51 51 51 51 46 39 38 47 48 31 31 36 37 39 38 39 39 37 40 41 36 33 38 40 50 50 48 43 46 37 32 38 47 48 46 48 49 47 41 34 32 39
50 50 50 51 51 51 46 34 31 38 41 41 37 34 34 33 41 39 40 41 40 37 34 39 35 38 46 50 50 47 47 40 36 34 38 44 41 47 50 48 35 35 36 43
49 50 50 50 50 51 46 35 32 36 30 34 36 38 37 34 34 40 42 35 36 34 30 32 32 40 43 48 49 46 44 34 39 43 46 49 47 46 48 45 43 40 43 44
49 50 50 50 51 51 43 31 33 38 34 40 35 36 35 35 37 38 35 34 38 37 32 35 34 38 39 38 46 44 44 34 38 38 44 46 44 47 46 45 45 44 44 45
51 51 50 50 50 49 41 40 41 40 37 34 33 34 36 36 41 40 44 40 38 35 38 41 42 43 43 42 39 40 40 35 32 32 42 43 34 43 45 46 47 46 39 46
50 50 50 50 50 49 44 42 41 36 32 35 35 39 39 37 40 37 42 43 38 43 47 46 43 41 41 42 43 46 38 35 33 30 33 25 41 51 53 50 51 51 50 52
50 50 50 50 50 49 45 45 42 38 32 36 38 39 38 40 42 40 41 44 47 50 40 35 32 31 33 37 41 43 44 40 32 30 29 35 41 47 48 44 44 51 51 54
49 49 49 50 50 50 45 43 45 42 34 34 42 38 38 34 35 37 40 48 49 45 37 32 27 25 31 32 37 45 44 43 36 32 29 26 39 49 54 52 36 53 53 51
49 49 49 49 50 50 46 43 44 40 35 40 42 36 36 41 39 35 39 41 39 43 32 29 27 27 35 30 32 32 34 34 34 32 29 35 46 51 53 36 39 53 55 54
49 49 49 49 49 50 47 43 45 40 35 40 45 44 39 41 41 34 38 37 36 34 30 30 29 24 31 33 37 35 32 30 30 33 30 29 50 51 43 46 50 52 53 54
49 49 49 49 49 50 49 41 46 46 40 39 45 45 48 51 50 44 43 40 37 37 31 30 30 26 24 31 26 40 32 36 34 36 35 46 49 50 52 53 51 53 53 54
48 49 49 49 49 50 49 43 44 43 39 37 39 38 46 53 54 54 39 38 43 39 41 34 33 29 32 26 28 34 39 43 37 39 44 46 49 51 54 53 53 56 56 55
48 49 49 49 49 49 49 42 46 43 39 32 34 48 45 50 53 51 50 48 47 44 41 35 30 29 37 30 35 34 38 41 38 38 44 46 49 51 53 55 53 53 55 55
49 48 49 49 49 49 46 45 46 43 38 29 32 44 47 47 50 50 49 48 44 39 37 30 31 35 37 34 35 32 39 37 33 32 41 39 43 51 54 51 52 54 54 54
48 48 49 49 48 47 43 37 44 46 42 35 30 43 43 44 47 48 48 47 42 41 37 34 37 41 39 28 29 36 39 40 41 39 42 42 44 45 50 51 51 49 46 46
48 48 48 48 47 46 40 38 41 47 44 36 32 34 42 44 45 43 43 45 42 42 39 35 35 37 38 29 27 38 40 38 39 41 40 40 41 40 45 47 46 44 41 40
48 48 47 48 49 47 42 45 48 46 40 38 31 33 37 45 36 36 42 39 40 40 39 39 36 37 37 32 33 35 36 35 38 38 40 41 41 41 40 42 41 35 33 33
47 48 48 45 43 39 41 48 48 46 41 32 31 31 30 40 35 37 36 35 32 34 35 36 37 34 27 28 30 31 32 32 33 35 39 37 35 34 35 37 36 32 31 29
48 43 38 34 39 48 47 43 38 38 38 34 32 34 33 36 35 33 28 31 29 28 32 38 32 26 29 30 32 32 31 32 34 33 33 32 33 30 28 28 30 30 28 28
42 36 33 43 46 42 38 31 31 32 30 34 34 34 33 36 31 32 32 26 27 22 28 32 27 22 26 30 30 30 31 31 31 33 33 32 32 30 28 27 27 26 26 24
42 42 43 39 34 31 29 24 31 31 29 32 33 32 32 32 37 32 34 30 30 23 32 25 18 23 27 28 27 27 27 28 27 28 28 28 28 29 28 26 25 24 24 22
42 37 30 30 23 16 19 16 24 24 28 29 32 30 30 32 36 33 32 30 27 30 21 17 20 25 27 26 26 26 26 26 26 25 25 25 24 25 25 23 23 22 21 21
29 24 14 15 12 17 18 21 23 27 28 28 30 31 32 32 31 31 27 24 25 16 10 12 21 23 24 24 25 24 23 23 23 22 22 22 21 20 21 21 21 21 19 19
21 21 11 14 20 21 22 24 26 27 28 29 32 33 32 27 25 23 22 15 11 15 11 17 21 23 24 23 23 22 22 21 21 21 21 20 20 20 19 20 20 20 19 18
22 19 14 16 15 16 17 20 21 25 25 29 31 28 23 19 19 15 12 14 9 11 16 19 22 21 21 22 23 23 23 22 21 21 21 20 19 18 18 19 19 18 17 16
20 15 18 13 12 11 15 19 20 25 22 21 24 13 12 22 13 11 15 8 14 16 17 19 19 19 19 20 20 20 21 21 21 21 21 20 21 20 19 17 18 18 17 16

GFSNW_sfc_temp_084.txt.gz
Temp
51 51 51 51 51 51 48 42 32 56 54 35 34 32 41 43 47 51 47 46 44 43 44 44 44 44 49 56 55 48 51 48 43 50 60 62 60 56 56 47 47 51 49 52
51 51 51 51 51 51 48 37 38 53 49 31 33 36 37 46 45 46 46 44 46 48 44 40 45 47 53 55 53 49 52 42 41 45 53 59 54 57 58 57 55 48 44 52
51 51 51 51 51 51 46 37 31 42 42 41 39 40 35 35 45 46 48 45 48 45 42 47 43 45 51 53 53 49 52 47 39 37 42 48 45 51 56 55 46 48 51 55
50 50 50 50 51 51 45 37 33 44 33 34 34 41 41 37 35 45 48 43 44 43 39 42 42 46 48 52 52 53 51 42 46 48 50 51 50 50 52 52 55 50 54 56
49 49 50 49 49 50 41 33 34 43 43 45 38 35 37 39 44 42 41 41 45 46 41 43 40 44 45 44 49 46 48 38 42 40 48 50 47 51 53 54 55 58 59 57
50 50 49 49 49 48 40 40 43 39 40 41 34 36 40 41 45 46 49 47 45 42 46 49 48 48 48 47 45 44 42 40 35 35 47 45 41 49 51 56 59 58 52 61
50 50 50 49 49 48 44 42 41 36 33 39 40 42 42 42 45 43 47 49 45 47 50 49 49 49 49 48 48 49 41 41 38 35 38 29 47 50 53 55 60 63 63 65
50 50 50 50 49 49 44 44 42 38 33 39 41 42 40 45 45 41 43 49 51 50 41 38 38 39 40 43 47 48 48 43 35 32 36 43 41 44 45 49 55 65 64 67
49 49 49 49 50 49 44 44 46 42 39 39 47 43 44 41 40 37 42 48 48 44 37 34 31 33 39 39 43 51 49 46 40 37 32 31 44 50 53 56 45 61 63 62
49 49 49 49 49 50 46 41 45 42 35 47 49 43 43 46 43 39 40 39 38 41 34 33 34 35 43 36 36 33 38 37 33 35 31 42 53 55 57 36 39 55 59 63
49 48 49 49 49 50 46 42 46 39 37 45 51 52 48 47 45 39 41 37 36 34 33 35 37 36 42 41 45 39 34 35 34 35 32 32 56 56 45 46 56 59 57 62
49 49 49 49 49 50 49 41 46 44 38 39 47 46 53 57 55 47 44 44 41 44 39 41 43 37 40 42 37 50 39 41 36 43 44 54 55 53 57 58 55 56 59 63
48 49 49 49 49 50 49 44 44 41 36 40 40 39 50 57 57 60 45 47 50 48 53 46 43 38 46 37 41 46 50 53 46 46 51 52 53 56 53 56 55 59 60 62
48 48 49 49 49 50 49 44 45 44 42 35 43 54 48 57 57 57 57 54 54 53 50 42 41 40 50 44 48 47 53 52 49 49 54 54 59 55 52 52 54 55 59 63
49 48 49 49 49 49 48 47 47 52 47 36 41 47 52 55 55 54 54 52 50 46 41 38 40 49 46 48 47 47 54 48 46 46 44 45 51 53 52 49 49 50 52 58
48 49 49 48 49 49 44 36 44 51 51 39 36 51 48 51 53 51 50 51 47 44 39 40 48 53 47 40 42 42 44 44 45 43 44 47 50 52 50 48 48 47 48 49
48 49 49 49 48 44 41 42 45 50 51 41 38 40 49 51 50 50 49 50 45 43 41 41 46 48 48 38 36 37 39 41 44 42 43 46 46 41 45 47 49 46 45 45
48 48 48 49 47 47 45 48 49 51 42 43 35 37 39 50 43 42 49 43 42 41 41 47 45 49 47 33 35 36 37 39 40 39 41 40 41 41 41 46 46 44 41 40
47 47 47 45 43 40 42 49 50 52 46 38 33 33 32 46 38 39 39 41 35 39 38 39 41 34 28 28 31 33 32 31 33 37 39 37 36 35 34 37 40 39 36 36
47 46 41 34 42 48 48 42 38 39 43 42 36 41 34 40 37 36 34 37 35 33 37 39 33 27 30 31 32 32 31 31 33 32 34 34 33 32 31 30 33 35 34 33
47 37 36 41 47 45 40 34 35 35 32 36 39 37 35 39 36 34 35 35 35 31 33 34 30 27 28 32 30 31 31 31 32 32 33 33 32 31 30 29 29 29 29 27
43 40 41 40 37 36 33 32 33 33 31 34 34 34 34 37 39 35 36 33 34 29 33 30 25 26 31 32 30 31 30 30 29 30 29 29 30 30 29 28 26 24 23 22
48 41 35 34 29 25 26 24 29 30 31 32 33 33 36 37 40 34 35 31 28 34 26 23 24 28 30 30 30 30 30 30 29 27 27 26 25 26 25 22 22 22 19 19
35 30 21 24 21 24 24 26 27 30 30 30 33 36 36 37 33 33 28 28 33 24 21 18 24 24 26 27 28 27 24 24 24 23 23 22 21 20 20 20 20 19 17 18
28 29 20 21 24 26 26 27 29 28 28 32 37 36 37 31 28 29 29 24 20 21 20 22 24 24 26 25 25 24 23 22 22 22 21 20 21 20 19 20 20 19 18 18
28 24 23 24 25 23 24 24 25 28 28 35 37 31 28 23 25 23 19 21 17 18 22 24 26 23 24 24 24 23 23 23 22 22 21 20 19 18 18 19 18 17 17 15
24 20 24 23 23 21 22 23 24 28 29 28 30 24 20 29 22 17 20 17 19 22 23 24 24 23 23 23 22 23 23 23 22 21 21 20 21 21 19 17 18 18 17 16

GFSNW_sfc_temp_087.txt.gz
Temp
51 51 51 52 52 52 50 45 34 61 58 36 38 32 43 43 49 56 52 50 49 48 49 47 47 48 53 59 58 51 56 51 46 52 63 66 63 59 58 47 47 54 52 53
51 51 51 51 51 51 52 39 44 58 53 33 36 45 40 43 44 48 49 49 51 52 48 43 49 51 57 56 56 50 54 47 42 47 55 60 56 59 60 59 57 50 46 53
51 51 51 51 51 51 48 39 33 47 45 47 39 40 42 41 47 45 52 50 52 49 46 50 45 48 54 56 56 51 52 49 45 39 43 53 50 56 58 56 49 50 52 57
50 50 51 51 51 50 46 38 35 48 33 39 43 44 42 40 41 45 50 45 47 47 42 45 44 49 51 55 54 54 52 42 48 51 53 53 53 53 55 53 54 49 54 58
50 50 50 50 50 50 42 33 34 47 46 48 43 42 41 41 40 41 42 43 48 49 44 46 40 43 46 45 53 51 51 42 47 45 52 52 49 54 56 57 56 57 58 58
49 50 49 49 49 49 40 43 49 43 42 43 41 42 43 44 47 49 50 49 48 46 48 52 53 53 52 51 46 46 45 42 39 36 49 48 42 52 55 56 58 57 53 61
50 50 50 50 49 48 43 41 43 37 35 40 42 46 48 46 48 45 49 53 49 52 56 55 54 52 50 49 49 50 43 42 40 36 41 29 51 58 54 51 53 59 61 67
50 50 50 50 50 49 44 44 42 38 34 44 44 45 46 49 50 47 48 54 53 52 48 39 38 41 42 46 51 50 49 43 34 33 36 44 50 56 51 48 46 59 62 69
49 49 49 49 50 50 46 44 46 44 38 41 50 46 48 43 43 45 49 53 50 49 38 36 33 34 42 42 47 54 52 48 40 38 33 32 47 56 57 56 43 51 56 63
49 49 49 49 49 50 50 43 46 42 37 50 51 45 44 49 47 44 45 40 39 46 36 33 34 36 47 38 40 39 42 40 34 36 35 42 53 58 58 39 38 50 51 59
49 49 49 49 49 50 49 45 48 40 37 50 53 56 49 50 48 39 41 38 37 35 33 36 40 40 45 44 48 41 39 36 34 38 35 32 58 56 44 46 51 51 50 52
49 49 49 49 49 50 49 42 50 45 38 42 53 58 59 59 58 48 43 46 40 45 40 44 45 40 44 44 37 53 38 44 41 45 45 50 58 54 55 55 53 56 56 59
48 49 49 49 49 49 49 45 47 41 35 41 41 46 55 60 60 61 46 47 50 48 55 44 45 40 48 37 43 43 53 53 39 41 46 48 55 55 56 57 53 56 59 64
48 49 49 49 49 49 49 44 47 48 42 36 44 58 52 60 61 60 58 54 54 51 51 43 43 41 52 44 48 47 53 52 52 51 49 53 51 54 53 55 56 54 56 61
48 49 49 49 49 49 48 46 49 56 48 36 44 51 56 58 58 56 56 50 47 45 42 41 41 49 47 49 50 48 51 45 46 42 48 48 52 54 52 52 53 52 52 54
48 48 49 49 49 49 44 35 45 57 54 42 38 54 52 55 55 53 52 48 46 44 40 42 48 54 49 40 41 40 45 47 47 42 48 50 50 54 51 49 52 52 51 51
48 49 49 49 48 46 39 43 48 53 53 40 38 39 51 54 52 50 49 50 44 47 39 41 46 47 49 43 37 39 41 43 45 45 47 48 45 42 46 46 51 52 52 49
48 49 48 48 47 46 44 52 50 54 45 43 36 39 42 51 43 42 50 41 42 41 40 46 45 47 44 33 38 39 39 41 41 42 45 42 43 45 43 43 44 47 45 44
48 47 47 45 42 40 44 49 51 54 48 41 37 35 33 49 42 43 43 44 34 41 37 43 43 36 30 29 32 33 34 34 35 40 43 43 41 41 40 40 39 38 38 38
48 47 40 33 42 48 48 43 38 41 46 47 40 49 37 40 37 36 36 40 36 34 37 42 37 29 32 34 34 34 33 34 36 34 36 37 38 38 37 34 34 34 33 33
50 40 36 42 46 46 42 35 36 39 34 41 45 45 37 39 37 36 43 35 37 33 35 38 33 28 30 35 34 35 34 34 33 33 34 35 35 34 35 33 31 29 28 26
47 42 42 42 45 42 35 34 35 38 35 36 38 38 42 38 40 40 36 34 35 31 34 33 28 27 33 34 34 35 34 32 31 31 29 29 30 32 32 31 28 26 25 23
54 46 37 40 35 29 29 27 32 32 34 34 34 33 38 37 39 37 36 32 29 38 31 26 26 30 31 31 31 31 31 30 29 28 28 27 26 26 25 23 23 23 22 22
38 33 25 28 26 27 27 28 29 31 31 32 33 34 33 35 33 34 29 31 33 28 26 21 25 25 27 29 29 29 25 25 25 24 24 23 22 21 22 22 22 21 19 19
31 33 24 24 28 29 28 30 31 29 31 32 34 34 36 32 30 32 31 27 24 26 23 24 26 26 27 26 27 26 25 24 23 24 22 22 22 21 20 21 22 21 20 19
31 28 26 29 29 27 28 27 27 32 32 36 41 34 29 27 30 27 24 26 22 22 25 26 27 25 25 25 25 24 24 24 24 23 23 22 20 20 20 20 20 19 18 17
28 25 27 28 27 25 25 27 28 34 32 30 35 27 23 34 26 21 23 20 22 24 24 26 26 25 24 24 24 24 24 24 23 23 23 22 22 22 20 18 18 19 18 17

GFSNW_sfc_temp_093.txt.gz
Temp
51 51 51 51 50 50 46 37 28 47 49 31 31 29 38 43 43 48 43 41 40 36 38 37 37 35 42 49 51 46 46 43 37 44 55 56 55 51 50 38 38 42 40 42
50 50 50 51 51 50 40 33 33 48 46 23 28 36 39 42 41 42 44 39 41 44 36 33 36 41 52 53 50 44 46 39 33 39 47 50 46 53 53 49 47 40 33 39
50 51 51 50 50 51 43 34 24 34 37 37 34 35 35 36 46 44 46 43 44 40 39 43 39 41 48 52 51 50 49 41 37 31 37 42 40 46 51 46 38 40 42 47
50 50 51 51 50 50 40 33 30 38 26 31 36 37 37 36 36 44 45 40 41 39 34 38 39 46 46 50 49 49 46 36 40 43 46 47 46 46 47 46 45 38 43 48
49 50 50 50 50 50 39 31 31 39 37 39 34 34 34 36 40 39 39 39 42 40 36 39 37 41 41 40 47 45 48 36 40 38 45 46 44 48 48 48 49 49 50 48
50 49 49 50 50 48 37 40 41 36 35 35 33 33 35 39 42 44 46 42 39 37 38 43 43 44 44 43 40 40 40 37 33 31 41 40 33 42 47 49 52 50 42 47
50 50 50 49 49 49 41 40 40 32 27 32 33 38 40 40 42 39 45 43 37 44 50 47 48 47 46 44 44 47 39 37 34 28 33 21 42 53 53 50 46 46 47 47
50 50 50 49 49 49 42 42 39 34 28 35 37 38 39 40 40 41 43 45 45 47 43 36 34 33 35 40 45 45 45 38 27 26 26 36 43 46 43 39 40 46 45 46
49 49 49 49 49 49 44 41 44 39 31 32 42 38 39 35 33 36 41 45 46 44 36 30 26 24 34 36 41 48 45 41 32 28 26 23 40 46 50 50 34 48 48 45
49 49 49 49 49 50 45 41 44 39 32 39 42 35 34 41 38 35 38 39 38 41 33 26 26 26 41 31 33 33 34 34 29 28 27 34 44 46 50 34 34 47 48 47
49 49 49 49 49 50 46 42 44 38 33 38 44 46 40 39 37 32 36 35 36 34 28 27 28 26 35 35 39 37 33 30 28 28 28 25 44 46 38 39 47 45 45 48
49 48 49 49 49 49 48 40 45 45 37 37 42 43 46 45 45 40 39 38 37 36 31 32 33 27 30 33 29 42 31 37 31 35 33 41 44 44 50 48 44 44 45 48
48 48 49 49 49 49 48 41 43 41 35 36 35 38 48 52 51 49 37 37 42 41 42 36 35 29 36 28 32 35 42 45 39 37 43 42 44 47 49 49 47 47 48 49
48 48 48 48 49 49 49 42 44 42 38 28 34 51 45 52 52 49 48 47 48 45 41 35 33 33 40 35 38 35 39 40 40 39 42 43 44 44 45 46 48 48 48 46
48 48 48 48 49 49 47 45 45 47 38 30 33 45 50 52 50 49 48 45 43 38 35 34 34 39 39 39 40 35 39 34 33 31 35 40 40 43 46 44 43 46 44 42
48 48 49 48 49 49 44 34 44 48 46 36 31 43 45 49 48 47 45 45 42 40 39 35 40 46 40 34 31 37 40 42 40 36 43 43 44 44 44 43 43 44 42 40
47 48 48 48 48 45 38 37 42 48 46 37 31 34 44 49 47 42 42 43 41 41 38 36 38 40 40 33 30 32 33 36 40 40 42 40 42 39 41 41 42 42 40 37
47 48 48 48 48 46 41 45 48 48 42 40 31 33 37 46 38 38 41 39 41 39 37 39 38 40 38 27 31 33 32 37 35 37 41 40 42 42 39 38 38 36 33 33
48 48 48 42 41 37 41 48 49 48 42 32 30 27 31 42 37 39 39 40 32 38 33 35 38 32 24 28 29 29 30 31 31 35 35 36 35 35 36 34 32 31 29 29
47 44 37 32 40 48 47 41 35 38 38 38 33 37 33 39 36 35 35 35 33 31 33 39 29 23 29 32 32 31 31 31 31 28 27 29 29 30 30 29 29 28 27 26
43 37 35 43 49 42 37 32 32 33 31 32 35 38 33 37 33 32 33 32 33 25 31 33 28 24 27 29 28 29 30 30 28 28 28 27 27 27 26 25 25 25 24 23
43 41 42 42 39 36 32 28 30 29 28 33 29 32 37 35 38 33 33 31 31 25 35 31 19 23 27 28 28 27 26 26 25 25 23 23 23 24 24 23 23 22 22 20
46 42 36 36 30 26 24 24 26 28 32 33 33 33 34 34 35 33 33 29 29 30 26 18 19 23 26 26 26 25 26 25 24 22 22 21 20 19 20 17 17 17 16 17
34 29 17 22 24 23 24 26 27 28 30 31 32 33 33 33 31 32 28 29 28 25 19 12 20 21 23 24 25 23 21 21 20 18 16 17 17 16 16 16 15 15 14 15
28 28 20 21 25 27 26 29 29 29 31 31 32 33 33 29 25 30 27 23 17 17 12 17 20 22 22 21 22 21 19 16 16 13 14 13 14 15 15 15 15 15 14 13
28 26 24 26 25 22 22 23 23 30 29 31 31 30 26 23 25 22 15 21 12 15 19 20 19 18 19 17 20 18 20 16 15 16 15 14 12 13 13 14 15 15 14 12
27 22 25 26 25 22 23 26 26 30 29 28 29 25 24 28 22 18 20 15 17 18 19 20 20 18 17 19 19 17 17 16 17 18 19 17 17 17 16 13 14 15 15 14

GFSNW_sfc_temp_096.txt.gz
Temp
51 51 50 50 51 50 47 36 21 42 44 30 32 23 35 41 40 44 41 40 38 37 35 33 35 35 38 44 43 41 44 40 36 42 51 52 48 46 44 33 34 36 34 38
51 50 50 51 50 49 41 33 29 42 44 25 26 32 36 39 38 39 40 39 41 40 33 31 34 36 44 44 42 41 45 38 33 37 44 45 40 44 47 46 42 36 29 37
50 50 50 51 50 51 41 34 24 30 34 36 32 31 32 32 43 40 42 41 44 40 35 38 35 35 42 46 43 48 48 40 35 30 34 39 37 38 45 41 32 34 36 43
50 50 50 50 50 50 42 32 25 31 28 28 34 34 33 32 33 42 41 38 40 39 33 34 35 36 38 42 45 48 45 34 38 40 43 43 44 40 43 42 41 35 41 43
50 50 50 50 50 49 39 28 25 33 33 37 34 34 32 32 35 38 34 35 39 39 34 36 33 37 39 41 43 42 45 35 37 36 42 42 40 44 44 46 47 46 47 45
50 50 50 49 50 47 37 36 37 34 33 32 30 30 35 34 36 38 41 40 39 37 39 41 43 42 44 43 40 37 38 34 30 29 37 38 32 40 44 46 42 44 39 42
50 50 50 49 49 48 38 37 36 30 26 30 31 36 37 36 37 35 40 41 37 44 47 46 44 43 42 43 42 42 36 35 31 28 31 20 41 50 48 42 43 44 43 44
50 49 50 50 49 49 41 39 36 32 24 32 34 35 36 38 38 36 38 42 43 45 40 34 33 32 34 37 42 41 42 35 28 25 23 34 41 42 42 41 38 46 43 45
49 49 49 49 50 49 44 42 40 36 30 30 39 35 37 30 30 32 37 43 43 42 33 31 27 25 30 31 36 44 41 38 32 27 25 22 36 46 50 48 34 44 44 44
49 49 48 49 50 50 46 41 44 39 32 38 39 32 33 38 35 31 34 36 36 39 31 28 25 25 37 29 30 30 30 30 28 28 25 32 41 44 47 31 32 43 44 45
48 48 49 49 49 50 45 41 45 38 33 38 41 43 37 36 35 30 34 33 35 34 31 28 26 24 32 33 37 33 31 28 27 29 26 24 44 44 36 39 43 44 44 45
48 49 49 49 49 50 47 40 44 45 37 36 40 41 43 43 41 37 39 35 37 37 31 30 30 26 29 34 28 37 31 36 31 34 32 42 42 42 46 46 43 42 41 43
48 48 49 49 49 49 48 42 42 40 36 36 36 35 44 48 44 46 34 37 40 39 41 35 32 27 33 29 32 35 39 43 35 36 40 41 43 45 45 46 43 43 42 42
48 48 48 49 49 49 48 42 44 42 38 31 31 46 40 48 48 47 46 43 45 43 41 35 30 29 37 33 37 34 37 39 35 36 37 40 39 42 43 42 43 42 40 39
48 48 48 49 49 50 47 44 44 46 38 29 32 41 47 48 46 45 46 44 41 40 36 29 30 35 35 35 37 32 37 33 31 29 34 37 37 40 43 40 40 39 38 36
47 48 49 49 48 49 43 35 43 46 43 36 25 39 41 43 44 44 43 43 41 41 36 31 36 42 37 32 30 33 36 36 35 32 35 36 39 41 40 39 37 36 34 34
47 48 48 49 48 44 37 35 41 47 44 35 30 29 39 44 44 40 40 41 38 40 38 35 38 38 39 32 27 30 32 34 34 36 40 38 38 34 36 37 38 36 33 31
47 48 48 48 48 46 41 44 47 47 41 39 29 31 35 43 36 37 42 38 39 39 37 38 37 38 36 25 29 30 31 33 31 32 36 37 38 37 34 35 35 32 29 28
48 48 48 43 39 36 40 48 48 46 41 31 31 27 28 39 37 39 39 39 32 37 34 34 37 29 22 26 27 28 28 27 28 33 33 34 32 33 32 31 30 28 26 27
47 43 36 32 39 47 46 39 35 36 38 38 32 36 31 36 35 34 34 35 32 30 33 36 27 23 27 28 28 29 28 28 28 27 26 27 27 28 26 25 25 26 25 25
42 37 35 42 48 40 35 31 32 33 30 30 32 35 33 37 32 32 33 32 32 27 30 32 25 22 24 27 26 27 28 27 25 25 24 25 26 26 25 24 24 23 23 22
42 41 43 42 37 34 31 29 31 27 26 32 28 32 36 35 36 33 34 28 31 23 34 27 16 21 25 26 25 26 25 25 23 23 21 21 24 24 23 23 22 21 21 18
45 38 34 34 30 25 20 25 27 28 30 33 34 32 31 33 35 32 32 28 26 33 23 16 17 22 24 24 24 23 25 24 22 21 21 19 18 17 17 15 15 14 13 13
34 28 15 19 20 18 19 24 23 26 29 30 32 32 32 33 31 30 28 29 30 23 16 9 17 20 22 23 23 21 19 19 17 14 14 14 14 12 13 13 13 12 11 12
26 26 16 17 21 22 23 26 27 29 30 30 32 32 32 27 21 27 28 21 15 15 9 13 19 20 20 20 21 19 17 11 12 8 10 8 9 12 12 13 13 12 11 11
26 23 22 24 19 17 19 21 21 29 28 29 30 23 21 17 17 16 11 17 8 9 13 17 19 15 16 16 18 15 13 12 11 11 12 11 10 11 12 13 13 12 12 9
24 19 23 23 21 19 18 21 23 28 27 24 27 19 19 25 16 13 16 9 11 16 17 17 15 16 16 15 15 15 16 14 13 13 13 14 15 14 14 12 12 13 13 11

GFSNW_sfc_temp_099.txt.gz
Temp
51 51 51 50 50 50 44 34 22 44 42 27 27 18 32 40 38 41 39 38 37 34 34 32 34 34 37 45 43 36 42 37 31 39 46 47 44 41 41 32 32 33 31 34
50 50 50 50 50 49 40 33 33 39 40 26 28 31 33 37 36 37 37 36 39 38 33 29 34 36 44 44 43 37 38 34 30 33 39 44 40 42 43 41 37 32 29 33
50 50 50 50 50 49 41 32 25 30 33 35 31 30 30 30 40 38 39 38 40 36 34 37 32 35 40 43 43 46 41 35 31 30 32 41 35 40 40 38 31 31 34 39
50 50 50 50 50 49 40 34 24 29 25 30 31 32 32 31 31 40 40 35 36 35 30 34 32 37 37 43 45 44 41 30 35 40 42 42 40 40 40 39 39 33 38 41
50 50 50 50 50 49 37 26 24 30 28 33 31 33 32 32 34 35 35 33 37 37 31 35 31 37 34 35 44 37 43 32 37 34 38 39 37 41 42 42 44 43 41 42
50 50 50 50 49 47 37 36 33 30 30 29 28 30 34 34 36 36 39 37 35 33 38 41 43 43 42 41 37 37 38 35 30 29 34 35 31 37 40 39 40 41 37 41
50 50 50 49 50 48 37 39 33 27 23 29 30 34 36 34 36 33 38 39 36 42 46 44 43 40 40 40 39 42 36 34 30 26 30 19 38 47 45 42 42 43 44 44
49 49 49 49 49 49 41 38 34 30 21 30 32 33 33 35 37 34 36 40 42 44 41 33 32 31 33 36 40 39 40 34 26 22 23 31 38 41 41 39 35 43 41 44
48 49 49 49 49 50 43 42 40 35 28 27 37 32 34 30 30 32 34 41 42 41 33 28 27 26 30 31 36 42 39 37 30 25 24 18 35 43 46 45 33 42 42 43
48 48 49 49 49 50 46 42 45 38 30 36 37 31 32 36 33 30 32 36 35 39 31 25 25 28 35 28 30 29 29 29 27 25 23 30 41 42 45 31 31 41 42 42
48 48 49 48 49 49 46 41 45 38 33 37 40 41 35 35 33 28 32 30 31 32 30 27 27 26 30 30 35 31 31 28 27 29 23 23 42 42 35 37 41 42 42 42
48 48 48 49 49 49 48 39 44 44 37 36 40 40 43 41 40 35 35 35 34 36 32 31 30 27 25 31 26 36 30 34 29 32 31 40 41 39 42 43 39 40 40 40
47 48 48 49 49 49 48 42 42 40 35 35 36 36 43 45 42 45 32 35 41 39 40 35 33 26 31 28 31 33 34 40 36 35 39 38 40 42 42 43 39 39 39 38
47 48 48 49 49 49 48 41 43 40 37 27 31 44 39 45 45 42 43 41 41 40 40 36 34 29 37 32 36 34 35 36 33 34 34 37 37 39 39 40 40 37 37 35
47 48 48 49 49 49 46 43 44 44 37 28 31 38 44 46 42 41 42 41 38 36 34 32 31 33 34 36 36 31 35 31 30 26 33 35 33 39 40 35 34 34 35 34
47 48 48 49 48 49 42 34 42 46 43 35 25 36 39 40 41 40 40 40 39 39 36 32 33 38 35 30 28 32 34 34 33 31 33 35 34 36 38 33 32 32 30 30
47 48 48 48 48 44 37 35 41 47 44 35 30 27 37 41 40 37 39 39 39 40 37 34 32 35 38 31 27 30 32 32 32 33 37 33 33 31 35 35 33 32 29 28
47 47 48 48 48 45 40 44 47 47 40 38 29 28 32 42 32 33 39 36 38 38 35 38 34 37 34 23 28 28 30 32 30 31 35 35 36 35 33 33 32 28 27 27
47 47 48 44 39 36 39 48 48 46 40 31 31 28 26 39 37 37 37 38 32 37 33 35 35 28 21 26 26 25 26 26 26 30 32 33 31 30 30 28 27 26 26 26
47 44 36 30 37 47 46 40 35 35 36 37 31 32 30 35 35 34 34 35 31 30 33 33 26 20 26 27 27 27 26 26 27 27 26 26 27 26 25 24 25 24 24 24
41 33 33 42 47 39 34 30 31 32 30 32 32 33 33 37 31 32 34 31 32 28 30 30 24 21 23 26 25 26 26 25 24 24 24 25 26 25 24 23 24 23 22 21
42 41 43 41 36 33 31 28 30 28 26 28 29 34 36 35 34 33 33 28 31 22 34 24 13 21 24 25 24 24 24 24 22 22 21 21 23 23 23 22 21 20 19 17
42 38 32 33 28 22 19 22 26 27 30 33 34 32 31 34 35 32 32 28 26 32 22 14 16 23 24 24 24 23 24 23 22 20 20 18 16 16 16 14 14 13 12 12
32 26 13 18 10 14 15 21 19 27 29 31 33 31 31 32 30 30 25 29 30 21 16 9 17 21 22 22 23 20 17 16 15 11 11 11 11 11 11 10 10 10 10 10
26 25 15 14 19 20 20 22 25 28 30 31 32 31 29 26 20 24 23 17 12 14 7 8 16 19 20 19 19 17 14 9 9 7 9 8 9 11 10 11 11 12 10 9
26 22 19 21 17 17 18 21 23 29 29 30 31 24 17 17 14 15 11 16 7 7 11 16 19 13 15 15 15 12 11 10 9 8 10 9 7 8 9 10 10 8 8 7
22 17 21 15 16 14 16 19 24 29 26 20 24 15 14 21 13 12 14 4 5 11 14 14 14 15 13 14 16 14 13 12 11 10 10 8 9 10 12 9 10 12 12 10

GFSNW_sfc_temp_102.txt.gz
Temp
50 50 51 50 50 50 43 34 21 39 45 28 28 18 30 38 35 39 37 36 35 33 32 30 33 33 38 44 43 37 38 34 30 36 45 46 43 39 39 31 30 32 31 34
50 50 50 50 50 49 40 30 33 38 38 19 26 34 31 35 34 35 35 34 38 37 31 26 33 34 42 43 39 37 39 32 29 33 38 41 38 39 40 39 35 32 27 31
50 50 50 50 50 50 39 30 23 28 32 35 30 28 30 29 38 37 37 36 37 34 31 34 30 33 40 41 41 44 43 34 29 27 29 35 33 38 38 37 31 31 31 35
50 50 50 50 50 49 37 33 24 28 20 30 31 31 30 29 30 38 38 34 34 31 28 30 29 34 36 39 42 40 40 28 31 34 35 37 39 36 38 35 36 32 36 36
50 50 50 50 50 49 36 29 23 29 28 31 30 32 30 30 32 34 33 31 33 33 28 32 28 34 33 33 39 37 39 31 32 30 37 38 36 38 38 39 40 39 40 38
50 50 50 50 50 47 37 35 34 31 29 27 25 26 32 32 35 36 37 34 32 30 36 38 39 39 41 40 37 35 34 34 29 27 35 34 30 36 38 37 38 38 35 39
49 50 50 49 50 47 39 36 36 29 22 27 28 32 34 32 34 31 36 36 32 38 43 42 41 40 39 38 39 39 33 34 29 28 30 18 34 43 43 39 41 43 42 44
49 49 49 49 49 49 41 39 35 31 19 30 31 31 31 33 34 32 34 38 40 41 39 32 30 31 31 34 38 37 38 34 27 25 23 30 37 40 39 38 35 41 40 44
48 48 48 49 49 50 44 41 41 35 27 27 35 32 33 29 29 31 34 40 40 38 33 30 26 25 30 30 34 39 37 37 31 27 24 18 33 41 44 42 32 41 41 43
48 48 48 48 49 50 45 41 43 37 30 33 35 30 31 35 32 30 32 34 33 38 29 28 24 26 34 28 29 28 29 30 27 27 25 30 37 41 44 28 29 39 41 42
48 48 48 48 49 49 46 42 45 38 33 35 38 39 34 34 33 28 33 29 33 31 28 28 27 25 29 29 33 27 29 27 25 28 25 22 38 39 32 35 38 38 38 38
47 48 48 48 49 49 47 39 44 44 36 35 39 39 41 41 41 34 34 31 34 32 32 32 32 28 27 28 24 36 29 32 29 32 31 38 38 38 39 40 36 36 36 37
47 47 48 48 49 49 47 41 42 40 35 35 36 37 43 45 42 43 32 32 39 36 39 35 34 29 30 24 29 32 35 36 32 34 35 36 37 38 38 38 35 35 36 36
47 47 48 48 48 49 48 41 43 40 37 29 31 42 38 44 43 41 42 39 40 39 38 33 33 30 35 29 34 33 34 34 32 32 34 35 35 36 36 36 37 35 34 34
47 47 48 48 48 49 46 43 44 45 37 29 31 36 42 43 40 39 39 38 36 33 33 32 31 32 32 34 36 30 34 29 29 27 32 33 32 34 36 32 31 31 31 31
46 47 48 48 49 48 42 34 42 45 44 34 26 35 36 39 39 37 36 37 35 38 36 32 34 38 35 30 27 31 33 33 32 30 33 34 34 33 33 32 30 29 27 27
46 47 47 48 49 45 38 34 39 47 43 34 29 27 35 39 37 35 36 40 38 37 37 35 34 34 36 30 26 30 31 31 31 32 35 31 31 29 32 32 30 30 27 26
47 47 47 48 48 45 40 41 46 47 39 38 27 29 29 42 31 33 39 36 37 37 37 37 34 36 34 26 27 28 28 31 29 30 33 32 33 33 31 32 30 27 25 25
47 47 47 45 40 35 39 46 47 45 39 30 30 26 22 39 36 35 34 34 31 36 32 31 34 29 20 24 26 25 25 25 25 29 30 31 29 28 27 27 26 25 25 25
47 44 34 30 35 47 45 39 34 35 36 37 30 32 29 34 34 33 34 34 32 29 31 32 27 20 25 26 25 25 25 24 26 27 24 25 26 25 24 23 24 24 23 22
38 32 32 40 47 39 34 30 30 32 30 32 33 33 32 37 30 32 34 31 32 27 30 29 22 19 23 25 24 25 25 24 23 23 23 25 25 24 24 23 23 21 20 18
39 41 43 40 36 32 30 29 30 29 26 27 30 33 36 35 34 31 32 30 30 25 32 23 13 20 23 23 23 23 23 22 21 22 20 20 21 22 21 20 19 18 17 15
41 37 32 32 26 24 22 22 26 25 31 33 33 32 31 33 34 32 31 28 26 32 20 12 15 21 23 23 23 21 22 22 20 18 18 17 15 15 15 12 13 12 11 11
31 27 13 21 11 14 14 25 26 27 28 32 32 30 31 32 30 29 26 28 30 21 8 7 16 20 20 21 21 19 15 15 14 11 11 11 11 9 9 8 6 7 7 7
26 26 15 12 18 20 20 22 27 28 30 31 31 30 28 24 23 21 21 17 11 13 8 7 17 20 19 18 18 15 13 9 7 5 7 6 7 8 8 8 6 7 6 7
24 21 17 20 16 15 20 23 24 28 29 30 27 22 16 18 14 14 9 16 8 6 9 15 18 12 14 14 14 11 9 7 6 5 8 7 6 6 7 8 7 5 5 4
22 16 20 13 14 12 16 20 23 28 28 14 20 13 14 19 10 8 11 3 2 8 12 12 13 16 13 14 14 14 13 10 10 10 11 8 8 9 11 8 9 11 10 7

GFSNW_sfc_temp_105.txt.gz
Temp
50 50 50 50 50 49 43 35 26 41 44 29 29 26 31 37 36 40 38 38 36 34 33 32 34 33 37 44 42 36 40 37 35 40 49 50 49 45 45 37 35 39 39 40
50 50 50 50 50 49 39 31 32 41 40 22 27 34 33 35 35 36 36 35 38 39 34 29 34 36 43 43 41 38 40 35 32 36 41 46 42 44 45 43 42 39 35 40
50 50 50 50 50 49 39 30 22 31 36 35 30 29 30 31 38 37 39 36 38 35 34 37 33 34 41 42 43 43 43 36 32 32 33 37 37 41 43 43 38 39 40 43
49 50 50 50 50 49 38 34 27 31 22 30 32 32 31 30 30 38 39 35 34 32 29 32 32 36 38 42 43 40 39 31 34 36 38 38 39 40 41 40 41 38 41 41
49 50 50 50 50 48 36 27 28 31 30 32 30 32 31 29 32 34 33 32 34 35 30 32 30 35 36 35 41 39 37 31 32 33 38 39 37 41 41 42 42 42 43 43
49 49 50 49 49 47 38 35 36 34 31 30 29 29 32 33 35 37 39 35 33 33 36 39 40 42 41 41 38 36 35 34 33 30 36 37 33 39 41 41 42 41 38 42
49 49 49 49 49 48 40 37 38 31 26 29 30 32 34 32 34 31 37 38 34 40 44 43 42 40 40 40 40 42 34 33 34 31 33 23 37 45 46 43 42 42 44 45
49 49 49 49 49 49 41 40 37 33 25 31 31 32 32 34 35 33 34 39 42 42 40 34 31 33 34 36 38 39 39 35 31 28 29 34 38 41 40 39 37 42 40 44
48 48 48 48 49 49 43 40 41 36 30 29 36 33 34 31 31 33 36 42 43 41 35 32 27 26 31 31 34 40 38 38 34 30 26 23 35 42 46 46 33 43 43 43
48 48 48 48 49 49 45 41 43 37 31 35 37 32 33 37 34 32 34 36 36 39 33 29 28 28 35 29 30 30 31 32 29 30 28 34 38 41 46 32 33 40 42 40
47 48 47 48 49 49 46 42 44 38 33 36 39 40 36 36 35 31 35 33 34 34 30 30 31 29 33 32 34 31 31 29 29 31 27 25 39 41 37 36 38 39 38 39
47 47 47 48 48 49 48 40 43 43 36 36 41 41 43 42 42 37 37 35 34 35 31 32 33 31 31 31 29 37 30 33 31 33 32 37 38 37 39 42 38 37 37 38
47 47 47 48 48 49 48 41 42 40 35 35 36 37 43 45 43 46 35 36 41 38 40 35 33 29 33 29 32 33 37 37 33 33 35 35 35 37 38 39 36 37 37 38
46 47 47 47 48 48 48 41 43 40 36 29 34 43 40 45 45 43 44 43 42 41 40 35 31 29 37 33 35 34 34 35 31 31 33 35 34 34 34 35 36 35 34 34
46 47 47 48 48 49 47 43 44 45 38 31 33 38 42 44 42 40 41 40 39 37 34 32 31 36 35 37 37 31 33 28 28 27 31 32 31 32 33 30 31 32 32 30
46 46 47 47 48 48 41 33 42 45 44 35 28 38 38 40 40 38 37 38 37 37 35 32 35 37 36 31 30 31 33 32 32 30 33 32 32 32 31 29 30 30 29 29
46 47 47 47 47 44 37 36 42 46 44 34 29 30 37 40 38 37 37 39 39 38 36 35 35 37 39 32 29 30 31 31 31 32 34 30 31 29 31 31 31 30 29 28
46 46 46 47 47 45 39 43 46 46 39 37 28 28 33 42 35 34 40 36 37 37 37 37 35 38 35 29 28 28 29 31 29 30 34 32 33 32 31 32 31 29 27 27
46 46 47 44 40 35 39 46 47 45 39 30 30 26 25 39 36 37 36 37 30 38 34 35 36 31 27 26 27 26 26 25 26 29 31 31 28 28 27 28 28 27 26 25
46 43 38 31 35 46 45 37 34 35 36 36 30 34 28 35 33 33 34 35 33 30 33 35 31 24 25 26 26 26 26 26 28 28 25 26 27 26 25 24 25 25 24 23
40 32 32 39 46 40 35 30 31 31 29 33 34 33 31 37 31 32 35 31 33 28 31 31 26 22 23 25 24 25 26 25 24 25 25 26 25 25 25 23 22 22 21 19
38 40 42 40 36 33 30 28 30 29 27 30 31 33 37 36 36 32 32 31 31 27 32 27 20 20 24 24 23 23 24 23 22 22 21 21 22 22 22 21 19 18 17 15
43 37 33 33 28 27 23 21 26 26 28 31 33 32 34 35 35 32 32 29 28 32 23 17 18 22 24 24 23 22 22 21 20 19 19 17 15 15 16 13 13 13 12 12
31 29 21 25 20 19 20 24 28 29 31 33 34 31 33 33 31 29 27 28 31 22 18 14 19 20 21 22 22 19 15 15 14 12 13 12 11 10 11 10 11 10 10 10
26 27 17 14 19 21 22 26 29 29 31 33 31 30 31 26 26 23 25 22 15 16 14 15 20 20 20 19 18 16 13 11 10 11 10 9 10 10 10 10 11 11 10 10
25 21 19 21 19 19 23 24 26 28 29 32 31 25 22 19 19 18 12 17 14 12 15 19 20 17 16 15 15 13 12 11 11 11 11 10 9 10 10 10 9 8 8 7
21 17 18 15 14 16 20 22 23 28 28 23 25 20 17 22 15 12 13 11 12 14 17 18 18 16 14 13 14 13 13 13 13 13 13 12 13 13 13 11 12 12 11 9

GFSNW_sfc_temp_108.txt.gz
Temp
50 50 50 51 51 50 50 48 38 52 54 41 40 36 38 39 42 46 43 43 41 38 38 37 37 35 38 45 41 38 45 43 41 46 52 58 55 50 50 41 40 45 44 46
50 50 50 50 50 49 52 45 47 54 49 33 36 41 39 40 40 42 41 40 43 45 39 34 40 41 47 48 45 38 42 40 37 40 46 52 50 53 54 52 51 44 41 46
50 50 50 50 50 49 52 42 33 47 48 45 37 36 36 37 44 41 44 41 45 41 40 44 38 40 46 49 46 43 46 41 37 36 40 47 43 48 52 50 44 46 47 50
49 50 50 50 51 50 52 42 36 40 34 39 39 39 37 36 35 43 45 41 41 37 32 38 38 42 44 48 44 42 41 37 41 44 44 44 45 46 49 48 49 43 49 49
49 49 50 50 50 49 49 35 38 43 43 39 37 38 37 34 38 39 39 38 41 41 35 37 36 41 42 41 45 42 40 37 37 38 45 44 42 47 49 50 49 49 50 50
49 49 50 50 50 50 44 50 48 45 39 38 37 39 37 37 40 42 43 41 39 39 43 47 47 48 47 46 43 38 37 37 37 35 42 41 37 44 48 50 50 48 45 48
49 49 49 49 49 49 47 47 50 39 36 39 39 38 40 39 40 37 42 44 40 46 52 50 51 49 47 47 46 48 36 37 39 36 39 26 43 52 52 50 49 50 47 46
49 49 49 49 49 49 44 44 46 40 33 41 39 39 39 41 42 40 41 45 48 51 46 40 39 40 40 43 46 46 46 39 35 32 34 40 44 41 44 45 39 45 41 46
48 48 48 48 49 49 44 42 43 39 34 40 42 40 40 38 39 39 41 49 52 48 42 37 30 30 32 34 38 44 44 42 36 37 30 27 38 40 51 51 34 45 44 44
48 48 48 48 48 49 46 42 45 38 33 43 44 41 41 44 41 39 42 42 43 46 36 34 33 34 41 34 33 32 35 34 32 34 33 40 43 43 47 35 34 41 43 42
48 48 48 48 48 49 46 42 46 40 35 43 46 47 43 44 42 37 43 40 40 40 34 35 36 34 40 38 39 34 36 34 34 36 31 29 42 47 38 38 42 42 41 42
47 47 48 48 48 49 48 41 44 44 36 41 46 49 52 50 49 42 43 40 39 42 36 39 39 35 39 37 34 42 32 37 32 35 34 38 39 37 42 45 44 43 42 42
47 47 47 48 48 49 48 43 42 39 34 37 39 43 51 54 51 53 39 43 46 44 47 39 39 32 34 33 37 37 41 39 34 34 34 34 35 37 39 43 43 44 44 43
46 47 47 47 48 48 48 42 43 41 38 34 43 51 47 54 53 50 50 49 50 48 43 41 38 35 45 39 41 39 37 39 32 32 33 33 33 34 35 37 40 41 40 41
46 47 47 47 48 48 48 45 43 44 39 37 43 49 52 53 51 49 49 47 44 42 36 36 35 43 39 42 41 36 37 30 30 30 32 32 31 33 36 34 35 38 39 37
46 46 47 47 48 48 42 34 43 46 44 37 35 49 46 47 49 47 46 46 42 40 38 38 40 41 36 33 35 33 34 33 33 31 33 32 32 32 33 32 30 34 36 36
46 46 47 47 47 45 38 41 48 46 45 36 33 39 45 46 46 42 39 42 41 41 39 39 40 42 41 37 32 31 32 32 33 34 34 31 32 29 32 32 31 32 34 34
46 46 46 47 47 45 40 45 48 46 40 40 32 36 39 45 38 37 43 37 39 41 41 39 36 40 41 32 32 32 33 33 32 34 34 32 32 31 31 35 36 34 33 33
46 46 46 44 41 36 40 47 47 48 43 33 32 32 32 45 39 41 37 38 32 45 37 41 38 37 31 29 31 30 30 30 30 33 34 32 29 30 31 33 34 32 30 31
46 42 37 32 37 46 45 38 35 35 36 38 33 43 35 41 35 35 36 38 34 30 36 43 37 29 28 30 31 32 31 32 34 31 30 30 28 29 30 29 30 30 28 28
38 33 33 43 46 42 36 32 32 34 31 36 38 40 38 44 34 34 36 32 37 30 36 34 33 28 26 29 28 30 30 31 30 30 30 30 29 29 29 27 27 27 26 24
39 40 43 41 37 34 32 31 34 31 33 37 34 35 39 40 40 37 35 33 34 29 37 33 29 24 27 29 28 28 28 28 27 27 25 25 26 27 27 26 24 22 21 19
40 38 33 33 32 29 28 25 28 30 36 36 35 33 40 37 38 34 33 30 30 37 31 28 24 26 27 28 28 27 27 26 25 23 23 21 19 19 19 17 18 18 16 17
32 32 26 30 28 32 34 36 36 36 37 37 39 34 36 37 33 32 28 31 33 28 25 21 24 25 25 26 26 25 20 19 19 18 17 16 15 14 15 15 16 16 15 15
29 33 26 26 28 29 30 32 34 33 35 36 35 36 38 31 29 29 29 27 24 24 23 23 24 24 24 23 22 20 18 16 16 17 16 15 15 15 15 16 17 16 15 15
30 27 25 27 29 27 29 31 30 32 33 37 39 31 29 26 28 26 21 25 24 21 23 24 25 22 21 20 19 18 18 18 18 18 17 16 16 16 16 16 15 15 15 14
26 24 27 27 29 27 25 30 30 33 33 31 35 28 24 30 26 21 25 23 22 23 24 26 25 22 19 19 18 17 18 18 18 18 18 17 18 18 18 16 16 17 16 15

GFSNW_sfc_temp_114.txt.gz
Temp
51 51 51 51 51 51 49 54 43 59 61 42 46 42 45 46 49 54 50 49 46 43 44 40 42 41 45 52 46 40 46 40 35 46 59 62 58 52 52 41 40 45 42 41
51 51 50 51 51 51 53 51 53 60 56 37 44 49 48 50 47 49 47 46 48 49 44 37 40 46 53 53 49 42 44 37 30 38 48 57 52 55 55 53 51 41 37 42
51 51 50 51 51 51 50 47 37 52 54 52 45 44 44 44 52 49 51 49 49 46 43 47 37 44 50 53 51 48 48 41 33 28 32 41 45 53 55 52 42 43 43 45
51 50 50 50 51 51 50 46 41 49 39 44 45 46 45 43 43 50 52 47 46 43 38 41 41 45 47 50 51 51 47 36 38 42 45 36 39 42 50 50 50 44 42 44
50 50 50 50 50 51 50 35 42 52 49 47 44 41 44 43 45 46 44 43 45 45 40 42 38 43 43 42 48 46 48 35 40 41 49 46 38 42 43 42 46 49 48 47
50 50 50 50 50 50 49 52 55 49 44 46 44 44 44 44 46 48 50 47 44 42 46 48 49 50 50 48 44 44 42 37 37 36 46 46 40 48 50 52 55 52 43 45
50 50 49 49 49 49 50 52 50 43 37 45 45 46 47 45 47 43 47 49 45 50 55 54 54 54 54 53 50 52 42 40 40 35 40 29 43 49 49 49 49 50 49 48
50 49 49 49 49 50 51 49 49 45 37 46 46 46 46 48 49 47 47 50 53 55 50 42 39 42 43 46 51 50 50 43 35 32 33 42 38 42 41 39 38 45 46 47
49 49 49 49 49 50 49 49 50 47 38 42 49 46 47 42 43 44 47 53 56 53 44 38 32 30 38 37 37 46 49 48 39 36 30 27 35 46 52 50 31 35 44 46
49 49 49 49 49 49 48 45 49 45 37 49 49 42 41 48 45 42 46 46 46 52 40 34 34 34 44 34 31 32 38 38 34 35 33 33 39 46 51 34 30 38 40 42
49 48 49 49 48 49 48 47 50 44 36 44 49 51 45 46 45 36 43 43 41 42 35 37 36 35 39 38 42 38 33 31 29 32 32 27 39 45 34 35 39 39 40 42
48 48 48 48 48 48 49 44 49 47 37 40 46 49 52 51 51 46 46 42 42 45 37 38 39 35 39 38 32 42 32 38 33 32 30 35 37 36 39 42 42 44 44 45
48 48 48 48 48 48 48 46 45 40 36 38 43 48 57 57 56 57 42 46 49 46 46 39 39 35 41 33 35 38 42 46 36 36 33 35 35 37 37 39 40 45 46 46
48 47 48 48 48 48 48 46 47 41 38 34 46 61 54 61 59 56 55 51 52 49 47 39 38 36 46 38 42 39 41 42 34 32 35 37 34 35 35 37 40 42 44 43
47 47 48 48 48 48 49 49 46 49 40 34 41 51 58 59 57 55 54 49 46 44 39 38 35 44 42 44 45 32 38 31 31 28 31 33 31 34 35 33 33 39 41 41
47 47 47 47 48 47 46 38 49 50 47 36 35 52 52 55 55 53 51 49 46 43 41 39 42 48 42 35 35 35 36 36 35 31 34 34 33 34 34 33 32 35 37 39
47 47 47 47 47 47 39 39 42 47 46 36 35 42 51 54 51 48 48 48 46 44 40 38 41 43 42 37 34 34 35 36 34 35 35 32 33 31 34 35 35 37 37 38
47 47 47 47 47 46 40 48 46 46 40 39 34 38 42 51 42 38 45 41 42 40 41 44 40 44 41 33 36 38 38 37 35 34 35 33 33 33 32 34 35 35 35 36
46 47 47 46 43 38 45 48 47 48 39 34 35 33 34 48 42 40 39 42 33 45 37 40 42 38 32 32 36 36 36 35 36 37 37 35 31 30 30 30 30 31 33 33
47 45 39 31 38 47 48 40 34 34 33 38 35 45 38 45 41 37 37 39 36 32 38 46 36 29 32 34 35 36 36 37 38 33 31 34 32 31 28 28 30 31 29 28
41 34 33 44 47 43 37 32 32 34 32 40 42 44 40 49 36 34 38 33 38 31 38 37 35 28 28 33 32 34 35 35 34 34 33 33 33 31 31 29 28 26 25 23
39 40 42 41 37 34 31 31 37 35 35 42 39 42 46 44 46 38 37 33 36 30 42 35 30 26 31 32 32 32 32 32 30 29 27 26 26 28 27 26 23 22 22 21
40 38 32 31 33 28 27 27 31 33 41 40 40 35 42 43 45 37 34 29 30 40 32 28 25 29 31 32 32 30 30 29 28 25 24 22 20 20 21 19 20 20 19 20
32 31 27 29 28 33 36 38 38 42 42 41 39 38 38 40 35 35 29 35 35 29 28 23 26 27 29 30 30 26 22 22 21 20 20 19 18 18 19 19 20 19 17 17
30 31 27 30 34 34 34 36 38 42 44 41 38 40 41 35 32 34 33 30 28 28 24 25 26 27 27 26 25 23 21 20 20 20 19 19 19 19 18 19 20 19 18 18
32 31 29 32 33 31 33 33 33 41 41 41 42 36 32 31 33 30 29 29 26 24 26 27 27 25 24 23 23 22 22 22 21 21 21 20 19 19 19 19 19 18 18 17
30 29 32 31 32 33 32 34 34 39 37 34 38 31 31 37 31 29 31 26 25 26 27 28 27 24 22 22 22 22 22 22 22 22 21 21 22 22 22 20 20 20 19 18

GFSNW_sfc_temp_117.txt.gz
Temp
51 51 51 51 51 51 47 40 34 49 50 32 34 27 43 47 48 51 48 46 43 39 38 36 37 36 41 47 46 37 43 35 31 38 48 54 49 44 45 34 34 38 34 32
51 51 50 50 51 51 42 38 39 48 47 28 30 43 46 49 46 46 45 43 45 43 38 33 39 40 47 47 46 40 41 34 26 33 41 46 42 47 50 47 44 38 31 34
50 51 50 50 51 51 42 37 30 38 39 40 37 37 41 41 49 47 48 46 44 41 38 41 37 39 45 47 47 48 45 38 31 24 29 34 33 41 47 47 37 38 38 39
50 50 50 50 50 51 42 36 32 39 28 33 38 40 41 39 41 48 47 43 42 38 31 35 34 39 41 45 48 44 41 32 37 39 42 34 35 40 42 41 43 39 40 39
50 50 50 50 50 50 40 29 32 39 38 42 38 38 39 40 43 42 40 39 41 40 34 38 32 37 37 36 43 40 41 32 36 35 44 41 40 41 43 43 43 44 43 39
50 50 50 50 50 49 40 43 44 38 38 37 33 37 41 42 43 45 47 42 38 36 41 42 43 44 43 42 39 37 36 34 32 30 41 40 32 35 38 38 40 45 36 39
50 50 50 49 49 49 43 42 40 32 27 34 40 45 45 43 44 39 44 45 40 45 49 47 46 45 46 46 44 44 36 35 34 29 34 25 35 45 45 36 36 38 41 40
50 49 49 49 49 50 45 43 39 35 27 37 41 43 43 43 43 42 43 45 47 47 43 34 32 33 38 44 43 41 43 37 28 26 27 35 36 37 36 36 33 36 38 40
49 49 49 49 49 50 44 45 42 38 29 32 44 39 40 33 33 35 42 46 47 44 36 27 26 25 32 32 37 45 44 40 31 27 26 22 30 36 43 42 27 36 36 35
49 49 49 49 49 49 45 40 43 38 32 39 40 35 34 41 36 32 37 39 38 42 27 25 25 28 40 29 29 28 30 30 27 26 26 30 34 38 43 29 28 38 37 36
49 49 49 49 49 49 44 41 46 38 34 36 42 44 37 37 36 29 35 32 33 31 26 29 27 27 32 32 34 32 29 25 21 27 25 22 36 38 30 34 38 39 38 38
48 48 48 49 48 49 47 40 46 44 36 36 40 41 44 42 42 37 37 35 36 36 27 28 29 26 29 30 28 39 29 33 28 28 27 34 35 34 36 38 37 39 41 42
48 48 48 48 49 49 46 40 42 40 35 35 34 37 47 50 48 47 34 37 43 39 40 32 31 26 27 27 28 34 38 40 30 31 32 33 33 35 36 36 36 40 41 40
48 48 48 48 48 49 47 39 42 40 37 31 36 54 47 54 51 48 46 43 45 42 38 32 29 28 38 29 34 33 34 34 27 30 32 32 32 33 34 35 36 38 40 38
48 48 48 48 48 48 44 41 42 42 38 32 31 42 48 51 50 48 47 43 41 38 29 30 26 34 32 34 34 30 34 29 28 26 31 31 30 33 34 32 33 35 36 37
47 47 48 48 48 48 39 35 41 43 44 35 28 41 46 50 49 48 45 41 38 35 32 26 31 40 32 29 24 32 35 35 34 31 33 33 32 33 34 32 32 34 35 34
47 47 47 47 47 40 34 35 40 45 45 35 30 30 44 48 45 40 39 41 38 36 34 30 32 34 36 28 23 32 34 35 34 34 34 30 31 29 33 34 35 35 35 34
47 47 47 47 47 44 36 44 46 45 40 38 29 28 34 45 36 32 38 37 39 34 32 34 32 35 35 27 33 36 36 36 34 33 33 31 32 31 31 32 33 31 29 29
47 47 47 41 36 32 36 49 47 44 38 32 31 27 21 43 36 36 36 37 29 35 30 31 33 26 24 30 32 33 34 33 34 35 35 33 30 29 28 28 28 27 25 25
46 41 32 27 33 48 46 40 35 34 36 36 31 34 27 36 31 32 31 34 31 24 29 35 27 23 29 30 32 33 32 32 32 29 27 29 28 27 27 26 27 25 24 24
37 32 31 37 47 38 36 30 29 31 30 31 32 34 29 39 29 26 31 32 31 25 29 31 28 24 26 29 29 30 30 28 27 25 24 24 26 25 25 23 23 23 23 21
37 37 41 39 35 32 28 28 28 28 27 29 29 31 36 35 36 32 33 29 30 24 33 28 21 23 27 27 27 27 26 25 23 23 21 21 22 22 22 21 20 20 21 19
39 35 32 30 31 24 23 20 24 22 29 31 30 26 32 34 36 27 30 29 27 29 25 22 21 25 27 26 25 23 24 24 22 21 20 19 17 17 17 14 13 14 11 13
29 27 19 25 26 27 25 25 28 31 32 33 32 29 29 29 30 32 28 28 31 24 19 18 22 23 24 24 24 21 18 18 17 15 14 13 14 13 11 9 9 7 7 5
28 29 19 26 32 32 32 33 32 32 34 34 30 30 32 29 28 31 28 25 19 23 17 18 21 22 22 20 20 18 16 14 13 12 12 11 12 13 12 12 10 10 9 10
30 29 25 30 30 29 32 32 32 34 30 31 30 27 30 23 31 27 21 23 19 21 20 21 21 19 18 18 18 18 16 15 13 12 14 13 10 9 8 8 8 5 5 4
28 26 29 29 29 30 31 32 32 35 31 29 32 25 29 29 23 25 26 20 16 21 22 22 20 18 15 15 16 16 18 16 16 14 13 11 13 14 17 12 9 10 9 6

GFSNW_sfc_temp_120.txt.gz
Temp
51 51 51 50 51 51 47 40 33 48 48 32 30 26 40 47 45 48 45 43 40 37 36 33 34 34 38 44 42 35 40 35 30 37 47 48 46 39 39 30 29 32 32 30
51 51 50 50 50 50 41 38 38 47 45 26 29 38 43 45 44 43 42 40 42 41 35 30 35 37 45 44 41 36 39 33 26 31 39 43 35 39 41 38 37 32 29 31
51 50 50 50 50 51 42 36 29 37 37 37 34 34 37 38 47 45 45 44 43 38 35 37 33 35 41 43 43 47 43 35 30 25 29 35 33 36 40 38 31 36 36 34
50 50 50 50 50 50 42 34 31 37 24 29 36 36 38 37 38 45 44 40 39 35 30 32 31 36 38 42 45 41 38 29 33 36 40 36 35 35 38 38 39 36 38 36
50 50 50 50 50 50 39 29 32 36 34 40 36 37 36 38 40 39 38 35 38 37 31 34 31 35 35 34 40 37 38 29 34 33 42 35 33 39 37 36 36 38 38 35
50 50 50 49 50 48 38 40 41 36 35 34 31 32 39 39 41 42 44 40 37 34 38 41 42 42 41 40 38 34 33 31 30 28 38 38 29 30 33 34 34 38 34 36
50 50 49 49 49 47 41 39 38 30 26 32 35 42 42 40 40 36 42 42 37 43 46 44 42 41 41 41 39 40 33 32 31 27 32 23 32 38 36 32 33 34 36 34
50 49 49 49 49 50 42 41 37 32 25 34 38 39 39 38 39 38 39 42 45 44 40 32 31 32 36 39 42 40 39 33 27 25 26 31 33 34 33 32 30 35 34 36
49 49 49 48 49 50 42 40 40 36 28 31 41 36 37 31 30 33 38 43 43 41 32 26 26 25 31 31 36 42 41 38 29 27 25 21 30 34 40 39 26 36 35 34
49 48 49 48 49 50 43 39 41 36 26 36 38 32 32 37 33 29 33 36 36 38 25 25 24 26 36 27 27 28 30 29 25 25 25 29 32 35 39 27 27 36 36 35
48 48 48 48 49 49 43 40 41 36 29 34 39 41 34 35 34 28 33 30 32 29 25 26 25 25 30 30 32 30 27 24 25 25 23 20 34 35 29 32 35 37 38 39
48 48 48 48 48 49 45 38 43 42 34 32 39 40 43 41 41 35 34 33 33 34 25 25 27 25 27 29 22 37 28 31 27 29 27 33 34 33 35 36 34 34 35 38
48 48 48 48 48 48 44 39 42 38 35 33 33 38 45 45 43 44 32 33 39 37 37 30 28 25 25 22 25 29 36 36 29 30 31 31 32 34 35 35 35 37 35 36
48 48 48 48 48 48 45 38 42 39 37 29 33 47 44 49 46 43 43 41 45 42 36 31 26 26 35 28 32 29 32 31 29 29 31 32 32 33 33 34 35 37 37 36
48 48 48 48 48 48 41 38 40 42 36 28 30 38 45 47 46 44 43 41 37 32 27 24 25 30 30 31 32 26 33 29 24 19 25 30 30 32 33 30 33 34 33 32
47 47 48 48 48 46 37 30 38 41 43 33 27 36 41 45 46 45 43 39 39 33 30 25 27 36 30 21 28 32 34 34 34 30 32 30 31 32 34 31 32 33 32 32
47 47 47 47 47 38 34 32 40 45 44 34 29 28 40 45 42 38 36 42 39 36 32 29 30 31 33 24 24 31 33 34 34 33 33 28 30 28 32 32 34 33 31 30
47 47 47 47 47 43 36 43 45 45 39 37 29 26 34 42 33 31 34 34 38 36 31 30 29 32 31 23 30 34 34 35 33 32 32 30 30 30 29 31 31 28 26 26
47 47 46 38 34 30 34 47 47 43 38 31 30 25 25 39 33 32 33 33 25 32 27 29 30 24 17 27 29 30 31 30 32 33 32 29 27 25 26 26 26 24 24 24
46 38 29 19 29 44 43 40 34 35 36 35 30 31 25 34 24 31 29 33 30 24 27 32 25 22 26 27 29 29 28 28 31 26 24 25 25 24 23 23 24 24 23 23
35 24 30 34 45 36 34 29 29 31 29 32 33 30 27 35 26 23 28 30 30 25 27 27 27 22 24 26 26 27 26 25 24 24 23 24 25 23 22 21 22 22 22 20
34 35 39 36 32 30 27 26 30 29 25 25 26 28 32 32 32 28 32 30 30 25 32 29 20 21 24 25 23 23 22 21 20 21 20 21 22 22 21 20 19 19 19 18
37 35 31 30 24 22 22 20 25 19 26 26 27 25 32 35 33 30 22 28 27 27 21 17 20 23 23 22 22 21 22 22 21 20 20 19 17 16 16 12 9 11 10 7
26 27 18 24 22 21 23 23 24 28 26 29 28 25 29 26 27 20 18 25 31 25 17 16 19 21 21 22 22 20 16 15 14 12 12 12 12 10 9 6 5 7 10 10
24 28 18 16 28 30 30 32 33 33 28 31 28 28 29 24 29 30 30 26 24 21 15 13 18 20 20 19 19 16 14 10 10 7 8 5 6 8 4 3 4 5 2 1
28 28 20 23 27 28 31 32 32 34 28 27 29 27 28 27 29 27 25 23 17 15 16 18 20 17 17 16 17 14 13 12 10 10 10 8 5 6 5 4 4 -0 0 0
26 20 21 22 27 28 30 32 32 34 30 22 32 24 28 29 26 23 27 22 12 19 20 19 18 17 14 14 14 12 12 11 11 8 9 7 8 8 12 8 5 7 7 2

GFSNW_sfc_temp_123.txt.gz
Temp
50 50 50 51 51 51 47 38 30 45 48 34 32 30 39 46 44 47 43 41 38 35 33 31 32 32 36 41 39 31 38 33 28 35 44 47 43 35 36 28 29 32 30 30
50 50 50 50 50 51 40 36 36 45 45 29 31 38 42 44 42 42 41 38 40 38 33 29 33 35 42 42 38 34 37 31 23 28 36 41 35 39 38 37 35 31 27 29
51 50 50 50 50 50 41 34 29 37 39 37 35 34 36 37 44 43 42 40 40 36 32 36 31 34 39 42 41 46 41 33 25 19 28 33 31 36 39 37 30 33 32 31
50 50 50 50 50 50 41 33 32 38 29 30 33 35 37 36 35 42 41 36 37 33 29 31 30 34 36 40 43 39 36 27 32 34 38 34 33 34 35 33 35 32 33 31
50 50 50 49 50 49 40 32 33 36 34 37 35 36 35 36 37 38 36 34 36 35 31 33 30 33 34 32 37 35 35 27 31 31 39 35 31 34 34 34 33 36 34 31
50 50 49 49 50 47 38 39 40 37 33 33 30 31 36 38 40 40 42 38 34 34 36 39 39 40 40 38 35 33 31 29 29 27 36 34 27 28 31 32 33 34 31 33
50 49 49 49 49 47 40 39 38 33 27 32 33 39 39 37 38 35 38 40 35 41 43 40 40 38 38 38 37 38 31 31 30 26 31 21 30 34 34 31 32 32 33 33
49 49 49 49 49 50 41 40 37 33 26 32 35 37 36 36 37 35 37 40 42 41 37 32 31 32 34 37 40 37 36 31 26 24 26 29 34 33 30 30 29 34 33 35
49 49 48 49 49 49 42 39 39 36 30 30 38 34 35 30 29 32 36 41 41 39 31 26 25 24 30 30 33 39 38 34 30 27 24 19 27 33 38 36 25 34 34 33
49 48 48 49 49 49 42 39 40 36 29 35 36 32 33 35 31 29 32 34 34 36 24 24 23 25 33 26 26 26 28 28 24 25 26 27 31 34 37 25 24 34 36 34
48 48 48 48 49 49 43 39 41 36 29 34 37 39 35 34 32 27 32 29 30 28 23 25 24 24 29 29 31 27 28 26 24 25 22 17 33 34 27 31 33 33 33 36
48 48 48 48 49 49 45 39 42 40 33 34 37 39 41 40 40 33 32 32 32 31 24 23 26 24 25 28 21 34 21 31 28 28 25 32 33 33 34 35 33 33 32 35
48 48 48 48 49 48 45 39 39 36 30 31 33 36 42 42 41 42 31 32 37 35 34 29 27 25 24 22 25 28 32 33 28 29 31 31 32 35 35 34 33 34 34 34
48 48 48 48 48 48 45 38 38 36 37 24 33 45 40 45 42 41 41 40 44 40 33 30 25 26 32 27 30 28 32 31 29 29 31 31 32 33 32 34 33 34 33 32
48 48 48 48 48 46 41 39 38 39 33 26 29 37 43 45 42 41 41 39 36 31 26 23 24 29 28 30 30 29 32 28 23 15 29 30 29 32 32 28 33 31 31 30
47 48 48 48 47 44 36 28 37 40 43 29 25 35 38 42 42 42 41 38 38 35 30 24 26 33 29 19 29 31 34 34 33 30 32 30 29 31 33 32 31 31 30 30
47 47 47 47 45 38 33 31 40 43 42 34 24 27 39 44 43 37 39 42 38 37 34 29 29 30 32 23 26 28 32 34 33 33 33 27 30 27 30 32 31 30 29 28
47 47 47 47 46 43 36 42 45 43 39 37 22 25 35 44 34 32 33 35 38 36 34 31 28 31 29 21 31 33 34 34 33 31 29 27 27 26 27 30 29 26 25 25
47 47 45 39 35 31 37 47 45 42 38 29 29 22 21 40 34 31 31 31 28 31 26 28 29 22 20 23 29 30 30 31 31 31 29 27 25 23 24 25 25 24 23 24
46 39 31 23 32 43 44 40 34 35 35 34 29 29 28 34 28 30 28 33 27 23 28 31 24 19 26 26 25 26 26 26 30 25 23 26 23 23 22 22 23 23 22 22
33 26 24 34 43 36 33 27 28 30 28 32 33 29 25 33 25 24 26 29 30 24 26 26 23 20 23 25 24 25 25 24 23 24 24 25 25 23 22 21 22 22 21 18
34 34 37 36 32 30 28 24 29 27 25 27 28 29 29 30 30 26 32 30 29 25 32 28 19 18 23 23 22 22 22 21 20 22 21 22 22 22 21 19 18 18 17 14
35 32 30 29 24 19 20 18 24 23 24 24 25 23 29 30 30 28 28 26 26 26 23 18 15 21 22 22 22 21 22 21 20 19 19 18 15 14 14 10 8 7 7 4
23 21 14 18 20 22 19 22 22 25 23 25 26 24 27 29 26 19 16 22 30 23 21 16 16 19 20 21 22 19 16 14 13 11 10 10 9 3 0 -1 -2 2 2 -1
25 28 16 14 21 27 28 25 28 33 28 26 26 27 29 27 28 30 25 25 23 19 16 13 16 20 20 18 18 15 13 9 8 5 5 1 3 6 2 -1 -0 2 -3 -3
25 27 19 20 20 21 19 32 32 34 24 26 27 26 23 26 22 26 25 24 16 16 13 13 19 18 16 16 15 13 11 10 8 7 8 6 4 4 3 1 2 -3 -2 -2
26 24 26 20 21 26 28 31 32 34 32 29 31 24 27 29 25 25 28 23 15 14 18 18 18 17 14 14 13 11 11 10 10 7 7 5 5 5 11 7 4 5 4 -1

GFSNW_sfc_temp_126.txt.gz
Temp
49 49 49 49 50 50 46 39 32 44 46 32 31 29 38 46 43 46 43 41 38 34 33 31 31 31 35 39 36 31 35 31 27 32 42 43 39 35 34 29 28 31 29 25
49 49 50 50 50 50 41 37 36 44 44 28 30 37 41 44 42 41 40 37 39 38 33 29 32 33 39 39 36 32 35 29 21 26 35 40 34 37 36 36 35 30 27 25
50 50 50 50 50 50 43 36 28 36 37 36 35 35 36 37 44 41 41 38 39 35 32 33 31 32 37 40 38 44 40 31 23 16 24 32 30 34 36 38 29 31 29 27
50 50 50 50 50 50 42 34 29 35 27 30 35 36 38 36 35 41 40 35 36 33 29 30 29 32 34 38 42 38 37 27 30 32 36 33 31 31 31 31 33 31 29 27
50 50 49 49 50 49 38 32 31 35 34 37 35 37 35 36 37 37 34 34 35 33 30 32 30 31 31 31 35 33 34 27 30 29 36 35 29 31 33 32 31 34 32 28
50 49 49 49 49 47 37 37 39 37 34 33 33 33 36 37 38 39 40 37 34 33 35 37 37 37 37 37 33 30 30 28 28 27 35 33 26 28 30 30 31 32 26 30
50 49 49 49 49 46 39 37 36 34 28 34 35 38 39 37 37 35 37 37 34 38 40 39 37 35 35 35 34 36 30 30 30 25 30 21 30 35 34 31 31 31 32 32
49 49 48 49 49 49 39 38 37 35 28 34 36 36 36 36 36 35 36 38 40 39 36 32 31 31 34 35 38 35 34 31 27 23 26 28 33 31 29 28 29 33 31 32
49 48 48 49 49 49 40 38 38 37 33 32 39 34 35 31 30 32 34 39 39 37 31 26 25 23 28 29 31 37 34 32 29 26 23 18 27 32 36 35 25 32 35 32
48 48 48 49 49 49 42 38 39 37 31 35 37 33 33 35 32 29 31 33 33 34 23 24 23 25 31 26 25 26 28 28 25 24 25 27 31 32 36 24 22 32 32 34
48 48 48 48 49 48 43 39 39 36 30 34 38 40 35 34 32 28 32 29 29 27 23 25 24 24 28 28 29 30 28 26 25 27 21 16 32 33 26 30 33 33 32 33
48 48 48 48 48 48 45 37 41 40 34 34 37 39 40 41 39 33 32 31 31 31 23 22 26 24 24 27 21 32 21 31 28 28 26 32 33 31 33 34 32 32 32 32
48 48 48 48 48 48 45 37 37 36 31 33 35 37 41 41 41 41 32 31 36 33 33 28 27 26 24 21 25 28 32 34 29 28 30 31 31 33 34 33 32 32 31 31
47 48 48 48 48 48 45 37 37 36 33 28 34 44 40 43 41 40 40 39 40 37 32 29 25 26 31 27 29 27 32 32 28 29 30 31 31 31 31 32 32 32 31 30
48 48 48 48 47 46 42 38 37 38 33 27 31 37 41 42 41 39 39 38 36 31 26 23 23 29 28 29 29 21 32 29 23 25 29 30 29 32 33 29 31 30 30 29
47 47 48 47 46 44 37 30 38 40 39 29 28 34 37 39 40 42 39 36 35 33 30 23 25 32 28 18 19 29 32 34 34 30 32 30 29 32 30 30 30 30 28 28
47 47 47 46 45 39 32 31 39 44 39 28 25 28 36 41 41 34 38 41 36 35 33 28 29 30 31 26 23 29 33 33 33 34 33 28 29 25 30 30 28 29 27 27
47 47 46 46 46 42 36 42 45 43 36 33 21 26 32 43 34 33 35 35 37 36 34 32 28 30 28 18 28 32 34 34 32 29 27 25 25 24 25 27 27 25 23 24
47 46 45 38 34 31 37 45 45 41 35 26 24 24 23 38 33 33 30 31 29 31 26 28 28 23 24 24 31 30 30 30 29 28 26 25 23 22 22 23 23 22 21 22
45 38 31 23 31 44 45 39 34 32 35 32 25 29 29 36 29 30 26 32 28 24 27 29 23 27 24 26 27 27 27 28 31 27 25 24 23 22 22 21 22 21 21 21
33 26 26 34 43 35 30 24 25 29 26 29 30 30 30 33 25 25 25 28 30 24 26 25 20 21 23 25 24 24 25 24 24 25 25 27 25 23 22 21 21 21 19 17
34 35 37 35 32 27 21 21 27 26 26 28 29 27 29 30 29 26 31 29 29 24 30 25 17 17 23 23 22 22 22 22 21 22 21 22 23 22 20 18 17 16 15 11
34 30 25 23 24 15 16 15 22 23 26 26 28 24 27 32 30 30 30 27 24 27 25 18 18 19 23 22 22 21 22 22 20 19 18 17 14 13 13 9 6 5 3 -2
21 19 17 17 19 21 19 23 25 26 24 23 23 27 26 25 24 19 16 23 29 23 20 16 14 19 21 21 21 19 16 14 13 10 10 9 8 1 -2 -3 -5 -1 -0 -5
21 21 9 17 19 23 27 24 27 26 32 24 24 25 28 24 24 28 24 19 14 17 16 15 13 20 20 18 18 14 13 9 8 5 6 3 2 6 0 -3 -3 1 -5 -5
24 27 20 18 20 16 17 27 30 31 29 30 28 25 19 21 21 26 24 24 14 16 15 12 19 18 17 16 15 13 10 9 7 7 7 6 5 5 3 -1 -0 -5 -3 -3
24 21 27 26 20 19 20 28 32 33 31 30 30 21 22 27 25 23 28 17 17 13 11 15 18 18 15 13 12 10 10 9 9 7 7 4 5 6 10 7 2 3 2 -2

GFSNW_sfc_temp_129.txt.gz
Temp
46 46 48 49 49 49 46 40 32 44 46 35 34 32 39 46 44 47 44 43 40 37 36 34 34 34 38 42 41 36 40 35 29 35 44 46 43 38 36 29 30 34 31 24
47 48 49 49 49 49 42 37 36 46 46 30 32 38 41 44 43 43 42 39 41 41 36 32 36 37 42 42 40 38 40 33 25 32 39 43 36 38 35 35 34 30 27 26
49 49 49 49 50 50 44 37 31 37 41 38 37 34 37 37 45 42 42 39 41 38 36 38 34 35 40 42 41 44 43 35 30 25 29 33 31 34 35 33 31 30 27 26
49 50 50 50 50 50 43 36 32 38 30 32 36 39 39 37 36 42 43 38 38 37 32 33 32 35 37 40 43 42 40 31 33 35 37 34 31 32 31 29 32 30 26 26
50 50 50 49 50 49 41 33 34 38 37 38 37 39 37 37 38 40 37 37 37 37 34 36 33 36 36 36 40 38 38 31 33 33 38 34 30 32 34 30 31 32 30 28
50 49 49 49 50 48 40 39 42 40 35 36 36 36 37 38 40 40 42 40 37 35 37 40 42 42 42 41 38 35 34 33 31 29 36 33 26 28 30 30 31 31 27 30
50 49 49 49 49 47 42 40 40 36 31 36 36 39 41 38 40 37 40 41 39 40 43 42 41 38 38 38 38 40 34 33 33 29 32 21 29 36 33 30 31 32 31 31
49 49 49 49 49 48 41 39 40 37 30 36 37 39 37 38 38 37 38 40 42 42 41 37 35 35 35 36 39 37 38 35 31 27 28 29 32 32 29 29 28 33 32 33
48 48 48 49 49 48 41 38 40 40 36 34 40 37 38 34 34 35 37 41 42 41 37 33 29 28 32 31 33 39 36 36 32 30 24 21 28 34 37 34 25 32 34 33
48 48 48 49 49 49 42 39 40 40 33 37 40 36 36 37 35 33 35 37 38 40 32 31 29 29 35 29 28 27 31 32 27 27 26 27 31 35 37 26 24 32 33 33
48 48 48 49 49 48 44 40 41 40 33 37 40 42 37 37 36 33 35 35 35 33 29 30 29 30 32 31 32 31 29 28 27 28 24 21 34 36 28 29 34 34 32 33
48 48 48 48 49 49 46 38 41 41 36 36 39 42 42 43 43 36 35 35 34 35 30 30 32 30 31 31 26 36 28 33 29 30 28 32 34 32 34 35 33 32 32 33
48 48 48 48 49 48 45 39 38 38 35 37 39 39 43 44 44 45 36 35 38 36 37 33 32 29 32 28 30 31 34 36 31 30 31 31 32 34 35 35 33 34 33 33
47 48 48 48 48 47 45 38 38 38 36 33 36 46 41 44 45 44 43 41 40 38 37 35 33 32 36 32 34 33 35 35 30 30 31 31 32 32 33 34 34 33 32 31
47 47 48 48 48 46 42 39 39 40 38 32 35 40 42 44 44 42 43 41 38 37 35 33 32 35 35 34 34 30 35 31 29 28 31 32 30 32 33 32 31 32 31 29
47 47 47 47 46 44 39 33 40 42 40 35 31 37 39 41 42 42 41 40 38 38 37 33 33 36 35 30 29 32 34 36 36 31 33 32 31 31 32 31 29 30 29 29
47 47 47 47 46 40 35 34 39 44 41 33 31 32 38 41 41 37 40 42 39 38 35 35 35 35 36 29 26 33 34 35 35 35 33 29 30 28 31 30 29 29 28 28
47 46 47 46 46 43 38 43 45 43 37 35 28 30 36 43 35 34 37 38 39 37 35 35 34 35 33 27 31 33 34 34 31 30 31 29 28 28 28 29 29 26 24 25
46 46 45 40 35 33 38 46 44 40 35 29 28 28 27 39 34 35 35 36 32 34 31 33 34 30 27 30 32 33 34 33 29 29 29 29 26 25 25 26 26 24 23 24
45 38 32 26 33 43 44 38 33 33 35 33 29 32 31 35 32 30 32 34 30 25 31 34 30 31 26 29 32 31 32 33 32 27 25 26 24 24 24 23 24 24 23 22
34 28 29 36 43 36 31 26 27 30 27 30 31 33 31 35 30 28 31 30 31 24 29 29 27 27 26 28 27 28 28 28 29 30 31 31 29 26 24 23 22 22 21 19
35 37 38 36 33 28 25 24 28 27 27 29 29 30 33 34 33 31 31 29 30 25 32 28 24 28 26 26 25 25 26 26 25 27 25 26 26 26 23 21 20 19 17 15
35 31 26 25 25 17 19 16 23 23 28 30 30 29 32 33 34 31 31 28 26 31 28 26 28 26 25 25 24 24 25 25 23 22 21 20 17 18 18 13 12 12 9 7
25 23 19 17 17 20 22 26 27 28 29 28 28 28 30 30 28 27 25 28 32 22 19 23 27 24 23 24 24 23 20 18 17 15 14 12 11 8 7 8 6 8 10 5
23 24 13 19 21 24 28 27 28 29 31 30 30 30 31 27 26 29 26 22 19 22 23 27 24 23 22 21 21 19 16 13 12 12 11 8 8 10 8 6 8 9 6 6
25 26 20 21 23 21 23 27 30 32 32 31 32 27 24 26 26 27 25 22 20 25 27 25 23 21 21 20 19 17 15 14 12 12 12 11 10 11 12 8 9 6 9 8
25 16 26 27 24 22 24 28 31 34 31 30 31 24 24 28 27 25 28 23 26 27 23 22 23 21 20 18 16 13 13 12 13 12 13 12 12 11 13 13 11 12 12 9

GFSNW_sfc_temp_132.txt.gz
Temp
47 49 50 49 49 50 48 42 33 47 51 38 43 42 48 50 51 54 49 51 47 44 43 41 41 40 45 50 48 42 46 42 37 41 50 52 48 42 42 33 32 39 35 27
48 47 47 48 49 50 47 38 36 46 48 34 40 45 46 50 49 50 48 44 47 49 43 38 43 44 48 48 46 44 46 40 34 38 43 49 41 43 41 40 37 31 29 29
45 46 47 48 49 49 52 44 32 37 40 43 42 41 43 41 48 45 47 46 48 45 42 44 40 41 44 47 47 45 46 42 34 31 32 37 35 39 41 39 32 31 29 28
48 47 46 48 48 49 49 43 37 42 32 36 40 46 44 40 39 46 47 44 46 44 39 40 39 43 43 45 45 47 46 37 40 43 44 38 32 37 36 32 35 33 29 28
49 48 49 48 49 50 49 36 39 44 42 43 43 44 45 43 41 44 42 43 46 46 41 43 39 43 44 43 46 45 45 39 41 39 43 38 32 38 40 36 33 35 33 32
49 49 49 49 50 50 49 47 48 49 43 44 44 44 45 44 45 45 50 48 44 42 44 48 50 50 49 48 45 43 41 40 38 35 42 32 29 29 32 33 34 33 29 31
50 49 49 49 50 49 50 50 50 48 39 45 45 46 47 45 48 43 47 49 45 46 52 50 48 47 46 46 46 48 40 38 38 36 39 25 30 37 35 31 32 32 33 33
49 49 49 49 49 48 52 48 52 51 40 48 44 46 46 47 48 45 45 46 48 51 49 43 39 40 41 42 46 45 46 40 35 33 36 30 33 37 33 31 29 35 34 36
49 48 49 49 48 48 50 48 48 53 45 45 50 46 47 43 42 41 41 46 49 48 47 40 36 33 39 36 38 46 44 43 38 37 30 26 34 39 39 38 28 36 37 35
48 48 49 49 49 49 51 49 49 52 40 46 50 46 44 48 46 42 43 43 44 47 42 38 37 36 43 35 33 32 36 37 34 35 34 31 38 42 39 27 26 37 38 35
48 48 48 49 49 49 52 47 50 51 44 44 48 48 46 45 48 41 42 42 42 43 38 40 40 39 41 39 38 35 35 34 34 34 31 26 41 42 34 31 37 37 37 36
48 48 48 49 49 49 50 48 50 51 48 44 48 47 49 51 51 47 44 43 43 46 41 43 45 38 40 41 32 42 31 39 37 35 32 37 41 37 38 38 35 35 36 37
48 48 48 49 48 48 51 48 48 52 45 47 49 45 50 53 51 52 45 45 45 44 46 47 43 37 44 36 39 37 37 40 35 35 34 36 38 40 41 40 36 36 38 38
48 48 48 48 48 48 50 47 49 52 50 40 41 52 46 51 53 52 53 48 48 47 51 45 43 41 44 42 42 43 42 41 34 32 34 35 37 38 39 37 37 35 36 36
48 48 48 48 48 48 50 49 49 50 50 40 42 47 48 50 53 52 52 50 48 49 43 41 40 46 44 45 44 39 44 36 33 32 35 36 34 36 39 36 35 36 35 34
47 48 47 47 47 46 53 41 50 51 49 45 37 45 44 48 51 50 49 49 48 50 46 41 44 44 44 37 38 39 41 42 41 34 36 36 35 36 38 34 34 36 35 34
47 47 47 47 48 49 43 41 46 47 50 44 38 38 44 48 47 47 48 50 49 49 46 45 46 45 45 39 36 40 39 40 39 39 36 31 34 31 34 34 33 34 34 32
47 47 47 46 47 48 44 48 47 49 46 47 36 33 37 46 42 41 48 46 48 46 45 45 44 43 44 34 39 39 40 40 37 38 39 38 34 33 32 34 34 32 30 30
47 46 46 48 44 42 44 46 47 49 45 37 37 34 31 45 42 44 44 45 35 46 39 42 42 39 32 37 38 37 40 39 36 38 37 36 33 32 32 32 32 31 29 29
45 46 40 33 39 44 46 45 39 41 41 42 37 44 33 43 40 38 38 39 36 30 38 43 35 36 35 38 43 42 42 39 38 34 32 34 32 32 32 31 32 32 30 29
42 35 33 38 44 44 40 32 34 36 33 39 40 42 35 44 37 33 41 34 35 29 34 33 34 34 34 37 37 38 39 40 40 40 40 39 37 33 31 30 29 29 28 26
43 41 41 43 40 35 32 30 33 34 32 36 36 39 41 38 45 38 37 31 34 28 37 32 30 38 35 36 33 32 34 37 36 37 35 35 34 34 32 30 28 27 25 21
45 40 32 34 32 26 26 22 28 29 34 34 35 33 37 39 43 35 33 30 31 40 30 30 38 35 34 35 34 33 35 34 33 32 31 30 28 28 27 22 20 19 17 17
35 32 24 27 25 28 30 32 33 34 35 34 37 33 37 40 34 32 29 34 36 28 26 29 40 32 32 34 34 32 29 27 26 24 23 20 18 17 18 18 17 16 15 15
31 33 24 26 29 31 31 32 35 35 37 36 35 38 42 35 31 34 32 27 26 30 31 37 37 32 31 30 30 28 25 21 21 21 19 17 16 16 15 15 18 18 15 15
34 31 27 29 30 30 31 32 32 36 36 39 40 34 32 30 34 29 28 28 27 33 38 38 34 29 29 28 28 26 23 22 21 21 19 18 17 18 19 17 18 16 17 15
31 28 31 31 31 30 30 32 32 36 35 32 36 29 29 35 31 29 35 30 36 38 37 37 34 30 28 27 25 21 21 21 21 20 20 19 21 19 18 17 18 19 19 18

GFSNW_sfc_temp_135.txt.gz
Temp
49 51 51 50 51 52 51 41 32 45 48 35 36 40 49 52 57 61 57 56 55 52 50 48 46 45 50 56 54 46 52 48 42 47 55 57 53 46 45 32 37 37 40 27
47 48 49 50 51 51 43 35 36 45 46 34 37 46 49 53 54 54 53 52 55 57 50 43 49 49 54 54 51 48 51 45 38 41 48 53 46 46 47 44 40 36 30 28
48 48 47 47 48 49 47 38 31 37 40 43 41 41 45 46 54 52 54 53 56 53 49 51 46 47 48 52 51 47 48 47 39 36 35 43 40 44 46 41 32 33 30 30
47 48 47 48 48 48 46 42 37 42 32 38 44 44 47 46 44 53 55 50 52 50 44 45 44 46 46 49 48 50 49 42 45 46 48 45 39 41 40 35 35 34 31 31
47 46 47 46 47 48 46 37 39 47 44 46 43 44 45 45 47 48 46 46 49 51 45 46 42 46 47 45 49 49 51 42 45 42 47 41 37 41 43 40 38 35 35 33
47 46 46 47 48 48 46 51 55 50 42 41 39 43 46 46 48 47 52 51 50 46 49 54 57 57 55 53 48 47 47 44 42 38 46 35 30 33 35 36 38 38 32 34
49 48 48 48 48 48 51 55 53 44 36 41 43 47 49 48 50 47 53 55 49 51 57 56 54 53 52 51 51 53 46 43 43 40 39 26 32 41 40 33 34 34 35 35
50 49 48 48 49 49 53 57 51 51 40 48 48 50 51 51 52 51 51 51 55 57 53 46 41 41 42 46 51 50 51 46 40 36 38 32 36 42 38 35 32 38 36 39
49 49 49 49 48 49 54 57 55 57 50 48 54 51 52 46 47 46 45 52 56 55 49 44 38 35 41 38 40 51 50 49 42 40 34 29 36 44 45 43 30 39 39 38
49 49 49 49 48 49 52 56 56 58 46 56 57 51 50 55 50 45 46 46 47 53 45 40 41 40 49 37 34 35 39 39 36 38 36 36 43 46 46 28 28 39 41 37
48 49 49 49 48 50 52 54 57 58 49 51 56 57 52 53 53 44 47 44 45 45 42 44 44 43 44 44 46 40 40 38 36 40 35 30 46 46 36 35 41 40 39 38
48 48 49 49 49 50 50 55 59 63 54 48 55 54 56 56 57 53 50 48 47 51 46 46 49 42 44 46 36 47 36 44 41 40 33 42 46 41 43 43 39 39 39 41
48 48 49 49 49 49 51 56 60 58 50 52 54 50 55 58 58 59 48 52 51 50 51 52 49 42 49 41 42 40 42 47 40 39 40 42 43 45 43 42 39 41 42 42
48 48 48 49 49 50 54 56 59 60 56 44 45 58 51 58 60 58 58 53 54 53 55 51 48 45 50 48 48 46 47 45 38 35 40 41 42 42 40 39 39 39 41 41
48 48 48 48 49 51 56 57 57 59 56 43 44 52 54 58 58 56 56 54 53 52 46 45 46 51 50 51 50 43 49 39 36 34 39 39 39 41 42 39 39 39 38 38
48 48 48 48 48 48 59 46 57 59 63 48 38 50 50 54 56 53 52 53 53 54 50 45 49 49 48 41 42 45 46 48 46 37 42 42 40 42 42 38 39 40 39 38
47 48 48 48 50 53 50 45 50 50 59 48 40 40 48 52 52 52 52 54 53 54 50 50 50 48 49 44 41 44 44 44 45 45 42 35 39 35 39 39 39 38 38 37
47 47 48 48 49 49 49 51 50 52 58 56 39 35 38 50 43 42 53 49 51 50 49 50 48 47 48 39 46 45 44 44 42 42 43 41 38 38 37 38 38 36 35 34
47 47 48 53 51 48 50 46 48 58 54 43 41 36 32 49 45 46 48 49 38 50 40 46 47 42 35 41 45 44 45 41 40 43 42 39 36 35 35 36 37 35 34 34
47 52 43 34 43 44 48 52 44 47 50 50 42 48 35 46 43 40 40 42 36 32 41 46 39 40 42 46 49 48 47 47 46 39 37 38 36 37 37 37 38 38 36 34
47 38 34 46 45 50 45 36 39 42 38 46 46 45 38 48 37 35 42 35 38 32 36 35 35 38 39 46 47 47 46 46 46 46 45 44 42 39 37 36 36 35 34 32
45 44 46 47 45 40 34 33 38 40 36 40 39 42 44 44 48 40 39 33 36 30 42 33 33 41 42 44 42 43 44 44 43 44 43 42 41 40 38 36 35 33 32 24
48 43 35 37 36 29 29 25 33 33 36 38 39 36 42 44 44 37 36 30 32 43 32 33 41 42 43 43 41 40 42 42 41 40 40 39 36 35 34 30 26 24 22 21
39 34 26 30 28 33 35 37 37 37 38 39 41 37 40 41 35 35 30 37 39 29 28 32 42 39 41 42 41 40 37 35 34 31 30 28 26 23 23 22 22 20 19 19
34 37 26 29 32 34 32 35 37 37 40 38 39 41 42 37 31 35 34 28 28 33 34 40 41 39 39 37 38 36 32 28 28 28 25 22 21 20 20 21 22 22 19 19
37 35 30 33 33 31 33 33 33 39 39 41 43 37 33 32 35 32 30 32 30 36 42 42 40 35 35 34 34 32 30 28 27 26 24 22 21 21 22 22 23 20 20 18
35 30 34 34 33 31 32 35 34 39 37 34 39 32 31 39 34 32 39 33 39 41 41 43 41 34 33 32 31 28 26 26 27 25 24 23 24 24 23 21 22 22 23 21

GFSNW_sfc_temp_138.txt.gz
Temp
50 52 53 53 53 52 51 42 32 45 49 34 36 36 46 51 54 58 57 57 52 50 51 47 45 47 51 59 56 48 53 49 43 47 57 59 55 49 47 35 36 38 34 27
49 46 45 49 51 50 43 36 37 45 46 32 32 44 45 51 51 52 53 50 54 54 50 44 48 51 57 56 54 50 51 44 36 42 49 53 49 49 48 46 43 34 29 28
48 48 48 47 48 49 44 37 30 36 39 39 42 39 42 42 53 55 54 53 56 53 50 53 47 48 52 54 54 48 51 46 41 34 37 45 40 45 46 43 35 33 31 30
49 48 47 47 48 49 45 42 39 41 30 34 42 44 44 46 47 56 56 52 53 51 46 48 47 48 48 51 47 50 49 41 45 48 49 46 43 44 42 38 39 33 32 32
48 47 47 47 47 48 43 35 40 44 41 44 42 41 43 46 49 50 48 46 52 53 46 48 45 47 46 45 49 48 50 40 46 42 49 42 39 44 45 42 40 38 34 32
48 47 47 47 47 47 41 44 55 49 43 43 39 39 42 45 48 49 53 52 50 48 51 54 58 56 54 54 46 45 46 43 41 37 45 38 31 36 39 38 39 37 33 35
48 47 46 47 47 48 44 45 46 41 36 40 40 46 48 47 48 45 52 54 50 53 59 58 56 54 54 53 51 54 46 45 43 36 38 26 33 44 42 33 35 35 36 36
47 47 47 46 48 49 46 48 46 43 35 40 43 48 48 49 50 49 50 54 55 57 52 43 39 40 42 46 51 50 52 46 38 34 35 33 38 41 39 36 34 40 38 40
48 48 48 47 48 49 46 51 51 47 38 37 48 45 46 42 45 46 45 53 56 53 47 41 35 31 38 37 43 53 51 49 41 39 32 29 37 47 49 46 29 42 41 38
49 49 49 48 49 49 50 51 51 46 45 50 51 46 44 53 48 42 45 46 47 53 42 38 38 38 47 36 34 36 39 39 35 37 35 34 46 48 48 29 28 41 41 38
49 49 49 49 49 49 50 53 53 51 46 48 56 58 51 53 51 41 45 45 46 43 39 41 43 41 45 42 44 40 38 36 35 39 35 27 48 45 36 35 41 41 39 38
48 49 49 49 49 50 50 52 59 57 51 47 53 54 56 57 58 52 49 48 47 49 44 47 46 42 45 43 33 49 36 43 38 38 33 43 45 42 45 46 40 41 40 41
48 48 49 49 49 50 50 55 58 56 49 50 51 48 56 61 60 63 48 52 53 50 51 50 46 43 47 39 40 42 45 49 39 39 42 42 42 44 44 44 42 44 44 43
48 48 49 49 49 51 52 54 57 57 54 42 44 59 55 62 61 59 59 54 55 55 54 49 46 43 50 45 45 44 47 47 39 37 41 41 42 42 41 41 42 42 43 42
48 48 48 48 49 50 56 57 57 58 54 41 43 54 58 60 59 57 57 54 53 51 46 44 44 48 48 49 49 41 49 41 36 35 41 41 39 41 42 40 40 41 41 40
48 48 48 49 50 50 57 44 56 56 61 48 38 51 52 56 56 55 54 54 54 53 48 44 46 50 46 41 40 46 48 47 46 39 44 42 41 43 43 40 41 42 41 40
47 48 48 49 51 52 49 45 48 50 56 47 39 39 48 53 54 53 51 55 53 52 49 47 47 46 47 44 39 45 44 46 45 45 42 37 40 35 40 41 39 40 39 38
48 48 49 49 49 49 49 50 50 48 55 54 38 34 42 52 44 43 53 48 50 48 47 48 46 46 46 39 45 45 45 44 41 42 44 41 40 40 39 40 40 37 36 35
48 48 49 52 50 48 49 47 48 57 53 43 40 35 32 50 45 47 47 49 37 48 41 45 46 42 35 42 44 44 45 41 40 42 42 40 37 37 37 38 38 37 35 35
48 50 42 34 44 46 49 51 43 47 51 50 41 47 36 47 43 40 40 42 37 33 40 46 39 38 44 49 50 48 47 47 45 38 35 37 35 35 36 38 39 39 37 35
47 38 36 47 47 50 45 36 38 42 39 47 46 44 39 50 39 36 43 36 38 32 36 36 34 35 40 49 48 50 49 48 47 46 44 43 41 39 38 37 38 37 35 33
46 45 48 48 45 40 34 34 39 41 36 42 41 42 44 44 47 40 40 35 36 30 41 33 32 39 44 48 46 46 45 46 45 46 44 43 42 41 39 37 36 35 32 22
48 43 34 38 37 30 31 26 33 33 38 40 41 36 41 44 44 37 36 31 32 41 32 31 38 42 45 45 44 43 45 44 42 42 42 41 36 35 35 26 24 22 20 19
39 35 29 32 29 33 32 34 35 38 39 41 41 38 40 40 35 35 31 36 38 29 27 32 40 41 42 43 43 42 40 36 35 32 29 26 24 22 22 22 22 19 17 17
35 37 28 30 33 34 33 36 37 39 42 42 40 40 42 36 31 35 34 29 28 32 33 38 40 42 42 40 40 39 31 29 29 28 25 23 21 21 20 20 21 21 18 17
37 36 30 34 33 31 33 32 33 38 40 43 42 37 33 32 35 32 31 31 30 35 38 40 41 38 38 36 35 32 30 30 30 29 26 23 20 21 22 22 22 19 18 16
35 31 33 34 33 32 33 35 35 41 38 33 38 32 32 38 33 32 38 33 36 38 41 43 41 36 34 33 31 29 29 29 29 27 25 23 24 24 22 21 22 21 21 18